.

MPMG - Transparência

Contracheque - Remuneração de todos os servidores ativos - Pós Resolução CNMP 200/2019

Período: 2021 - Novembro

Ordem Matrícula Nome Cargo Efetivo Lotação Rendimentos Descontos Rendimento Líquido Total *14 Data de Referência
Remuneração básica Remuneração eventual ou Temporária Outras Remunerações Temporárias *7 Verbas Indenizatórias *8 Total de Rendimentos Brutos *9 Obrigatórios Legais Outros Descontos Eventuais Total de descontos *13
Remuneração do Cargo Efetivo *1 Outras Verbas Remuneratórias *2 Função de Confiança ou Cargo em Comissão *3 Gratificação Natalina *4 Férias 1/3 Constitucional *5 Abono de Permanência *6 Contribuição Previdenciária *10 Imposto de Renda *11 Retenção por Teto Constitucional *12
1 498900 ABDON MARCIO BARBOSA DA SILVA OFICIAL DO MP ABRE CAMPO - COMARCA; ABRE CAMPO-PJ-01PJ 6.123,79 1.224,76 0,00 0,00 0,00 0,00 0,00 5.146,32 12.494,87 988,05 775,50 0,00 0,00 1.763,55 10.731,32 30/11/2021
2 177800 ADALBERTO MENEZES FARIA SAMORA OFICIAL DO MP BELO HORIZONTE - COMARCA; DIR ESTRUTURA E PROCESSOS ORGANIZACIONAIS 16.750,82 6.700,33 0,00 0,00 0,00 0,00 189,78 25.168,15 48.809,08 3.564,46 9.297,57 0,00 0,00 12.862,03 35.947,05 30/11/2021
3 306400 ADALBERTO MOREIRA GONCALVES ANALISTA DO MP BELO HORIZONTE - COMARCA; BH-24PJ JUIZO REG BARREIRO-SECRETARIA 17.413,92 5.224,18 0,00 0,00 0,00 0,00 79,02 24.355,10 47.072,22 3.434,37 6.411,27 0,00 0,00 9.845,64 37.226,58 30/11/2021
4 179300 ADENISE AUXILIADORA SOUZA SAD OFICIAL DO MP BARBACENA - COMARCA; BARBACENA-PJ-06PJ 15.272,02 6.108,81 0,00 0,00 0,00 0,00 61,77 23.097,83 44.540,43 3.233,21 5.580,17 0,00 0,00 8.813,38 35.727,05 30/11/2021
5 272200 ADILSON BATISTA ORNELAS OFICIAL DO MP LAVRAS - COMARCA; LAVRAS-PJ-SECRETARIA 5.136,32 1.540,90 0,00 0,00 0,00 0,00 0,00 8.394,22 15.071,44 880,63 672,57 0,00 0,00 1.553,20 13.518,24 30/11/2021
6 380100 ADILSON GONCALVES DE MELO JUNIOR ANALISTA DO MP ARAXÁ - COMARCA; ARAXA-PJ-05PJ 12.204,02 2.440,80 0,00 0,00 0,00 0,00 42,34 16.361,82 31.048,98 2.155,45 3.532,99 0,00 0,00 5.688,44 25.360,54 30/11/2021
7 148800 ADILSON JANUARIO OFICIAL DO MP BELO HORIZONTE - COMARCA; BH-22PJ PES COM DEF E IDOSOS-SECRETARIA 18.820,14 13.174,10 0,00 0,00 0,00 4.931,36 0,00 33.711,24 70.636,84 4.931,36 7.876,92 0,00 0,00 12.808,28 57.828,56 30/11/2021
8 322601 ADMILSON SILVEIRA ANALISTA DO MP SAO JOAO DO PARAISO COMARCA; SAO JOAO DO PARAISO-PJ-UNPJ 9.146,93 914,69 0,00 0,00 0,00 0,00 0,00 13.562,97 23.624,59 1.422,14 1.506,50 0,00 0,00 2.928,64 20.695,95 30/11/2021
9 333700 ADRIANA ABRITTA TEIXEIRA OFICIAL DO MP BELO HORIZONTE - COMARCA; DIRET DE PESSOAL DO MINISTERIO PUBLICO - DPMP 10.069,62 3.020,89 0,00 0,00 0,00 0,00 0,00 14.807,51 27.898,02 1.906,76 2.206,17 0,00 0,00 4.112,93 23.785,09 30/11/2021
10 468500 ADRIANA APARECIDA FIRMINO ANALISTA DO MP CARATINGA - COMARCA; CARATINGA-PJ-04PJ 10.069,62 2.013,92 0,00 0,00 0,00 0,00 0,00 6.514,24 18.597,78 1.745,64 1.921,43 0,00 0,00 3.667,07 14.930,71 30/11/2021
11 326100 ADRIANA AUGUSTA AMARAL BELO OFICIAL DO MP BARBACENA - COMARCA; BARBACENA-PJ-08PJ 10.069,62 3.020,89 0,00 0,00 0,00 0,00 0,00 6.080,50 19.171,01 1.906,76 2.101,90 0,00 0,00 4.008,66 15.162,35 30/11/2021
12 605700 ADRIANA COSTA LIRA ASSESSOR/OFICIAL BELO HORIZONTE - COMARCA; COORD ESTADUAL DE DEFESA DA EDUCACAO 0,00 817,05 8.170,49 0,00 0,00 0,00 0,00 7.409,11 16.396,65 856,09 1.366,79 0,00 0,00 2.222,88 14.173,77 30/11/2021
13 541100 ADRIANA CRISTINA DE OLIVEIRA OFICIAL DO MP GUAPÉ - COMARCA; GUAPE-PJ-UNPJ 5.562,64 556,26 0,00 0,00 0,00 0,00 0,00 8.605,29 14.724,19 792,88 543,16 0,00 0,00 1.336,04 13.388,15 30/11/2021
14 254800 ADRIANA DAS GRACAS FERNANDES ANALISTA DO MP UBERABA - COMARCA; UBERABA-PJ-07PJ 18.820,14 13.174,10 0,00 0,00 0,00 0,00 0,00 33.711,24 65.705,48 4.931,36 6.520,79 0,00 0,00 11.452,15 54.253,33 30/11/2021
15 217400 ADRIANA DE CARVALHO CATAO BRAGA ASSESSOR BELO HORIZONTE - COMARCA; DIV FISCAL ADM CONT TERCEIRIZACAO 0,00 3.268,20 8.170,49 0,00 0,00 0,00 0,00 1.717,00 13.155,69 751,97 2.398,94 0,00 0,00 3.150,91 10.004,78 30/11/2021
16 434600 ADRIANA FERREIRA DA SILVA ANALISTA DO MP BELO HORIZONTE - COMARCA; BH-14PJ DEFESA CONSUMIDOR-GAB 112PJ 13.011,52 2.602,30 0,00 0,00 0,00 0,00 32,49 10.044,37 25.690,68 2.310,49 3.976,45 0,00 0,00 6.286,94 19.403,74 30/11/2021
17 499800 ADRIANA FERREIRA TIAGO OFICIAL DO MP SALINAS - COMARCA; SALINAS-PJ-02PJ 7.421,79 1.484,36 0,00 0,00 0,00 0,00 0,00 10.913,04 19.819,19 1.237,26 1.239,58 0,00 0,00 2.476,84 17.342,35 30/11/2021
18 543400 ADRIANA GUIMARAES NUNES DE PAULA ANALISTA DO MP PATROCÍNIO - COMARCA; PATROCINIO-PJ-01PJ 9.444,70 944,47 0,00 0,00 0,00 0,00 0,00 1.717,00 12.106,17 1.474,54 1.582,16 0,00 0,00 3.056,70 9.049,47 30/11/2021
19 471500 ADRIANA HORTA DE CARVALHO RODRIGUES DE SOUSA ANALISTA DO MP BELO HORIZONTE - COMARCA; GRUPO ESP PROM JUST DEF PROB ADM PAT PUB 10.069,62 2.013,92 0,00 0,00 4.027,85 0,00 0,00 1.717,00 17.828,39 1.745,64 3.029,08 0,00 0,00 4.774,72 13.053,67 30/11/2021
20 86400 ADRIANA MOREIRA CALDEIRA BRANT OFICIAL DO MP BELO HORIZONTE - COMARCA; BH-21PJ TUTELA FUNDACOES-SECRETARIA 15.272,02 10.690,41 0,00 0,00 0,00 3.966,27 0,00 30.193,39 60.122,09 3.966,27 6.270,31 0,00 0,00 10.236,58 49.885,51 30/11/2021
21 480700 ADRIANA MOREIRA DE AVELLAR CEZILIO OFICIAL DO MP BELO HORIZONTE - COMARCA; BH-12PJ JUIZO CRIMINAL-SECRETARIA 6.123,79 1.224,76 0,00 0,00 0,00 0,00 269,45 5.881,18 13.499,18 988,05 775,50 0,00 0,00 1.763,55 11.735,63 30/11/2021
22 326000 ADRIANA PEREIRA CARNEIRO RESENDE OFICIAL DO MP BELO HORIZONTE - COMARCA; BH-25PJ DEFESA DA EDUCACAO-SECRETARIA 9.752,14 2.925,64 0,00 0,00 0,00 0,00 0,00 14.807,51 27.485,29 1.840,72 2.110,83 0,00 0,00 3.951,55 23.533,74 30/11/2021
23 502200 ADRIANA PETRUCCI DAVINA OFICIAL DO MP PATROCÍNIO - COMARCA; PATROCINIO-PJ-01PJ 7.663,37 1.532,67 0,00 0,00 0,00 0,00 0,00 11.981,81 21.177,85 1.283,64 1.306,55 0,00 0,00 2.590,19 18.587,66 30/11/2021
24 201900 ADRIANA REIS PIMENTA OFICIAL DO MP TEÓFILO OTONI - COMARCA; TEOFILO OTONI-PJ-03PJ 15.272,02 6.108,81 0,00 0,00 0,00 0,00 61,77 23.097,83 44.540,43 3.233,21 5.746,21 0,00 0,00 8.979,42 35.561,01 30/11/2021
25 278700 ADRIANA RODRIGUES PINTO COELHO AMARAL ANALISTA DO MP BELO HORIZONTE - COMARCA; CGMP-ASSESSORIA JURIDICA 18.103,37 5.431,01 0,00 0,00 0,00 0,00 0,00 1.717,00 25.251,38 3.577,78 4.566,57 0,00 0,00 8.144,35 17.107,03 30/11/2021
26 468000 ADRIANA SANTOS DE SANTANA MOREIRA ANALISTA DO MP ARAÇUAÍ - COMARCA; ARACUAI-PJ-02PJ 10.069,62 4.027,85 0,00 0,00 0,00 0,00 0,00 1.717,00 15.814,47 2.067,87 2.334,51 0,00 0,00 4.402,38 11.412,09 30/11/2021
27 194700 ADRIANA TSUKIDE OFICIAL DO MP UBERABA - COMARCA; COORD REG BACIAS PARANAIBA BAIXO RIO GRANDE 15.272,02 6.108,81 0,00 0,00 0,00 0,00 96,37 1.717,00 23.194,20 3.233,21 5.694,08 0,00 0,00 8.927,29 14.266,91 30/11/2021
28 465500 ADRIANO CASSIANO MATOS ANALISTA DO MP ARAXÁ - COMARCA; ARAXA-PJ-02PJ 10.069,62 2.013,92 0,00 0,00 0,00 0,00 0,00 1.717,00 13.800,54 1.745,64 1.973,56 0,00 0,00 3.719,20 10.081,34 30/11/2021
29 500500 ADRIANO DE ALMEIDA SILVA OFICIAL DO MP UBERABA - COMARCA; UBERABA-PJ-12PJ 7.663,37 1.532,67 0,00 0,00 0,00 0,00 0,00 11.981,81 21.177,85 1.283,64 852,80 0,00 0,00 2.136,44 19.041,41 30/11/2021
30 187200 ADRIANO DE FREITAS MARON OFICIAL DO MP PONTE NOVA - COMARCA; PONTE NOVA-PJ-03PJ 12.601,30 11.341,17 0,00 0,00 0,00 3.643,07 0,00 26.438,89 54.024,43 3.643,07 5.714,82 0,00 0,00 9.357,89 44.666,54 30/11/2021
31 477900 ADRIANO FERREIRA DE ALMEIDA OFICIAL DO MP TAIOBEIRAS - COMARCA; TAIOBEIRAS-PJ-UNPJ 7.912,85 1.582,57 0,00 0,00 0,00 0,00 27,44 11.964,64 21.487,50 1.331,54 1.973,49 0,00 0,00 3.305,03 18.182,47 30/11/2021
32 269101 ADRIANO PEREIRA SILVA ANALISTA DO MP UBERABA - COMARCA; UBERABA-PJ-02PJ 10.069,62 2.013,92 0,00 0,00 0,00 0,00 0,00 13.800,54 25.884,08 1.745,64 1.817,15 0,00 0,00 3.562,79 22.321,29 30/11/2021
33 414200 ADRIANO RODRIGUES FERNANDES ANALISTA DO MP CARANDAÍ - COMARCA; CARANDAI-PJ-UNPJ 10.069,62 2.013,92 0,00 0,00 0,00 0,00 0,00 1.717,00 13.800,54 1.745,64 1.869,29 0,00 0,00 3.614,93 10.185,61 30/11/2021
34 536700 ADRIELLE COSTA MARIA MOURAO FIGUEIREDO OFICIAL DO MP SERRO - COMARCA; SERRO-PJ-SECRETARIA 5.562,64 556,26 0,00 0,00 0,00 0,00 0,00 8.605,29 14.724,19 792,88 595,30 0,00 0,00 1.388,18 13.336,01 30/11/2021
35 514300 ADRIENE DAMASCENO BRAGA ANALISTA DO MP ALFENAS - COMARCA; ALFENAS-PJ-03PJ 10.069,62 1.006,96 0,00 0,00 0,00 0,00 527,98 8.246,21 19.850,77 1.584,53 1.740,95 0,00 0,00 3.325,48 16.525,29 30/11/2021
36 254600 ADRIENE DOMINGUES COSTA ANALISTA DO MP BELO HORIZONTE - COMARCA; SUPER DE GESTAO DE PESSOAS-LOTACAO TEMPORARIA 16.750,82 5.025,25 0,00 0,00 0,00 0,00 0,00 0,00 21.776,07 3.296,45 4.212,54 0,00 0,00 7.508,99 14.267,08 30/11/2021
37 252001 ADRIENE GOMES BARRETO ANALISTA DO MP BELO HORIZONTE - COMARCA; BH-19PJ SAUDE-SECRETARIA 047PJ 14.324,23 5.729,69 0,00 0,00 0,00 0,00 0,00 15.521,61 35.575,53 3.020,90 3.814,72 0,00 0,00 6.835,62 28.739,91 30/11/2021
38 645000 AFONSO CELSO GUIMARAES JUNIOR OFICIAL DO MP PIRAPORA - COMARCA; PIRAPORA-PJ-01PJ 4.817,57 481,76 0,00 0,00 0,00 0,00 0,00 1.717,00 7.016,33 719,83 1.528,89 0,00 0,00 2.248,72 4.767,61 30/11/2021
39 302500 AGENOR JOSE DA SILVA JUNIOR ANALISTA DO MP JUIZ DE FORA - COMARCA; JUIZ DE FORA-PJ-14PJ 17.413,92 5.224,18 0,00 0,00 0,00 0,00 79,02 24.355,10 47.072,22 3.434,37 6.306,99 0,00 0,00 9.741,36 37.330,86 30/11/2021
40 357500 AILSON WAGNER DE ALENCAR SILVA OFICIAL DO MP BELO HORIZONTE - COMARCA; BH-12PJ JUIZO CRIMINAL-SECRETARIA 10.736,08 4.294,43 0,00 0,00 0,00 0,00 0,00 17.236,78 32.267,29 2.217,16 2.497,90 0,00 0,00 4.715,06 27.552,23 30/11/2021
41 366400 AILTON ALEXSSANDRO ALVES OFICIAL DO MP PARÁ DE MINAS - COMARCA; PARA DE MINAS-PJ-05PJ 9.444,70 3.777,88 0,00 0,00 0,00 0,00 0,00 15.370,00 28.592,58 1.927,89 2.236,68 0,00 0,00 4.164,57 24.428,01 30/11/2021
42 318900 AILTON DE CASTRO RIBEIRO JUNIOR OFICIAL DO MP ITAJUBA - COMARCA; ITAJUBA-PJ-01PJ 10.069,62 3.020,89 0,00 0,00 0,00 0,00 0,00 2.486,39 15.576,90 1.906,76 1.997,62 0,00 0,00 3.904,38 11.672,52 30/11/2021
43 464400 ALAN MONTEIRO GASPAR ANALISTA DO MP SETE LAGOAS - COMARCA; SETE LAGOAS-PJ-08PJ 10.069,62 2.013,92 0,00 0,00 0,00 0,00 0,00 13.800,54 25.884,08 1.745,64 1.973,56 0,00 0,00 3.719,20 22.164,88 30/11/2021
44 492000 ALANA DE CASTRO FREITAS OFICIAL DO MP LAVRAS - COMARCA; LAVRAS-PJ-03PJ 6.123,79 1.224,76 0,00 0,00 0,00 0,00 0,00 9.065,55 16.414,10 988,05 879,78 0,00 0,00 1.867,83 14.546,27 30/11/2021
45 306700 ALANA MARCIA DE OLIVEIRA OFICIAL DO MP BELO HORIZONTE - COMARCA; DIRETORIA DE ADMINISTRACAO FINANCEIRA 10.069,62 3.020,89 0,00 0,00 0,00 0,00 37,83 14.807,51 27.935,85 1.906,76 3.164,20 0,00 0,00 5.070,96 22.864,89 30/11/2021
46 324500 ALANMAR COUTINHO COSTA OFICIAL DO MP LEOPOLDINA - COMARCA; LEOPOLDINA-PJ-02PJ 10.069,62 3.020,89 0,00 0,00 0,00 0,00 74,47 1.717,00 14.881,98 1.906,76 3.987,71 0,00 0,00 5.894,47 8.987,51 30/11/2021
47 407300 ALBERTO LUIZ SOARES DE OLIVEIRA ANALISTA DO MP BELO HORIZONTE - COMARCA; DIRETORIA DE PROJETOS DE EDIFICACOES 13.011,52 2.602,30 0,00 0,00 0,00 0,00 0,00 1.717,00 17.330,82 2.310,49 3.931,32 0,00 0,00 6.241,81 11.089,01 30/11/2021
48 118200 ALBERTO PEREIRA DA COSTA OFICIAL DO MP DORES DO INDAIÁ - COMARCA; DORES DO INDAIA-PJ-UNPJ 17.413,92 15.672,53 0,00 138,59 0,00 10.158,23 69,29 34.803,45 78.256,01 5.106,11 12.184,19 0,00 0,00 17.290,30 60.965,71 30/11/2021
49 282400 ALCILENE MARISE DE ARAUJO ANALISTA DO MP BELO HORIZONTE - COMARCA; BH-23PJ INF-FISC MED SOC FEC 18.103,37 5.431,01 0,00 0,00 0,00 0,00 0,00 25.251,38 48.785,76 3.577,78 4.514,43 0,00 0,00 8.092,21 40.693,55 30/11/2021
50 112600 ALCIONE DA MOTA JARDIM OFICIAL DO MP BELO HORIZONTE - COMARCA; CAO-CRIANCAS E ADOLESCENTES-SECRETARIA 13.872,60 9.710,82 0,00 0,00 0,00 0,00 0,00 1.717,00 25.300,42 3.585,62 4.577,90 0,00 0,00 8.163,52 17.136,90 30/11/2021
51 396400 ALCIONE DE FREITAS E SILVA ANALISTA DO MP BELO HORIZONTE - COMARCA; ASSESS JUR DO CONS SUPERIOR DO MINISTERIO PUB 14.324,23 5.729,69 0,00 0,00 0,00 0,00 0,00 19.663,00 39.716,92 3.020,90 3.814,72 0,00 0,00 6.835,62 32.881,30 30/11/2021
52 657400 ALCIONE MARIA FERREIRA ASSESSOR PROCURADOR JUSTICA BELO HORIZONTE - COMARCA; GABINETE DE PROCURADOR DE JUSTIÇA - SALA 610 0,00 0,00 7.187,72 0,00 0,00 0,00 0,00 2.486,39 9.674,11 751,97 1.229,92 0,00 0,00 1.981,89 7.692,22 30/11/2021
53 161600 ALCIONE NERY SOUZA ASSESSOR BELO HORIZONTE - COMARCA; BH-18PJ DIREITOS HUMANOS-SECRETARIA 0,00 4.085,25 8.170,49 0,00 0,00 0,00 0,00 1.717,00 13.972,74 751,97 2.623,63 0,00 0,00 3.375,60 10.597,14 30/11/2021
54 376000 ALDA GOMES LANA OFICIAL DO MP BELO HORIZONTE - COMARCA; BH-18PJ VIOLENCIA DOMESTICA-SECRETARIA 9.146,93 1.829,39 0,00 0,00 0,00 0,00 31,74 1.717,00 12.725,06 1.568,49 2.501,31 0,00 0,00 4.069,80 8.655,26 30/11/2021
55 148000 ALDA MARTINS SIMOES OFICIAL DO MP BELO HORIZONTE - COMARCA; BH-23PJ CIVEL- FISC ENT AB POL 18.103,37 9.051,69 0,00 0,00 0,00 0,00 497,84 7.148,01 34.800,91 4.157,09 5.455,08 0,00 0,00 9.612,17 25.188,74 30/11/2021
56 318400 ALDO CREPALDI JUNIOR OFICIAL DO MP BELO HORIZONTE - COMARCA; DIVISAO DE MATERIAIS 9.752,14 2.925,64 0,00 0,00 0,00 0,00 0,00 14.807,51 27.485,29 1.840,72 2.058,69 0,00 0,00 3.899,41 23.585,88 30/11/2021
57 604500 ALENIZE APARECIDA RODRIGUES HENRIQUE OFICIAL DO MP RIO NOVO - COMARCA; RIO NOVO-PJ-UNPJ 5.387,19 538,72 0,00 0,00 0,00 0,00 0,00 7.835,90 13.761,81 762,96 550,45 0,00 0,00 1.313,41 12.448,40 30/11/2021
58 197900 ALESSA DE SOUSA E SILVA OFICIAL DO MP OLIVEIRA - COMARCA; OLIVEIRA-PJ-02PJ 16.750,82 6.700,33 0,00 0,00 0,00 0,00 189,78 25.168,15 48.809,08 3.564,46 9.297,57 0,00 0,00 12.862,03 35.947,05 30/11/2021
59 428500 ALESSANDRA ALVES DINIZ OFICIAL DO MP BELO HORIZONTE - COMARCA; CENTRAL DE APOIO TECNICO-SECRETARIA 6.123,79 3.061,90 0,00 0,00 0,00 0,00 0,00 1.717,00 10.902,69 1.281,99 1.304,16 0,00 0,00 2.586,15 8.316,54 30/11/2021
60 286801 ALESSANDRA BOTELHO JUNQUEIRA DE MENEZES ANALISTA DO MP PASSOS - COMARCA; PASSOS-PJ-05PJ 14.324,23 5.729,69 0,00 0,00 0,00 0,00 168,46 22.540,31 42.762,69 3.020,90 8.038,42 0,00 0,00 11.059,32 31.703,37 30/11/2021
61 307000 ALESSANDRA CRISTINA SANTOS MENDES ANALISTA DO MP BELO HORIZONTE - COMARCA; BH-18PJ VIOLENCIA DOMESTICA-SECRETARIA 12.601,30 3.780,39 0,00 0,00 0,00 0,00 47,34 18.098,69 34.527,72 2.433,35 4.160,07 0,00 0,00 6.593,42 27.934,30 30/11/2021
62 264400 ALESSANDRA DE SOUZA SANTOS ANALISTA DO MP BELO HORIZONTE - COMARCA; SUPERINTENDENCIA DOS ORGAOS COLEGIADOS 18.820,14 7.528,06 0,00 0,00 0,00 0,00 0,00 1.717,00 28.065,20 4.027,99 5.268,70 0,00 0,00 9.296,69 18.768,51 30/11/2021
63 441500 ALESSANDRA DRUMMOND DE FIGUEIREDO ROSSI ANALISTA DO MP BELO HORIZONTE - COMARCA; DIRETORIA DE PROJETOS DE EDIFICACOES 10.069,62 2.013,92 0,00 0,00 0,00 0,00 0,00 1.717,00 13.800,54 1.745,64 1.973,56 0,00 0,00 3.719,20 10.081,34 30/11/2021
64 524000 ALESSANDRA LUCIOLI DE BARROS GUERRA ANALISTA DO MP BELO HORIZONTE - COMARCA; BH-19PJ SAUDE--SECRETARIA 10.069,62 1.006,96 0,00 0,00 0,00 0,00 0,00 5.409,19 16.485,77 1.584,53 1.584,54 0,00 0,00 3.169,07 13.316,70 30/11/2021
65 479900 ALESSANDRA MARA ANDRADE DE FARIA OFICIAL DO MP UBERABA - COMARCA; UBERABA-PJ-09PJ 7.912,85 1.582,57 0,00 0,00 0,00 0,00 27,44 5.831,68 15.354,54 1.331,54 2.070,90 0,00 0,00 3.402,44 11.952,10 30/11/2021
66 226700 ALESSANDRA MARA VASCONCELOS REZENDE OFICIAL DO MP CONSELHEIRO LAFAIETE - COMARCA; CONSELHEIRO LAFAIETE-PJ-07PJ 10.736,08 3.220,82 0,00 0,00 0,00 0,00 40,35 15.673,90 29.671,15 2.045,38 3.468,32 0,00 0,00 5.513,70 24.157,45 30/11/2021
67 112100 ALESSANDRA MARCIA FERREIRA OFICIAL DO MP BELO HORIZONTE - COMARCA; BELO HORIZONTE- SECRETARIA DAS PROMOTORIAS 10.069,62 7.048,73 0,00 0,00 0,00 0,00 0,00 18.835,35 35.953,70 2.551,21 3.136,60 0,00 0,00 5.687,81 30.265,89 30/11/2021
68 196500 ALESSANDRA MARIA RIBEIRO LUCIANO OFICIAL DO MP RIO PARANAÍBA - COMARCA; RIO PARANAIBA-PJ-UNPJ 15.272,02 6.108,81 0,00 0,00 0,00 0,00 0,00 25.168,15 46.548,98 3.233,21 4.016,96 0,00 0,00 7.250,17 39.298,81 30/11/2021
69 651700 ALESSANDRA PROFIRIO SOUZA OFICIAL DO MP NOVA ERA - COMARCA; NOVA ERA-PJ-UNPJ 4.376,03 262,56 0,00 0,00 0,00 0,00 0,00 1.717,00 6.355,59 570,31 236,58 0,00 0,00 806,89 5.548,70 30/11/2021
70 384900 ALESSANDRA RODRIGUES ANALISTA DO MP VISCONDE DO RIO BRANCO - COMARCA; VISCONDE DO RIO BRANCO-PJ-03PJ 14.324,23 2.864,85 0,00 0,00 0,00 0,00 0,00 14.910,54 32.099,62 2.562,53 3.048,67 0,00 0,00 5.611,20 26.488,42 30/11/2021
71 390000 ALESSANDRA SPADANO MASSARA VASCONCELOS OFICIAL DO MP BETIM - COMARCA; BETIM-PJ-10PJ 8.858,43 1.771,69 0,00 0,00 0,00 0,00 0,00 1.717,00 12.347,12 1.513,10 1.637,82 0,00 0,00 3.150,92 9.196,20 30/11/2021
72 426500 ALESSANDRO CAMPOS DE PAIVA ANALISTA DO MP BELO HORIZONTE - COMARCA; DIR CRIACAO E MIDIAS 13.011,52 2.602,30 0,00 0,00 0,00 0,00 0,00 1.717,00 17.330,82 2.310,49 2.789,06 0,00 0,00 5.099,55 12.231,27 30/11/2021
73 623400 ALESSANDRO DE OLIVEIRA REZENDE ANALISTA DO MP BELO HORIZONTE - COMARCA; DIRET DE INFORMACAO E CONHECIMENTO-DINC/CEAF 9.146,93 914,69 0,00 0,00 0,00 0,00 0,00 11.778,62 21.840,24 1.422,14 1.506,50 0,00 0,00 2.928,64 18.911,60 30/11/2021
74 420600 ALESSANDRO SILVA OFICIAL DO MP VISCONDE DO RIO BRANCO - COMARCA; VISCONDE DO RIO BRANCO-PJ-02PJ 8.579,10 2.573,73 0,00 0,00 0,00 0,00 16,99 12.869,83 24.039,65 1.596,73 1.468,56 0,00 0,00 3.065,29 20.974,36 30/11/2021
75 375301 ALETHEIA PATRICIA ASSIS MORAIS MOREIRA ANALISTA DO MP ITABIRA - COMARCA; ITABIRA-PJ-02PJ 10.069,62 1.006,96 0,00 0,00 0,00 0,00 0,00 6.178,58 17.255,16 1.584,53 1.688,82 0,00 0,00 3.273,35 13.981,81 30/11/2021
76 382300 ALEX CARVALHO LIMA ANALISTA DO MP UBERLÂNDIA - COMARCA; UBERLANDIA-PJ-14PJ 14.324,23 2.864,85 0,00 0,00 0,00 0,00 0,00 1.717,00 18.906,08 2.562,53 3.152,94 0,00 0,00 5.715,47 13.190,61 30/11/2021
77 195201 ALEX DE CASTRO PEREIRA ANALISTA DO MP UBERABA - COMARCA; UBERABA-PJ-09PJ 18.103,37 7.241,35 0,00 0,00 0,00 0,00 0,00 27.061,72 52.406,44 3.867,43 5.036,89 0,00 0,00 8.904,32 43.502,12 30/11/2021
78 358900 ALEX DE PAULA LANZA ASSESSOR BELO HORIZONTE - COMARCA; DIR CONTEUDO JORNALISTICO 0,00 0,00 10.397,52 0,00 0,00 0,00 0,00 2.486,39 12.883,91 751,97 2.112,62 0,00 0,00 2.864,59 10.019,32 30/11/2021
79 178400 ALEX RODRIGO SALDANHA GUIMARAES OFICIAL DO MP BELO HORIZONTE - COMARCA; DIRETORIA DE SISTEMAS DE INFORMACAO 6.123,79 2.449,52 0,00 0,00 0,00 0,00 0,00 1.717,00 10.290,31 1.184,01 1.162,70 0,00 0,00 2.346,71 7.943,60 30/11/2021
80 413500 ALEX VILELA OLIVEIRA ANALISTA DO MP GOVERNADOR VALADARES - COMARCA; COORD REG PJ DEF EDU DIR CRIANCA ADOL RIODOCE 14.324,23 2.864,85 0,00 0,00 0,00 0,00 144,40 8.592,63 25.926,11 2.562,53 6.808,23 0,00 0,00 9.370,76 16.555,35 30/11/2021
81 264300 ALEXANDRA FATIMA SARAIVA SOARES ANALISTA DO MP BELO HORIZONTE - COMARCA; CENTRAL DE APOIO TECN-SETOR DE MEIO AMBIENTE 18.820,14 5.646,04 0,00 0,00 0,00 0,00 0,00 1.717,00 26.183,18 3.726,87 4.833,95 0,00 0,00 8.560,82 17.622,36 30/11/2021
82 488000 ALEXANDRA LARA PAIS DE CARVALHO ANALISTA DO MP SERRO - COMARCA; SERRO-PJ-UNPJ 10.069,62 2.013,92 0,00 0,00 0,00 0,00 0,00 1.717,00 13.800,54 1.745,64 1.817,15 0,00 0,00 3.562,79 10.237,75 30/11/2021
83 256300 ALEXANDRA SANTOS GOMES OFICIAL DO MP BELO HORIZONTE - COMARCA; DIRETORIA GESTAO COMPRAS LICITACOES 10.069,62 3.020,89 0,00 0,00 0,00 0,00 0,00 1.717,00 14.807,51 1.906,76 2.206,17 0,00 0,00 4.112,93 10.694,58 30/11/2021
84 403300 ALEXANDRE AUGUSTO RODRIGUES ANALISTA DO MP ÁGUAS FORMOSAS - COMARCA; AGUAS FORMOSAS-PJ-UNPJ 10.069,62 2.013,92 0,00 0,00 0,00 0,00 0,00 3.255,78 15.339,32 1.745,64 1.973,56 0,00 0,00 3.719,20 11.620,12 30/11/2021
85 640900 ALEXANDRE BARBOSA MASCARENHAS ANALISTA DO MP BETIM - COMARCA; BETIM-PJ-02PJ 6.961,05 696,11 0,00 0,00 0,00 0,00 0,00 1.717,00 9.374,16 841,65 602,35 0,00 0,00 1.444,00 7.930,16 30/11/2021
86 311700 ALEXANDRE BARCELOS RESENDE OFICIAL DO MP BELO HORIZONTE - COMARCA; BH-19PJ SAUDE-SECRETARIA 047PJ 7.912,85 1.582,57 0,00 0,00 0,00 0,00 0,00 12.781,31 22.276,73 1.331,54 1.375,71 0,00 0,00 2.707,25 19.569,48 30/11/2021
87 285600 ALEXANDRE CAMPOS DE OLIVEIRA OFICIAL DO MP UBERABA - COMARCA; COORD REG BACIAS PARANAIBA BAIXO RIO GRANDE 10.069,62 3.020,89 0,00 0,00 0,00 0,00 0,00 14.807,51 27.898,02 1.906,76 2.049,76 0,00 0,00 3.956,52 23.941,50 30/11/2021
88 509200 ALEXANDRE CAPUANO DE REZENDE ANALISTA DO MP BELO HORIZONTE - COMARCA; BH-07PJ 02 TRIBUNAL DO JURI-GAB 109PJ 10.069,62 2.013,92 0,00 0,00 0,00 0,00 1.006,96 1.717,00 14.807,50 1.906,76 2.154,03 0,00 0,00 4.060,79 10.746,71 30/11/2021
89 229400 ALEXANDRE CARLOS BOTREL DIRETOR/OFICIAL BELO HORIZONTE - COMARCA; SUPERINTENDENCIA DOS ORGAOS COLEGIADOS 0,00 5.224,18 17.413,92 -187,72 0,00 0,00 0,00 24.355,10 46.805,48 2.791,72 3.442,26 0,00 4.167,75 10.401,73 36.403,75 30/11/2021
90 411900 ALEXANDRE CARVALHO SANTOS RIBEIRO ANALISTA DO MP OLIVEIRA - COMARCA; OLIVEIRA-PJ-02PJ 13.011,52 2.602,30 0,00 0,00 0,00 0,00 0,00 2.486,39 18.100,21 2.310,49 2.789,06 0,00 0,00 5.099,55 13.000,66 30/11/2021
91 641600 ALEXANDRE DA SILVA ASSUNCAO OFICIAL DO MP BELO HORIZONTE - COMARCA; SERVICO MEDICO-DEPTO PERIC MEDICA SAUDE OCUP 4.974,42 497,44 0,00 0,00 1.823,95 0,00 0,00 1.717,00 9.012,81 694,23 946,07 0,00 0,00 1.640,30 7.372,51 30/11/2021
92 201200 ALEXANDRE DE ALENCAR CORDEIRO OFICIAL DO MP ÁGUAS FORMOSAS - COMARCA; AGUAS FORMOSAS-PJ-UNPJ 6.123,79 3.061,90 0,00 0,00 0,00 0,00 0,00 10.902,69 20.088,38 1.281,99 1.304,16 0,00 0,00 2.586,15 17.502,23 30/11/2021
93 288200 ALEXANDRE DE VASCONCELOS COSTA KER ANALISTA DO MP BELO HORIZONTE - COMARCA; BH-03PJ EMPRESARIAL-SECRETARIA 17.413,92 5.224,18 0,00 0,00 0,00 0,00 79,02 24.355,10 47.072,22 3.434,37 6.438,15 0,00 0,00 9.872,52 37.199,70 30/11/2021
94 445000 ALEXANDRE DIOGENES OLIVEIRA ANALISTA DO MP SALINAS - COMARCA; SALINAS-PJ-02PJ 10.069,62 2.013,92 0,00 0,00 0,00 0,00 0,00 15.369,69 27.453,23 1.745,64 1.973,56 0,00 0,00 3.719,20 23.734,03 30/11/2021
95 463400 ALEXANDRE LEAL WINKELSTROTER ANALISTA DO MP TEÓFILO OTONI - COMARCA; TEOFILO OTONI-PJ-04PJ 10.069,62 2.013,92 0,00 0,00 0,00 0,00 0,00 13.800,54 25.884,08 1.745,64 1.973,56 0,00 0,00 3.719,20 22.164,88 30/11/2021
96 615700 ALEXANDRE LUIZ DE CASTRO MACIEL ANALISTA DO MP CONTAGEM - COMARCA; CONTAGEM-PJ-01PJ 9.146,93 914,69 0,00 0,00 0,00 0,00 0,00 11.778,62 21.840,24 1.422,14 3.321,08 0,00 0,00 4.743,22 17.097,02 30/11/2021
97 356900 ALEXANDRE MOISES MENDONCA E ARAUJO OFICIAL DO MP UBERABA - COMARCA; UBERABA-PJ-13PJ 7.421,79 2.226,54 0,00 0,00 0,00 0,00 0,00 1.717,00 11.365,33 1.356,01 1.411,03 0,00 0,00 2.767,04 8.598,29 30/11/2021
98 633300 ALEXANDRE NONATO MARTINS OFICIAL DO MP IGARAPÉ - COMARCA; IGARAPE-PJ-02PJ 4.974,42 497,44 0,00 0,00 0,00 0,00 0,00 7.188,86 12.660,72 694,23 396,18 0,00 0,00 1.090,41 11.570,31 30/11/2021
99 469900 ALEXANDRE PEREIRA GUEDES ANALISTA DO MP CATAGUASES - COMARCA; CATAGUASES-PJ-03PJ 10.069,62 2.013,92 0,00 0,00 0,00 0,00 0,00 13.800,54 25.884,08 1.745,64 1.973,56 0,00 0,00 3.719,20 22.164,88 30/11/2021
100 208700 ALEXANDRE RESENDE FRAGA ANALISTA DO MP BELO HORIZONTE - COMARCA; BH-19PJ SAUDE-SECRETARIA 130PJ 18.820,14 7.528,06 0,00 0,00 0,00 0,00 0,00 28.065,20 54.413,40 4.027,99 5.112,29 0,00 0,00 9.140,28 45.273,12 30/11/2021
101 216401 ALEXANDRE RIBEIRO DE LIMA MAIORINO ANALISTA DO MP UBERABA - COMARCA; UBERABA-PJ-03PJ 17.413,92 6.965,57 0,00 0,00 0,00 0,00 85,10 26.096,49 50.561,08 3.713,00 7.000,30 0,00 0,00 10.713,30 39.847,78 30/11/2021
102 475100 ALEXANDRE TEOTONIO COSTA ANALISTA DO MP ARAGUARI - COMARCA; ARAGUARI-PJ-01PJ 10.069,62 2.013,92 0,00 0,00 0,00 0,00 487,37 7.033,76 19.604,67 1.745,64 1.869,29 0,00 0,00 3.614,93 15.989,74 30/11/2021
103 339000 ALEXANDRE VITOR CARDOSO OFICIAL DO MP BELO HORIZONTE - COMARCA; BH-12PJ JUIZO CRIMINAL-SECRETARIA 6.123,79 1.837,14 0,00 0,00 0,00 0,00 0,00 9.677,93 17.638,86 1.086,03 864,83 0,00 0,00 1.950,86 15.688,00 30/11/2021
104 678900 ALEXIA DUARTE TORRES ASSESSOR PROCURADOR JUSTICA BELO HORIZONTE - COMARCA; GABINETE DE PROCURADOR DE JUSTIÇA - SALA 502 0,00 0,00 7.187,72 0,00 0,00 0,00 0,00 1.717,00 8.904,72 751,97 1.229,92 0,00 0,00 1.981,89 6.922,83 30/11/2021
105 623100 ALEXSANDER BATISTA AGUIAR COORDENADOR/ANALISTA BELO HORIZONTE - COMARCA; DIRETORIA DE SUPORTE E MANUTENCAO 0,00 1.343,52 13.435,16 0,00 0,00 0,00 0,00 17.265,07 32.043,75 1.422,14 2.647,28 0,00 0,00 4.069,42 27.974,33 30/11/2021
106 513300 ALFSON MIRANDA BRAGA ANALISTA DO MP BELO HORIZONTE - COMARCA; BH-12PJ JUIZO CRIMINAL-GAB 092PJ 10.069,62 2.013,92 0,00 0,00 0,00 0,00 1.006,96 13.800,54 26.891,04 1.906,76 2.206,17 0,00 0,00 4.112,93 22.778,11 30/11/2021
107 618400 ALICE MAGALHAES MACEDO DE CARVALHO ANALISTA DO MP IPATINGA - COMARCA; IPATINGA-PJ-10PJ 9.146,93 914,69 0,00 0,00 0,00 0,00 71,63 12.548,01 22.681,26 1.422,14 3.392,71 0,00 0,00 4.814,85 17.866,41 30/11/2021
108 707000 ALICE MARIA RIBEIRO DINIZ ASSESSOR PROMOTOR JUSTICA BELO HORIZONTE - COMARCA; PROC JUST ATUACAO TRIBUNAIS SUPERIORES-GAB004 0,00 0,00 7.187,72 0,00 0,00 0,00 0,00 1.717,00 8.904,72 751,97 1.229,92 0,00 0,00 1.981,89 6.922,83 30/11/2021
109 471000 ALICE TITONELI MOREIRA ANALISTA DO MP MIRADOURO - COMARCA; MIRADOURO-PJ-UNPJ 10.069,62 2.013,92 0,00 0,00 0,00 0,00 0,00 14.814,43 26.897,97 1.745,64 1.921,43 0,00 0,00 3.667,07 23.230,90 30/11/2021
110 622400 ALINE BALBINO PORTUGAL LOPES ANALISTA DO MP TRÊS PONTAS - COMARCA; TRES PONTAS-PJ-03PJ 9.146,93 914,69 0,00 0,00 0,00 0,00 0,00 2.486,39 12.548,01 1.422,14 1.506,50 0,00 0,00 2.928,64 9.619,37 30/11/2021
111 373000 ALINE BOTELHO RESENDE OFICIAL DO MP JUIZ DE FORA - COMARCA; JUIZ DE FORA-PJ-22PJ 9.444,70 1.888,94 0,00 0,00 0,00 0,00 0,00 13.050,64 24.384,28 1.625,66 4.307,55 0,00 0,00 5.933,21 18.451,07 30/11/2021
112 699800 ALINE CRISTINA DE OLIVEIRA AMARAL BARBOSA ASSESSOR PROCURADOR JUSTICA BELO HORIZONTE - COMARCA; GABINETE DE PROCURADOR DE JUSTIÇA - SALA 904 0,00 0,00 7.187,72 0,00 0,00 0,00 0,00 1.717,00 8.904,72 751,97 1.125,65 0,00 0,00 1.877,62 7.027,10 30/11/2021
113 407700 ALINE CRISTINA RODRIGUES PEREIRA COORDENADOR/ANALISTA BELO HORIZONTE - COMARCA; DIRETORIA DE PROJETOS DE EDIFICACOES 0,00 2.687,03 13.435,16 0,00 0,00 0,00 0,00 17.839,19 33.961,38 1.745,64 3.084,19 0,00 0,00 4.829,83 29.131,55 30/11/2021
114 193100 ALINE CRISTINA SENA OLIVEIRA OFICIAL DO MP UBERLÂNDIA - COMARCA; UBERLANDIA-PJ-03PJ 14.790,66 5.916,26 0,00 0,00 0,00 0,00 0,00 23.867,22 44.574,14 3.125,38 3.913,43 0,00 0,00 7.038,81 37.535,33 30/11/2021
115 554200 ALINE CRISTINA SILVA SOUZA OFICIAL DO MP TIROS - COMARCA; TIROS-PJ-UNPJ 6.123,79 612,38 0,00 0,00 0,00 0,00 370,49 5.758,70 12.865,36 890,06 1.251,02 0,00 0,00 2.141,08 10.724,28 30/11/2021
116 505500 ALINE DA CUNHA MARREIROS OLIVEIRA ANALISTA DO MP EUGENÓPOLIS - COMARCA; EUGENOPOLIS-PJ-UNPJ 10.069,62 2.013,92 0,00 0,00 0,00 0,00 0,00 3.255,78 15.339,32 1.745,64 1.921,43 0,00 0,00 3.667,07 11.672,25 30/11/2021
117 433500 ALINE DE MELO QUEIROZ ASSESSOR/OFICIAL BELO HORIZONTE - COMARCA; ASSESSORIA TECNICA DO PROCON-MG 0,00 2.079,50 10.397,52 0,00 0,00 0,00 0,00 2.486,39 14.963,41 1.459,46 2.160,47 0,00 0,00 3.619,93 11.343,48 30/11/2021
118 691100 ALINE DE MELO SOUZA ASSESSOR PROCURADOR JUSTICA BELO HORIZONTE - COMARCA; GABINETE DE PROCURADOR DE JUSTIÇA - SALA 401 0,00 0,00 7.187,72 0,00 0,00 0,00 0,00 1.717,00 8.904,72 751,97 1.229,92 0,00 0,00 1.981,89 6.922,83 30/11/2021
119 542700 ALINE DE SOUSA ALBINO ANALISTA DO MP CONTAGEM - COMARCA; CONTAGEM-PJ-09PJ 9.444,70 944,47 0,00 0,00 0,00 0,00 0,00 12.106,17 22.495,34 1.474,54 1.582,16 0,00 0,00 3.056,70 19.438,64 30/11/2021
120 330000 ALINE DIORIO MAYRINK OFICIAL DO MP BELO HORIZONTE - COMARCA; BH-15PJ M AMB PAT HIST CULT-GAB 115PJ 7.187,72 1.437,54 0,00 0,00 0,00 0,00 0,00 11.212,42 19.837,68 1.192,32 1.174,70 0,00 0,00 2.367,02 17.470,66 30/11/2021
121 499000 ALINE FERREIRA LOPES ANALISTA DO MP TEÓFILO OTONI - COMARCA; TEOFILO OTONI-PJ-09PJ 10.069,62 2.013,92 0,00 0,00 0,00 0,00 0,00 13.800,54 25.884,08 1.745,64 1.973,56 0,00 0,00 3.719,20 22.164,88 30/11/2021
122 405300 ALINE LAIA CARDOZO DIRETOR/ANALISTA BELO HORIZONTE - COMARCA; SUPERINTENDENCIA LOGISTICA SERVICOS 0,00 3.482,78 17.413,92 0,00 0,00 0,00 0,00 22.613,70 43.510,40 2.562,53 4.172,54 0,00 0,00 6.735,07 36.775,33 30/11/2021
123 278200 ALINE MARCIA FARIA BARBOSA FERNANDES OFICIAL DO MP BARBACENA - COMARCA; BARBACENA-PJ-SECRETARIA 7.421,79 2.226,54 0,00 0,00 0,00 0,00 0,00 11.679,38 21.327,71 1.356,01 1.254,62 0,00 0,00 2.610,63 18.717,08 30/11/2021
124 389000 ALINE NERI NOBRE ANALISTA DO MP MONTES CLAROS - COMARCA; COORD REG PJ DEF EDUC DIR CRIANCA ADOL NORTE 14.790,66 4.437,20 0,00 0,00 0,00 0,00 55,58 20.944,86 40.228,30 2.888,73 5.086,25 0,00 0,00 7.974,98 32.253,32 30/11/2021
125 294600 ALINE PATRICIA SILVA VIEIRA OFICIAL DO MP UBERLÂNDIA - COMARCA; UBERLANDIA-PJ-03PJ 10.736,08 3.220,82 0,00 0,00 0,00 0,00 1.445,27 17.573,50 32.975,67 2.045,38 2.699,48 0,00 0,00 4.744,86 28.230,81 30/11/2021
126 420000 ALINE RODRIGUES CAMOROPIN ANALISTA DO MP SABARÁ - COMARCA; SABARA-PJ-02PJ 13.011,52 2.602,30 0,00 0,00 0,00 0,00 0,00 18.906,08 34.519,90 2.310,49 2.789,06 0,00 0,00 5.099,55 29.420,35 30/11/2021
127 699600 ALINE SEPULVEDA ROSA PIRES ASSESSOR PROCURADOR JUSTICA BELO HORIZONTE - COMARCA; GABINETE DE PROCURADOR DE JUSTIÇA - SALA 905 0,00 0,00 7.187,72 0,00 0,00 0,00 0,00 1.717,00 8.904,72 751,97 1.229,92 0,00 0,00 1.981,89 6.922,83 30/11/2021
128 408300 ALINE SILVA ARAUJO DE PAULA ANALISTA DO MP SÃO SEBASTIÃO DO PARAÍSO - COMARCA; SAO SEBASTIAO DO PARAISO-PJ-02PJ 14.324,23 2.864,85 0,00 0,00 0,00 0,00 144,40 19.675,47 37.008,95 1.014,93 7.177,95 0,00 0,00 8.192,88 28.816,07 30/11/2021
129 425400 ALINE TRINDADE DE FREITAS CAMPOS OFICIAL DO MP BELO HORIZONTE - COMARCA; BH-14PJ DEFESA CONSUMIDOR-SECRETARIA 8.858,43 1.771,69 0,00 0,00 0,00 0,00 30,73 1.717,00 12.377,85 1.513,10 2.400,83 0,00 0,00 3.913,93 8.463,92 30/11/2021
130 517200 ALISSOM PEREIRA DA SILVA ANALISTA DO MP BORDA DA MATA - COMARCA; BORDA DA MATA-PJ-UNPJ 10.069,62 1.006,96 0,00 0,00 0,00 0,00 0,00 13.562,97 24.639,55 1.584,53 1.740,95 0,00 0,00 3.325,48 21.314,07 30/11/2021
131 442400 ALISSON LABRE ANALISTA DO MP VARGINHA - COMARCA; VARGINHA-PJ-03PJ 10.069,62 2.013,92 0,00 0,00 0,00 0,00 0,00 1.717,00 13.800,54 -307,44 2.538,16 0,00 0,00 2.230,72 11.569,82 30/11/2021
132 643800 ALLAN PAUL FONSECA DE CASTRO OFICIAL DO MP CONTAGEM - COMARCA; CONTAGEM-PJ-SECRETARIA 5.217,34 521,73 0,00 0,00 0,00 0,00 0,00 2.486,39 8.225,46 734,31 506,95 0,00 0,00 1.241,26 6.984,20 30/11/2021
133 612900 ALLAN VINICIUS VIEIRA ARAUJO COORDENADOR/OFICIAL BELO HORIZONTE - COMARCA; DIRETORIA DE GESTAO DOCUMENTAL 0,00 1.343,52 13.435,16 0,00 0,00 0,00 0,00 16.495,68 31.274,36 856,09 2.959,35 0,00 0,00 3.815,44 27.458,92 30/11/2021
134 349000 ALLEC RODRIGUES VIEIRA OFICIAL DO MP BELO HORIZONTE - COMARCA; EXTINTA-COORD EST DEF DIR FAM PES DEFIC IDOSO 10.069,62 3.020,89 0,00 0,00 0,00 0,00 0,00 14.807,51 27.898,02 1.906,76 2.206,17 0,00 0,00 4.112,93 23.785,09 30/11/2021
135 297300 ALLYSON SALIBA MONTEIRO LAIZO ANALISTA DO MP CONSELHEIRO LAFAIETE - COMARCA; CONSELHEIRO LAFAIETE-PJ-03PJ 18.820,14 5.646,04 0,00 0,00 0,00 0,00 0,00 3.255,78 27.721,96 3.726,87 4.833,95 0,00 0,00 8.560,82 19.161,14 30/11/2021
136 303700 ALMIR LOPES LOURES ANALISTA DO MP BELO HORIZONTE - COMARCA; CENTRAL DE APOIO TECN-SETOR DE MEIO AMBIENTE 18.820,14 5.646,04 0,00 0,00 0,00 0,00 0,00 26.183,18 50.649,36 3.726,87 4.833,95 0,00 0,00 8.560,82 42.088,54 30/11/2021
137 696600 ALOIZIO MARTINS JALES JUNIOR ASSESSOR PROMOTOR JUSTICA CAMPESTRE - COMARCA; CAMPESTRE-PJ-SECRETARIA 0,00 0,00 7.187,72 0,00 0,00 0,00 0,00 1.717,00 8.904,72 751,97 1.229,92 0,00 0,00 1.981,89 6.922,83 30/11/2021
138 515900 ALTAIR NEVES JUNIOR OFICIAL DO MP BELO HORIZONTE - COMARCA; BH-01PJ FAZENDA PUBLICA-SECRETARIA 7.421,79 742,18 0,00 0,00 0,00 0,00 0,00 1.717,00 9.880,97 1.118,51 1.068,14 0,00 0,00 2.186,65 7.694,32 30/11/2021
139 233300 ALVARINDO BATISTA ANALISTA DO MP BELO HORIZONTE - COMARCA; NUCLEO APOIO TECNICO ESP COMUNICACAO 18.820,14 5.646,04 0,00 0,00 0,00 0,00 0,00 26.952,57 51.418,75 3.726,87 4.781,81 0,00 0,00 8.508,68 42.910,07 30/11/2021
140 274100 ALYSSON CARVALHO VIDAL DE LACERDA OFICIAL DO MP MANHUAÇU - COMARCA; MANHUACU-PJ-01PJ 10.069,62 3.020,89 0,00 0,00 4.363,50 0,00 0,00 1.717,00 19.171,01 1.906,76 3.406,13 0,00 0,00 5.312,89 13.858,12 30/11/2021
141 621000 AMANDA BASTOS ALVES ANALISTA DO MP BELO HORIZONTE - COMARCA; BH-07PJ 02 TRIBUNAL DO JURI-GAB 066PJ 9.146,93 914,69 0,00 0,00 0,00 0,00 0,00 1.717,00 11.778,62 1.422,14 1.506,50 0,00 0,00 2.928,64 8.849,98 30/11/2021
142 521700 AMANDA CRISTINA AGUIAR MACHADO OFICIAL DO MP CONGONHAS - COMARCA; CONGONHAS-PJ-01PJ 6.123,79 612,38 0,00 0,00 0,00 0,00 0,00 1.717,00 8.453,17 890,06 686,18 0,00 0,00 1.576,24 6.876,93 30/11/2021
143 613400 AMANDA DE ASSIS IUNES SANTOS ANALISTA DO MP CONGONHAS - COMARCA; CONGONHAS-PJ-01PJ 9.146,93 914,69 0,00 0,00 0,00 0,00 0,00 1.717,00 11.778,62 1.422,14 1.506,50 0,00 0,00 2.928,64 8.849,98 30/11/2021
144 695900 AMANDA DE OLIVEIRA ASSESSOR PROCURADOR JUSTICA BELO HORIZONTE - COMARCA; PROC JUST ATUACAO TRIBUNAIS SUPERIORES-GAB004 0,00 0,00 7.187,72 0,00 0,00 0,00 0,00 1.717,00 8.904,72 751,97 1.229,92 0,00 0,00 1.981,89 6.922,83 30/11/2021
145 520800 AMANDA DE SOUZA MACHADO ANALISTA DO MP BAEPENDI - COMARCA; BAEPENDI-PJ-UNPJ 10.069,62 1.006,96 0,00 0,00 0,00 0,00 0,00 12.793,58 23.870,16 1.584,53 1.636,68 0,00 0,00 3.221,21 20.648,95 30/11/2021
146 663900 AMANDA DENISE GONCALVES DA SILVA ASSESSOR BELO HORIZONTE - COMARCA; DIRET DE FORMACAO, APERFEIC. E POS-GRADUACAO 0,00 0,00 3.076,28 0,00 0,00 0,00 0,00 1.717,00 4.793,28 449,69 224,40 0,00 0,00 674,09 4.119,19 30/11/2021
147 677000 AMANDA LETICIA MESSIAS PEGO ASSESSOR PROMOTOR JUSTICA CORAÇÃO DE JESUS - COMARCA; CORACAO DE JESUS-PJ-UNPJ 0,00 0,00 7.187,72 0,00 2.395,91 0,00 0,00 1.717,00 11.300,63 751,97 1.888,80 0,00 0,00 2.640,77 8.659,86 30/11/2021
148 543100 AMANDA VIEIRA FREITAS BRESSANE ANALISTA DO MP VARGINHA - COMARCA; COORD REG DEF ORDEM ECON TRIB VARGINHA 9.444,70 944,47 0,00 0,00 0,00 0,00 0,00 1.717,00 12.106,17 1.474,54 1.582,16 0,00 0,00 3.056,70 9.049,47 30/11/2021
149 434400 AMARILIS ASSIS SIMAO CURCIO ANALISTA DO MP BELO HORIZONTE - COMARCA; NUCLEO DE ACORDOS DE NAO PERSECUCAO PENAL BH 10.069,62 2.013,92 0,00 0,00 0,00 0,00 0,00 1.717,00 13.800,54 1.745,64 1.973,56 0,00 0,00 3.719,20 10.081,34 30/11/2021
150 652000 AMAURI SILVA ALVES ASSESSOR/OFICIAL BELO HORIZONTE - COMARCA; BH-23PJ INFRACIONAL-SEC EXP 0,00 490,23 8.170,49 0,00 0,00 0,00 0,00 1.717,00 10.377,72 570,31 1.355,50 0,00 0,00 1.925,81 8.451,91 30/11/2021
151 58000 AMELIA GUARIZE DE CASTRO OFICIAL DO MP JUIZ DE FORA - COMARCA; JUIZ DE FORA-PJ-SECRETARIA 6.741,63 6.741,63 0,00 0,00 0,00 1.969,60 0,00 15.200,26 30.653,12 1.969,60 2.838,54 0,00 0,00 4.808,14 25.844,98 30/11/2021
152 324301 AMERICA SUELI FERREIRA DA SILVA ANALISTA DO MP MONTE CARMELO - COMARCA; MONTE CARMELO-PJ-02PJ 10.069,62 2.013,92 0,00 0,00 0,00 0,00 0,00 13.800,54 25.884,08 1.745,64 1.921,43 0,00 0,00 3.667,07 22.217,01 30/11/2021
153 273300 AMUJACY DE BRITO ASSIZ OFICIAL DO MP BELO HORIZONTE - COMARCA; BH-12PJ JUIZO CRIMINAL-SECRETARIA 10.069,62 3.020,89 0,00 0,00 0,00 0,00 0,00 14.807,51 27.898,02 1.906,76 1.997,62 0,00 0,00 3.904,38 23.993,64 30/11/2021
154 482200 ANA ALICE LOPES ACHTSCHIN ANALISTA DO MP BELO HORIZONTE - COMARCA; PROC JUST ATUACAO TRIBUNAIS SUPERIORES-GAB002 11.085,56 2.217,11 0,00 0,00 0,00 0,00 38,44 1.717,00 15.058,11 1.940,70 3.228,68 0,00 0,00 5.169,38 9.888,73 30/11/2021
155 490400 ANA AMELIA PAULINO GARCIA OFICIAL DO MP CONTAGEM - COMARCA; CONTAGEM-PJ-SECRETARIA 7.663,37 1.532,67 0,00 0,00 0,00 0,00 0,00 2.948,02 12.144,06 1.283,64 1.254,41 0,00 0,00 2.538,05 9.606,01 30/11/2021
156 690400 ANA ANGELICA MOREIRA DA CUNHA ASSESSOR PROMOTOR JUSTICA TIMÓTEO - COMARCA; TIMOTEO-PJ-02PJ 0,00 0,00 7.187,72 0,00 0,00 0,00 0,00 1.717,00 8.904,72 751,97 1.229,92 0,00 0,00 1.981,89 6.922,83 30/11/2021
157 279100 ANA CAROLINA ARAUJO PEREIRA ANALISTA DO MP BELO HORIZONTE - COMARCA; DIRETORIA DE PROJETOS DE EDIFICACOES 18.820,14 5.646,04 0,00 0,00 0,00 0,00 0,00 26.183,18 50.649,36 3.726,87 4.781,81 0,00 0,00 8.508,68 42.140,68 30/11/2021
158 653300 ANA CAROLINA CYRNE DINIZ ASSESSOR BELO HORIZONTE - COMARCA; CENTRAL DE APOIO TECNICO-SETOR CONTABIL 0,00 0,00 8.170,49 0,00 0,00 0,00 0,00 1.717,00 9.887,49 751,97 1.500,18 0,00 0,00 2.252,15 7.635,34 30/11/2021
159 359400 ANA CAROLINA DE ABREU FARIA ASSESSOR BELO HORIZONTE - COMARCA; SUPERINTENDÊNCIA DE ENGENHARIA E ARQUITETURA 0,00 0,00 10.397,52 0,00 0,00 0,00 0,00 2.486,39 12.883,91 751,97 2.060,48 0,00 0,00 2.812,45 10.071,46 30/11/2021
160 408500 ANA CAROLINA DE CASTRO CARVALHO ANALISTA DO MP BARBACENA - COMARCA; BARBACENA - SECRETARIA DAS PJS CRIMINAIS 14.324,23 2.864,85 0,00 0,00 0,00 0,00 144,40 1.717,00 19.050,48 2.562,53 6.808,23 0,00 0,00 9.370,76 9.679,72 30/11/2021
161 688000 ANA CAROLINA DE OLIVEIRA PINTO ASSESSOR PROCURADOR JUSTICA BELO HORIZONTE - COMARCA; GABINETE DE PROCURADOR DE JUSTIÇA - SALA 1014 0,00 0,00 7.187,72 0,00 0,00 0,00 0,00 1.717,00 8.904,72 751,97 1.229,92 0,00 0,00 1.981,89 6.922,83 30/11/2021
162 420200 ANA CAROLINA FERNANDES SILVA ANALISTA DO MP BELO HORIZONTE - COMARCA; GABINETE DE PROCURADOR DE JUSTIÇA - SALA 704 12.601,30 2.520,26 0,00 0,00 5.040,52 0,00 0,00 1.717,00 21.879,08 2.231,73 4.061,49 0,00 0,00 6.293,22 15.585,86 30/11/2021
163 522100 ANA CAROLINA FERNANDINO VIDAL PEREIRA SANTOS OFICIAL DO MP BELO HORIZONTE - COMARCA; SECRETARIA DO PROCON-MG 7.421,79 742,18 0,00 0,00 0,00 0,00 0,00 10.146,71 18.310,68 1.118,51 1.068,14 0,00 0,00 2.186,65 16.124,03 30/11/2021
164 502400 ANA CAROLINA GONCALVES FERNANDES ANALISTA DO MP IPATINGA - COMARCA; IPATINGA-PJ-01PJ 10.069,62 2.013,92 0,00 0,00 0,00 0,00 0,00 3.255,78 15.339,32 1.745,64 1.973,56 0,00 0,00 3.719,20 11.620,12 30/11/2021
165 529900 ANA CAROLINA GONCALVES PECANHA CHEQUER ANALISTA DO MP MANHUAÇU - COMARCA; MANHUACU-PJ-04PJ 9.444,70 944,47 0,00 0,00 0,00 0,00 0,00 13.644,95 24.034,12 1.474,54 1.582,16 0,00 0,00 3.056,70 20.977,42 30/11/2021
166 711300 ANA CAROLINA MOREIRA GOMES ASSESSOR PROMOTOR JUSTICA BELO HORIZONTE - COMARCA; COORD ESTADUAL DAS PJS DE HAB. E URBANISMO 0,00 0,00 7.187,72 0,00 0,00 0,00 0,00 1.717,00 8.904,72 751,97 1.229,92 0,00 0,00 1.981,89 6.922,83 30/11/2021
167 431900 ANA CAROLINA MOTTA GUATIMOSIM ANALISTA DO MP BELO HORIZONTE - COMARCA; ASSESSORIA JURIDICO-ADMINISTRATIVA 12.601,30 2.520,26 0,00 0,00 0,00 0,00 0,00 18.100,21 33.221,77 2.231,73 2.675,34 0,00 0,00 4.907,07 28.314,70 30/11/2021
168 490600 ANA CAROLINA XAVIER GODOY ANALISTA DO MP BELO HORIZONTE - COMARCA; BH-18PJ DIREITOS HUMANOS-SECRETARIA 10.069,62 2.013,92 0,00 0,00 0,00 0,00 0,00 15.339,32 27.422,86 1.745,64 1.869,29 0,00 0,00 3.614,93 23.807,93 30/11/2021
169 600300 ANA CAROLINE PEREIRA DINIZ ANALISTA DO MP BELO HORIZONTE - COMARCA; PROC JUST ESP ACOES COMP ORIG CRIMINAL-SEC 9.444,70 944,47 0,00 0,00 3.463,06 0,00 0,00 11.490,34 25.342,57 1.474,54 2.534,50 0,00 0,00 4.009,04 21.333,53 30/11/2021
170 615800 ANA CAROLINE PEREIRA OLIVEIRA OFICIAL DO MP ALFENAS - COMARCA; ALFENAS-PJ-06PJ 5.930,75 593,08 0,00 0,00 0,00 0,00 54,81 8.240,83 14.819,47 856,09 2.139,28 0,00 0,00 2.995,37 11.824,10 30/11/2021
171 324800 ANA CECILIA MENDES DA SILVA OFICIAL DO MP OURO FINO - COMARCA; OURO FINO-PJ-01PJ 10.069,62 3.020,89 0,00 0,00 0,00 0,00 0,00 1.717,00 14.807,51 1.906,76 2.154,03 0,00 0,00 4.060,79 10.746,72 30/11/2021
172 704100 ANA CLARA MARTINS ALBUQUERQUE ASSESSOR BELO HORIZONTE - COMARCA; CAO-CRIANCAS E ADOLESCENTES-ASS TECNICA 0,00 0,00 3.076,28 0,00 0,00 0,00 0,00 1.717,00 4.793,28 449,69 224,40 0,00 0,00 674,09 4.119,19 30/11/2021
173 698700 ANA CLARA SANTOS ALMEIDA ASSESSOR PROMOTOR JUSTICA SABINÓPOLIS - COMARCA; SABINOPOLIS-PJ-UNPJ 0,00 0,00 7.187,72 0,00 0,00 0,00 0,00 1.717,00 8.904,72 751,97 1.229,92 0,00 0,00 1.981,89 6.922,83 30/11/2021
174 441300 ANA CLAUDIA ALKIMIM MIRANDA BOMTEMPO ANALISTA DO MP MONTES CLAROS - COMARCA; MONTES CLAROS-PJ-11PJ 12.601,30 2.520,26 0,00 0,00 0,00 0,00 0,00 1.717,00 16.838,56 2.231,73 2.571,07 0,00 0,00 4.802,80 12.035,76 30/11/2021
175 642500 ANA CLAUDIA DA COSTA NAVES OFICIAL DO MP MONTE CARMELO - COMARCA; MONTE CARMELO-PJ-02PJ 4.817,57 481,76 0,00 0,00 0,00 0,00 0,00 2.486,39 7.785,72 668,35 405,84 0,00 0,00 1.074,19 6.711,53 30/11/2021
176 604900 ANA CLAUDIA OLIVEIRA DE MIRANDA OFICIAL DO MP PONTE NOVA - COMARCA; PONTE NOVA-PJ-04PJ 5.387,19 538,72 0,00 0,00 0,00 0,00 0,00 7.835,90 13.761,81 762,96 498,31 0,00 0,00 1.261,27 12.500,54 30/11/2021
177 379300 ANA CRISTINA ALVES FLAVIO ANALISTA DO MP SÃO GOTARDO - COMARCA; SAO GOTARDO-PJ-01PJ 14.324,23 2.864,85 0,00 0,00 0,00 0,00 0,00 20.235,18 37.424,26 2.562,53 3.100,80 0,00 0,00 5.663,33 31.760,93 30/11/2021
178 461200 ANA CRISTINA ALVES PASCHOAL ANALISTA DO MP BELO HORIZONTE - COMARCA; BH-07PJ 03 TRIBUNAL DO JURI-GAB 064PJ 10.069,62 2.013,92 0,00 0,00 4.027,85 0,00 0,00 13.800,54 29.911,93 1.745,64 3.029,08 0,00 0,00 4.774,72 25.137,21 30/11/2021
179 514100 ANA CRISTINA ARAUJO ASSUNCAO ANALISTA DO MP BELO HORIZONTE - COMARCA; ASSESS JUR DO CONS SUPERIOR DO MINISTERIO PUB 10.069,62 1.006,96 0,00 0,00 3.692,19 0,00 0,00 2.486,39 17.255,16 1.584,53 2.704,17 0,00 0,00 4.288,70 12.966,46 30/11/2021
180 113401 ANA CRISTINA BRAGA ALBUQUERQUE ASSESSOR BELO HORIZONTE - COMARCA; DIRETORIA-GERAL 0,00 0,00 17.413,92 0,00 0,00 0,00 0,00 1.198,00 18.611,92 751,97 4.042,13 0,00 0,00 4.794,10 13.817,82 30/11/2021
181 233800 ANA CRISTINA BRAGA SOARES OFICIAL DO MP CONTAGEM - COMARCA; CONTAGEM-PJ-SECRETARIA 11.819,15 3.545,75 0,00 0,00 0,00 0,00 0,00 1.717,00 17.081,90 2.270,66 5.895,31 0,00 0,00 8.165,97 8.915,93 30/11/2021
182 186400 ANA CRISTINA DE AZEVEDO LOPES OFICIAL DO MP UBÁ - COMARCA; UBA-PJ-01PJ 15.272,02 6.108,81 0,00 0,00 0,00 0,00 61,77 23.097,83 44.540,43 3.233,21 5.684,44 0,00 0,00 8.917,65 35.622,78 30/11/2021
183 693000 ANA CRISTINA DE MELO SILVEIRA ASSESSOR PROCURADOR JUSTICA BELO HORIZONTE - COMARCA; COORD DE CONTROLE CONSTITUCIONALIDADE 0,00 0,00 7.187,72 0,00 0,00 0,00 0,00 2.486,39 9.674,11 751,97 1.229,92 0,00 0,00 1.981,89 7.692,22 30/11/2021
184 465100 ANA CRISTINA DE OLIVEIRA GUIMARAES ANALISTA DO MP ITAJUBA - COMARCA; ITAJUBA-PJ-05PJ 10.069,62 2.013,92 0,00 0,00 0,00 0,00 0,00 4.500,31 16.583,85 1.745,64 1.869,29 0,00 0,00 3.614,93 12.968,92 30/11/2021
185 500600 ANA CRISTINA LATADO SUDARIO ANALISTA DO MP UBERLÂNDIA - COMARCA; UBERLANDIA-PJ-09PJ 10.069,62 2.013,92 0,00 0,00 0,00 0,00 0,00 1.717,00 13.800,54 1.745,64 1.973,56 0,00 0,00 3.719,20 10.081,34 30/11/2021
186 331400 ANA CRISTINA RIBEIRO ALVES OFICIAL DO MP BAMBUÍ - COMARCA; BAMBUI-PJ-UNPJ 10.069,62 3.020,89 0,00 0,00 0,00 0,00 109,95 1.717,00 14.917,46 1.906,76 4.938,40 0,00 0,00 6.845,16 8.072,30 30/11/2021
187 249300 ANA ELOINA MARTINS OFICIAL DO MP BETIM - COMARCA; BETIM-PJ-02PJ 12.601,30 5.040,52 0,00 0,00 0,00 0,00 0,00 19.933,13 37.574,95 2.634,97 3.257,52 0,00 0,00 5.892,49 31.682,46 30/11/2021
188 257400 ANA FLAVIA CAMBRAIA ANALISTA DO MP BELO HORIZONTE - COMARCA; BH-19PJ SAUDE-SECRETARIA 150PJ 18.820,14 5.646,04 0,00 0,00 0,00 0,00 0,00 21.289,94 45.756,12 3.726,87 4.781,81 0,00 0,00 8.508,68 37.247,44 30/11/2021
189 248201 ANA FLAVIA DE MORAIS SOUZA ANALISTA DO MP DIVINÓPOLIS - COMARCA; DIVINOPOLIS-PJ-01PJ 10.736,08 3.220,82 0,00 0,00 0,00 0,00 0,00 16.897,62 30.854,52 2.045,38 2.302,03 0,00 0,00 4.347,41 26.507,11 30/11/2021
190 621100 ANA FLAVIA DINIZ TEODORO OFICIAL DO MP SANTA LUZIA - COMARCA; SANTA LUZIA-PJ-06PJ 5.930,75 593,08 0,00 0,00 0,00 0,00 358,81 12.155,13 19.037,77 856,09 689,27 0,00 0,00 1.545,36 17.492,41 30/11/2021
191 238600 ANA FLAVIA FRANCO OFICIAL DO MP BELO HORIZONTE - COMARCA; DIRETORIA DE PESSOAL ADMINISTRATIVO - DPAD 13.011,52 3.903,46 0,00 0,00 0,00 0,00 0,00 19.097,07 36.012,05 2.518,67 3.089,63 0,00 0,00 5.608,30 30.403,75 30/11/2021
192 690000 ANA FLAVIA LURIAN DE PAIVA ASSESSOR PROCURADOR JUSTICA BELO HORIZONTE - COMARCA; GABINETE DE PROCURADOR DE JUSTIÇA - SALA 609 0,00 0,00 7.187,72 0,00 2.395,91 0,00 0,00 1.717,00 11.300,63 751,97 1.888,80 0,00 0,00 2.640,77 8.659,86 30/11/2021
193 402900 ANA FLAVIA PORTES DE CARVALHO ANALISTA DO MP BELO HORIZONTE - COMARCA; DIRET DE PLANOS PROJETOS E PROGRAMAS INST 14.324,23 2.864,85 0,00 0,00 0,00 0,00 0,00 19.465,79 36.654,87 2.562,53 3.100,80 0,00 0,00 5.663,33 30.991,54 30/11/2021
194 382700 ANA KARENINA SALDANHA GONTIJO ANALISTA DO MP BELO HORIZONTE - COMARCA; ASSESS TECNICO-JUR JUNTO AS PROC. DE JUST 13.872,60 2.774,52 0,00 0,00 0,00 0,00 0,00 2.486,39 19.133,51 2.475,82 3.027,75 0,00 0,00 5.503,57 13.629,94 30/11/2021
195 620500 ANA KARINE DE ANDRADE OLIVEIRA ANALISTA DO MP RIBEIRÃO DAS NEVES - COMARCA; RIBEIRAO NEVES-SEC PJ EXECUCAO PENAL 8.436,53 843,65 0,00 0,00 0,00 0,00 544,44 16.936,50 26.761,12 1.297,11 1.325,98 0,00 0,00 2.623,09 24.138,03 30/11/2021
196 462200 ANA LUCIA ANDRADE TOMICH OTTONI ANALISTA DO MP TEÓFILO OTONI - COMARCA; TEOFILO OTONI-PJ-07PJ 10.069,62 2.013,92 0,00 0,00 0,00 0,00 0,00 13.800,54 25.884,08 1.745,64 1.921,43 0,00 0,00 3.667,07 22.217,01 30/11/2021
197 504100 ANA LUCIA CATAO DE CARVALHO OFICIAL DO MP BELO HORIZONTE - COMARCA; DIR RELACOES INSTITUCIONAIS 7.663,37 1.532,67 0,00 0,00 0,00 0,00 0,00 1.717,00 10.913,04 1.283,64 1.254,41 0,00 0,00 2.538,05 8.374,99 30/11/2021
198 274700 ANA LUCIA DE ALENCAR BRAGATO OFICIAL DO MP UBERABA - COMARCA; UBERABA-PJ-07PJ 10.069,62 3.020,89 0,00 0,00 0,00 0,00 0,00 13.062,11 26.152,62 1.906,76 2.206,17 0,00 0,00 4.112,93 22.039,69 30/11/2021
199 509400 ANA LUCIA DORNELAS MALLOSTO ANALISTA DO MP JUIZ DE FORA - COMARCA; JUIZ DE FORA-PJ-25PJ 10.069,62 2.013,92 0,00 0,00 0,00 0,00 1.006,96 12.189,40 25.279,90 1.906,76 2.154,03 0,00 0,00 4.060,79 21.219,11 30/11/2021
200 302600 ANA LUCIA LOPES SANTOS OFICIAL DO MP BELO HORIZONTE - COMARCA; DIVISÃO DE FISCALIZAÇÃO DAS RELAÇÕES DE CONSU 10.069,62 3.020,89 0,00 0,00 0,00 0,00 1.711,76 19.159,94 33.962,21 1.906,76 2.551,48 0,00 0,00 4.458,24 29.503,97 30/11/2021
201 702000 ANA LUISA DE OLIVEIRA RIBEIRO ASSESSOR PROCURADOR JUSTICA BELO HORIZONTE - COMARCA; ASSESS TECNICO-JUR JUNTO AS PROC. DE JUST 0,00 0,00 7.187,72 0,00 0,00 0,00 0,00 1.717,00 8.904,72 751,97 1.229,92 0,00 0,00 1.981,89 6.922,83 30/11/2021
202 493400 ANA LUISA NOGUEIRA MOREIRA ANALISTA DO MP BELO HORIZONTE - COMARCA; BH-19PJ SAUDE-SECRETARIA 130PJ 10.069,62 2.013,92 0,00 0,00 0,00 0,00 0,00 13.800,54 25.884,08 1.745,64 1.973,56 0,00 0,00 3.719,20 22.164,88 30/11/2021
203 389300 ANA LUISA REUTER LIMA ASSESSOR/ANALISTA BELO HORIZONTE - COMARCA; DIRETORIA DE SISTEMAS DE INFORMACAO 11.819,15 2.363,83 2.687,03 0,00 0,00 0,00 0,00 1.717,00 18.587,01 2.081,55 3.197,47 0,00 0,00 5.279,02 13.307,99 30/11/2021
204 480600 ANA LUIZA FERNANDES FRAGA E GRECO COORDENADOR/OFICIAL BELO HORIZONTE - COMARCA; OUVIDORIA DO MPMG 0,00 2.363,83 11.819,15 0,00 0,00 0,00 260,02 18.736,58 33.179,58 1.237,26 2.690,71 0,00 0,00 3.927,97 29.251,61 30/11/2021
205 517800 ANA LUIZA MAGALHAES CIRINO PIOTO DE MELO OFICIAL DO MP BELO HORIZONTE - COMARCA; DIVISAO DE MANUTENCAO PREDIAL 5.387,19 538,72 0,00 0,00 0,00 0,00 0,00 3.255,78 9.181,69 762,96 550,45 0,00 0,00 1.313,41 7.868,28 30/11/2021
206 481400 ANA MARCIA CANDIDA FERREIRA OFICIAL DO MP BRUMADINHO - COMARCA; BRUMADINHO-PJ-02PJ 6.123,79 1.224,76 0,00 0,00 0,00 0,00 0,00 9.065,55 16.414,10 988,05 879,78 0,00 0,00 1.867,83 14.546,27 30/11/2021
207 643100 ANA MARIA LOPES MIRANDA ANALISTA DO MP BELO HORIZONTE - COMARCA; CAO-FUNDACOES 8.170,49 817,05 0,00 0,00 0,00 0,00 0,00 2.486,39 11.473,93 841,65 1.265,41 0,00 0,00 2.107,06 9.366,87 30/11/2021
208 556400 ANA MARIA OLIVEIRA SOUZA OFICIAL DO MP ITAPECERICA - COMARCA; ITAPECERICA-PJ-UNPJ 6.123,79 612,38 0,00 0,00 0,00 0,00 11,68 8.453,17 15.201,02 890,06 1.270,49 0,00 0,00 2.160,55 13.040,47 30/11/2021
209 409600 ANA OLIVIA FARIA ROSENBURG ANALISTA DO MP BELO HORIZONTE - COMARCA; DIRETORIA DO COLEGIO E DA CAMARA DE PJ 14.324,23 4.297,27 0,00 0,00 0,00 0,00 156,43 20.338,50 39.116,43 2.791,72 7.443,61 0,00 0,00 10.235,33 28.881,10 30/11/2021
210 461500 ANA PAULA ALVES CARVALHO ANALISTA DO MP UBERLÂNDIA - COMARCA; UBERLANDIA-PJ-25PJ 10.069,62 2.013,92 0,00 0,00 0,00 0,00 0,00 1.717,00 13.800,54 1.745,64 1.869,29 0,00 0,00 3.614,93 10.185,61 30/11/2021
211 523200 ANA PAULA ALVES DA SILVA OFICIAL DO MP GOVERNADOR VALADARES - COMARCA; GOVERNADOR VALADARES-PJ-10PJ 7.421,79 742,18 0,00 0,00 0,00 0,00 0,00 4.793,47 12.957,44 1.118,51 963,87 0,00 0,00 2.082,38 10.875,06 30/11/2021
212 381200 ANA PAULA BARROS PEREIRA RIGHI ANALISTA DO MP BELO HORIZONTE - COMARCA; PROC JUST ATUACAO TRIBUNAIS SUPERIORES-GAB003 14.324,23 2.864,85 0,00 0,00 0,00 0,00 0,00 2.486,39 19.675,47 2.562,53 3.100,80 0,00 0,00 5.663,33 14.012,14 30/11/2021
213 696400 ANA PAULA CARVALHO SILVA ASSESSOR PROMOTOR JUSTICA PERDÕES - COMARCA; PERDOES-PJ-UNPJ 0,00 0,00 7.187,72 0,00 0,00 0,00 0,00 1.717,00 8.904,72 751,97 1.177,78 0,00 0,00 1.929,75 6.974,97 30/11/2021
214 700900 ANA PAULA CRAVO SALOME ASSESSOR BELO HORIZONTE - COMARCA; PROCURADOR-GERAL DE JUSTIÇA 0,00 0,00 3.076,28 0,00 0,00 0,00 0,00 1.717,00 4.793,28 449,69 224,40 0,00 0,00 674,09 4.119,19 30/11/2021
215 227200 ANA PAULA DA SILVA CAMPOLINA ANALISTA DO MP BELO HORIZONTE - COMARCA; DIRETORIA DE ORCAMENTO-DIOR/SPC 18.820,14 9.410,07 0,00 0,00 0,00 0,00 0,00 29.947,21 58.177,42 4.329,11 5.703,44 0,00 0,00 10.032,55 48.144,87 30/11/2021
216 278500 ANA PAULA DIAS CAPANEMA OFICIAL DO MP BELO HORIZONTE - COMARCA; DIRETORIA DE SEGURANCA 10.069,62 3.020,89 0,00 0,00 0,00 0,00 0,00 14.807,51 27.898,02 1.906,76 2.206,17 0,00 0,00 4.112,93 23.785,09 30/11/2021
217 327300 ANA PAULA GARCIA MAXIMO OFICIAL DO MP UNAÍ - COMARCA; UNAI-PJ-01PJ 11.085,56 4.434,22 0,00 0,00 0,00 0,00 0,00 18.802,63 34.322,41 2.295,44 2.610,92 0,00 0,00 4.906,36 29.416,05 30/11/2021
218 270000 ANA PAULA GOULART CRUZ DE MAGALHAES ANALISTA DO MP BELO HORIZONTE - COMARCA; ASSESSORIA ESPECIAL DO PGJ 13.872,60 4.161,78 0,00 0,00 0,00 0,00 0,00 21.570,63 39.605,01 2.697,78 3.348,21 0,00 0,00 6.045,99 33.559,02 30/11/2021
219 262100 ANA PAULA KOMATSUZAKI ABIJAUDI ANALISTA DO MP BELO HORIZONTE - COMARCA; BH-17PJ PATRIMONIO PUBLICO-SECRETARIA 18.820,14 7.528,06 0,00 0,00 0,00 0,00 0,00 1.717,00 28.065,20 4.027,99 5.164,42 0,00 0,00 9.192,41 18.872,79 30/11/2021
220 278900 ANA PAULA MOREIRA GURGEL COORDENADOR/ANALISTA BELO HORIZONTE - COMARCA; ASSESSORIA JURIDICO-ADMINISTRATIVA 18.820,14 7.528,06 3.482,78 0,00 0,00 0,00 0,00 16.632,49 46.463,47 4.027,99 6.226,46 0,00 0,00 10.254,45 36.209,02 30/11/2021
221 425701 ANA PAULA ROCHA ANALISTA DO MP BELO HORIZONTE - COMARCA; ASSESSORIA DE COMUNICACAO INTEGRADA 9.146,93 914,69 0,00 0,00 0,00 0,00 0,00 12.548,01 22.609,63 1.422,14 1.506,50 0,00 0,00 2.928,64 19.680,99 30/11/2021
222 692700 ANA PAULA RODRIGUES GOMES GONCALVES ASSESSOR PROCURADOR JUSTICA BELO HORIZONTE - COMARCA; GABINETE DE PROCURADOR DE JUSTIÇA - SALA 1012 0,00 0,00 7.187,72 0,00 0,00 0,00 0,00 2.486,39 9.674,11 751,97 1.177,78 0,00 0,00 1.929,75 7.744,36 30/11/2021
223 395601 ANA PAULA SALGE OLIVEIRA ANALISTA DO MP UBERABA - COMARCA; UBERABA-PJ-15PJ 10.069,62 3.020,89 0,00 0,00 0,00 0,00 0,00 14.807,51 27.898,02 1.906,76 2.206,17 0,00 0,00 4.112,93 23.785,09 30/11/2021
224 473200 ANA PAULA SCOTTON BRASIL ANALISTA DO MP JUIZ DE FORA - COMARCA; JUIZ DE FORA-PJ-07PJ 10.069,62 2.013,92 0,00 0,00 0,00 0,00 0,00 14.569,93 26.653,47 1.745,64 1.973,56 0,00 0,00 3.719,20 22.934,27 30/11/2021
225 633600 ANA PAULA SILVA FERNANDES OFICIAL DO MP CATAGUASES - COMARCA; CATAGUASES-PJ-04PJ 5.387,19 538,72 0,00 0,00 0,00 0,00 0,00 1.717,00 7.642,91 762,96 550,45 0,00 0,00 1.313,41 6.329,50 30/11/2021
226 470900 ANA PAULA VALADARES ANALISTA DO MP PITANGUI - COMARCA; PITANGUI-PJ-01PJ 10.069,62 2.013,92 0,00 0,00 0,00 0,00 0,00 1.717,00 13.800,54 1.745,64 1.869,29 0,00 0,00 3.614,93 10.185,61 30/11/2021
227 447000 ANA PAULA VALENTIM DE ARAUJO ANALISTA DO MP BELO HORIZONTE - COMARCA; PROC JUST ESP ACOES COMP ORIG CRIMINAL-ASSESS 10.069,62 2.013,92 0,00 0,00 0,00 0,00 0,00 8.588,09 20.671,63 1.745,64 1.973,56 0,00 0,00 3.719,20 16.952,43 30/11/2021
228 604200 ANA PAULA VIANA E SILVA OFICIAL DO MP BELO HORIZONTE - COMARCA; BH-17PJ PATRIMONIO PUBLICO-SECRETARIA 5.930,75 593,08 0,00 0,00 0,00 0,00 0,00 8.453,17 14.977,00 856,09 689,27 0,00 0,00 1.545,36 13.431,64 30/11/2021
229 505400 ANA PAULA VIEIRA SOUTO OFICIAL DO MP ALMENARA - COMARCA; ALMENARA-PJ-01PJ 6.123,79 1.837,14 0,00 0,00 0,00 0,00 0,00 9.677,93 17.638,86 1.086,03 969,10 0,00 0,00 2.055,13 15.583,73 30/11/2021
230 280200 ANA RACHEL BRANDAO LADEIRA ROLAND DIRETOR/ANALISTA BELO HORIZONTE - COMARCA; SUPERINTENDENCIA GESTÃO DE PESSOAS 18.103,37 5.431,01 3.482,78 0,00 0,00 0,00 0,00 28.734,16 55.751,32 3.577,78 5.576,47 0,00 0,00 9.154,25 46.597,07 30/11/2021
231 691000 ANA RACHEL DOS REIS E SENA COSTA ASSESSOR PROMOTOR JUSTICA BELO HORIZONTE - COMARCA; GABINETE DE PROCURADOR DE JUSTIÇA - SALA 601 0,00 0,00 7.187,72 0,00 0,00 0,00 0,00 1.717,00 8.904,72 751,97 1.229,92 0,00 0,00 1.981,89 6.922,83 30/11/2021
232 601200 ANA REGINA RIBEIRO COORDENADOR/ANALISTA BELO HORIZONTE - COMARCA; DIV FISCAL ADM CONT TERCEIRIZACAO 0,00 1.181,92 11.819,15 0,00 0,00 0,00 0,00 14.718,07 27.719,14 1.474,54 2.300,44 0,00 0,00 3.774,98 23.944,16 30/11/2021
233 384700 ANA RODRIGUES PEREIRA MARRA ANALISTA DO MP COROMANDEL - COMARCA; COROMANDEL-PJ-01PJ 10.069,62 2.013,92 0,00 0,00 0,00 0,00 0,00 14.569,93 26.653,47 1.745,64 1.869,29 0,00 0,00 3.614,93 23.038,54 30/11/2021
234 232700 ANA SILVIA SEMBLANO NAKAMURA ASSESSOR/OFICIAL BELO HORIZONTE - COMARCA; CENT DE APOIO TEC-SETOR DEF,IDOSO E INFANC 0,00 3.119,26 10.397,52 0,00 0,00 0,00 0,00 15.233,78 28.750,56 1.906,76 2.323,40 0,00 0,00 4.230,16 24.520,40 30/11/2021
235 602100 ANACLETO FRANCISCO MARCIER PIMENTA OFICIAL DO MP SÃO JOÃO DEL REI - COMARCA; SAO JOAO DEL REI-PJ-03PJ 5.562,64 556,26 0,00 0,00 0,00 0,00 0,00 1.717,00 7.835,90 792,88 348,94 0,00 0,00 1.141,82 6.694,08 30/11/2021
236 310400 ANADEJE DO CARMO DINIZ ARAUJO OFICIAL DO MP BELO HORIZONTE - COMARCA; DIRETORIA DE PESSOAL ADMINISTRATIVO - DPAD 10.069,62 3.020,89 0,00 0,00 0,00 0,00 0,00 1.717,00 14.807,51 1.906,76 2.206,17 0,00 0,00 4.112,93 10.694,58 30/11/2021
237 337000 ANAILDES MARIA MENDES OFICIAL DO MP JANAÚBA - COMARCA; JANAUBA-PJ-02PJ 10.069,62 3.020,89 0,00 0,00 4.363,50 0,00 74,47 15.576,90 33.105,38 1.906,76 5.395,06 0,00 0,00 7.301,82 25.803,56 30/11/2021
238 192900 ANATALIA CERQUEIRA LIMA PERES OFICIAL DO MP UBERABA - COMARCA; COORD REG SAUDE MACROR SANIT TRIANGULO SUL 11.446,46 4.578,58 0,00 0,00 0,00 0,00 46,31 17.742,04 33.813,39 2.376,28 4.056,48 0,00 0,00 6.432,76 27.380,63 30/11/2021
239 377400 ANDEIRSON DA MATTA BARBOSA ANALISTA DO MP POUSO ALEGRE - COMARCA; POUSO ALEGRE-PJ-01PJ 10.069,62 2.013,92 0,00 0,00 0,00 0,00 0,00 14.569,93 26.653,47 1.745,64 1.973,56 0,00 0,00 3.719,20 22.934,27 30/11/2021
240 317400 ANDERSON DA SILVA BICALHO OFICIAL DO MP CONTAGEM - COMARCA; CONTAGEM-PJ-SECRETARIA 9.444,70 2.833,41 0,00 0,00 0,00 0,00 0,00 1.717,00 13.995,11 1.776,77 2.785,22 0,00 0,00 4.561,99 9.433,12 30/11/2021
241 506900 ANDERSON DE SOUZA DAMIANI ANALISTA DO MP BELO HORIZONTE - COMARCA; DIRETORIA DE PAGAMENTO DE PESSOAL-DPAG 10.069,62 3.020,89 0,00 0,00 0,00 0,00 0,00 14.807,51 27.898,02 1.906,76 2.101,90 0,00 0,00 4.008,66 23.889,36 30/11/2021
242 410000 ANDERSON DE SOUZA NETO ASSESSOR BELO HORIZONTE - COMARCA; DIRETORIA DE ADMINISTRACAO FINANCEIRA 0,00 0,00 5.136,32 0,00 0,00 0,00 0,00 1.717,00 6.853,32 738,09 669,60 0,00 0,00 1.407,69 5.445,63 30/11/2021
243 181900 ANDERSON FLAVIO DE OLIVEIRA OFICIAL DO MP ITAGUARA - COMARCA; ITAGUARA-PJ-SECRETARIA 14.324,23 5.729,69 0,00 0,00 0,00 0,00 0,00 1.717,00 21.770,92 3.020,90 8.246,97 0,00 0,00 11.267,87 10.503,05 30/11/2021
244 333200 ANDERSON JOSE DE FREITAS OFICIAL DO MP IPATINGA - COMARCA; IPATINGA-PJ-04PJ 10.069,62 3.020,89 0,00 0,00 0,00 0,00 1.519,74 2.486,39 17.096,64 1.906,76 4.407,49 0,00 0,00 6.314,25 10.782,39 30/11/2021
245 699400 ANDERSON LUIZ CABRAL ASSESSOR PROMOTOR JUSTICA ALÉM PARAÍBA - COMARCA; ALEM PARAIBA-PJ-03PJ 0,00 0,00 7.187,72 0,00 0,00 0,00 0,00 1.717,00 8.904,72 751,97 1.229,92 0,00 0,00 1.981,89 6.922,83 30/11/2021
246 462100 ANDERSON LUIZ GUIMARAES CARDOSO ANALISTA DO MP BARBACENA - COMARCA; BARBACENA-PJ-02PJ 11.085,56 2.217,11 0,00 0,00 0,00 0,00 38,44 13.689,40 27.030,51 1.940,70 3.247,90 0,00 0,00 5.188,60 21.841,91 30/11/2021
247 429700 ANDERSON MELO DE SOUZA ASSESSOR/OFICIAL BELO HORIZONTE - COMARCA; DIRET DE ESTAGIOS E CONVENIOS ACADEMICOS 0,00 2.079,50 10.397,52 0,00 0,00 0,00 0,00 14.194,02 26.671,04 988,05 2.290,11 0,00 0,00 3.278,16 23.392,88 30/11/2021
248 545600 ANDERSON MENDES PROCOPIO FERREIRA ANALISTA DO MP BELO HORIZONTE - COMARCA; BH-12PJ JUIZO CRIMINAL-GAB 089PJ 9.444,70 944,47 0,00 0,00 0,00 0,00 0,00 12.106,17 22.495,34 1.474,54 1.582,16 0,00 0,00 3.056,70 19.438,64 30/11/2021
249 519900 ANDERSON MOREIRA DOEHLER ANALISTA DO MP TEÓFILO OTONI - COMARCA; COORD REG SAUDE MACRORREGIAO SANIT NORDESTE 10.069,62 3.020,89 0,00 0,00 0,00 0,00 0,00 14.807,51 27.898,02 1.906,76 2.206,17 0,00 0,00 4.112,93 23.785,09 30/11/2021
250 103000 ANDERSON TADEU DE DEUS ASSESSOR BELO HORIZONTE - COMARCA; BH-26 CRIME CONT CRIAN ADOL-SECRETARIA 0,00 2.153,40 3.076,28 0,00 0,00 0,00 0,00 3.460,23 8.689,91 751,16 691,68 0,00 0,00 1.442,84 7.247,07 30/11/2021
251 309200 ANDITYAS SOARES DE MOURA COSTA MATOS ANALISTA DO MP BELO HORIZONTE - COMARCA; GABINETE DE PROCURADOR DE JUSTIÇA - SALA 909 14.790,66 4.437,20 0,00 0,00 0,00 0,00 0,00 1.717,00 20.944,86 2.888,73 3.623,90 0,00 0,00 6.512,63 14.432,23 30/11/2021
252 519200 ANDRE BORJA LANA ANALISTA DO MP BELO HORIZONTE - COMARCA; DIR CONTEUDO JORNALISTICO 10.069,62 1.006,96 0,00 0,00 0,00 0,00 2.838,28 12.793,58 26.708,44 1.584,53 2.521,48 0,00 0,00 4.106,01 22.602,43 30/11/2021
253 637200 ANDRE FERNANDES DA CUNHA OFICIAL DO MP MORADA NOVA DE MINAS - COMARCA; MORADA NOVA DE MINAS-PJ-UNPJ 5.387,19 538,72 0,00 0,00 0,00 0,00 0,00 1.717,00 7.642,91 762,96 550,45 0,00 0,00 1.313,41 6.329,50 30/11/2021
254 651500 ANDRE GONCALVES MARANHAO OFICIAL DO MP JACINTO - COMARCA; JACINTO-PJ-SECRETARIA 4.376,03 262,56 0,00 0,00 0,00 0,00 0,00 1.717,00 6.355,59 570,31 279,23 0,00 0,00 849,54 5.506,05 30/11/2021
255 521900 ANDRE LUIS GOMES SILVA ANALISTA DO MP FORMIGA - COMARCA; FORMIGA-PJ-02PJ 10.069,62 1.006,96 0,00 0,00 0,00 0,00 0,00 4.127,76 15.204,34 1.584,53 1.259,64 0,00 0,00 2.844,17 12.360,17 30/11/2021
256 304300 ANDRE LUIZ AVELAR ANALISTA DO MP BELO HORIZONTE - COMARCA; DIRETORIA DE REDES E BANCOS DE DADOS 8.436,53 2.530,96 0,00 0,00 0,00 0,00 0,00 1.717,00 12.684,49 1.567,08 1.663,62 0,00 0,00 3.230,70 9.453,79 30/11/2021
257 397400 ANDRE PATARO MYRRHA DE PAULA E SILVA ANALISTA DO MP BELO HORIZONTE - COMARCA; ASSESSORIA JURIDICO-ADMINISTRATIVA 14.324,23 2.864,85 0,00 0,00 0,00 0,00 0,00 20.235,18 37.424,26 2.562,53 3.152,94 0,00 0,00 5.715,47 31.708,79 30/11/2021
258 650100 ANDRE THOME VARGAS OFICIAL DO MP LEOPOLDINA - COMARCA; LEOPOLDINA-PJ-04PJ 4.817,57 481,76 0,00 0,00 0,00 0,00 192,70 1.717,00 7.209,03 697,26 449,20 0,00 0,00 1.146,46 6.062,57 30/11/2021
259 548500 ANDRE VINICIUS CARVALHO MEIRA ANALISTA DO MP JUIZ DE FORA - COMARCA; JUIZ DE FORA-PJ-24PJ 9.444,70 944,47 0,00 0,00 0,00 0,00 30,03 12.106,17 22.525,37 877,68 2.479,66 0,00 0,00 3.357,34 19.168,03 30/11/2021
260 297200 ANDRE WILLE ROSARIO ANALISTA DO MP BELO HORIZONTE - COMARCA; ASSESSORIA ESPECIAL DO PGJ 18.103,37 5.431,01 0,00 0,00 0,00 0,00 0,00 25.251,38 48.785,76 3.577,78 4.514,43 0,00 0,00 8.092,21 40.693,55 30/11/2021
261 423600 ANDREA COSTA GUALBERTO ALVES ANALISTA DO MP GOVERNADOR VALADARES - COMARCA; COORD REG PJ DEF EDU DIR CRIANCA ADOL RIODOCE 13.011,52 9.108,06 0,00 0,00 0,00 0,00 63,92 9.090,19 31.273,69 3.351,41 5.921,31 0,00 0,00 9.272,72 22.000,97 30/11/2021
262 467300 ANDREA DE CASSIA PENNA ALVERNAZ ANALISTA DO MP PONTE NOVA - COMARCA; PONTE NOVA-PJ-01PJ 10.069,62 2.013,92 0,00 0,00 0,00 0,00 0,00 8.564,34 20.647,88 1.745,64 1.921,43 0,00 0,00 3.667,07 16.980,81 30/11/2021
263 308000 ANDREA DE CASSIA SANTOS OLIVEIRA ANALISTA DO MP BELO HORIZONTE - COMARCA; COORD DE GABINETE DO PGJ 17.413,92 5.224,18 0,00 0,00 0,00 0,00 79,02 19.072,88 41.790,00 3.434,37 6.359,13 0,00 0,00 9.793,50 31.996,50 30/11/2021
264 349500 ANDREA DE OLIVEIRA LOIOLA REGIS OFICIAL DO MP IGUATAMA - COMARCA; IGUATAMA-PJ-UNPJ 9.752,14 2.925,64 0,00 0,00 0,00 0,00 0,00 14.807,51 27.485,29 1.840,72 2.058,69 0,00 0,00 3.899,41 23.585,88 30/11/2021
265 287900 ANDREA FERNANDES PENA MARTINS OFICIAL DO MP MONTES CLAROS - COMARCA; MONTES CLAROS-PJ-09PJ 10.069,62 3.020,89 0,00 0,00 0,00 0,00 0,00 6.080,50 19.171,01 1.906,76 2.101,90 0,00 0,00 4.008,66 15.162,35 30/11/2021
266 300800 ANDREA FERREIRA ANALISTA DO MP LAVRAS - COMARCA; LAVRAS-PJ-04PJ 16.750,82 5.025,25 0,00 0,00 0,00 0,00 497,91 6.072,21 28.346,19 3.296,45 8.672,08 0,00 0,00 11.968,53 16.377,66 30/11/2021
267 395100 ANDREA LANNA MENDES NOVAIS ANALISTA DO MP BELO HORIZONTE - COMARCA; PROMOT ESTADUAL DE DEF PATRI CULT E TUR DE MG 14.790,66 2.958,13 0,00 0,00 0,00 0,00 0,00 1.717,00 19.465,79 2.652,08 4.476,77 0,00 0,00 7.128,85 12.336,94 30/11/2021
268 67300 ANDREA LEAO MAGALHAES ROQUE ASSESSOR BELO HORIZONTE - COMARCA; COORD ESTADUAL COMBATE CRIMES CIBERNETICOS 0,00 7.278,26 10.397,52 0,00 0,00 0,00 0,00 1.717,00 19.392,78 751,97 4.062,00 0,00 0,00 4.813,97 14.578,81 30/11/2021
269 335700 ANDREA LOPES PEREIRA ANALISTA DO MP GOVERNADOR VALADARES - COMARCA; COORD REG DO MA DA BACIA DO RIO DOCE 16.750,82 5.025,25 0,00 0,00 0,00 0,00 0,00 1.717,00 23.493,07 3.296,45 4.212,54 0,00 0,00 7.508,99 15.984,08 30/11/2021
270 389200 ANDREA TUPINI DOS SANTOS TRISTAO DA ROCHA COORDENADOR/OFICIAL BELO HORIZONTE - COMARCA; BH-13ª PJ JUÍZO DE TÓXICOS-SECRETARIA 0,00 2.363,83 11.819,15 0,00 0,00 2.081,55 0,00 1.717,00 17.981,53 2.081,55 3.030,96 0,00 0,00 5.112,51 12.869,02 30/11/2021
271 419000 ANDREIA BARBOSA DE ALMEIDA ANALISTA DO MP BELO HORIZONTE - COMARCA; GABINETE DE PROCURADOR DE JUSTIÇA - SALA 705 13.011,52 2.602,30 0,00 0,00 0,00 0,00 45,12 17.330,82 32.989,76 2.310,49 3.931,32 0,00 0,00 6.241,81 26.747,95 30/11/2021
272 281501 ANDREIA CARLA COSTA ANALISTA DO MP UBÁ - COMARCA; UBA-PJ-02PJ 14.324,23 2.864,85 0,00 0,00 0,00 0,00 144,40 10.311,54 27.645,02 2.562,53 6.808,23 0,00 0,00 9.370,76 18.274,26 30/11/2021
273 477100 ANDREIA DE ALMEIDA RIBEIRO MELO OFICIAL DO MP CONTAGEM - COMARCA; CONTAGEM-PJ-SECRETARIA 7.663,37 1.532,67 0,00 0,00 0,00 0,00 0,00 11.212,42 20.408,46 1.283,64 1.306,55 0,00 0,00 2.590,19 17.818,27 30/11/2021
274 619000 ANDREIA FERREIRA NORONHA COORDENADOR/OFICIAL BELO HORIZONTE - COMARCA; DIRETORIA DE SERVICO CRIMINAL 0,00 1.343,52 13.435,16 -65,77 0,00 0,00 0,00 16.495,68 31.208,59 856,09 2.601,76 0,00 1.300,35 4.758,20 26.450,39 30/11/2021
275 424000 ANDREIA LUCIA COUTO ANALISTA DO MP BELO HORIZONTE - COMARCA; BH-18PJ DIREITOS HUMANOS-SECRETARIA 14.324,23 2.864,85 0,00 0,00 0,00 0,00 0,00 18.906,08 36.095,16 2.562,53 6.808,23 0,00 0,00 9.370,76 26.724,40 30/11/2021
276 370100 ANDREIA MARIA SILVA PINTO OFICIAL DO MP CORONEL FABRICIANO - COMARCA; CORONEL FABRICIANO-PJ-01PJ 9.146,93 1.829,39 0,00 0,00 0,00 0,00 0,00 14.569,93 25.546,25 1.568,49 1.717,79 0,00 0,00 3.286,28 22.259,97 30/11/2021
277 382100 ANDREIA NATALI PEREIRA DE OLIVEIRA OFICIAL DO MP PRADOS - COMARCA; PRADOS-PJ-UNPJ 9.146,93 1.829,39 0,00 0,00 0,00 0,00 0,00 7.205,16 18.181,48 1.568,49 2.553,44 0,00 0,00 4.121,93 14.059,55 30/11/2021
278 275200 ANDREIA RIBEIRO FREITAS OFICIAL DO MP VIÇOSA - COMARCA; VICOSA-PJ-04PJ 10.069,62 3.020,89 0,00 0,00 0,00 0,00 0,00 5.207,80 18.298,31 1.906,76 2.154,03 0,00 0,00 4.060,79 14.237,52 30/11/2021
279 352200 ANDREIA XAVIER PEREIRA OFICIAL DO MP CLÁUDIO - COMARCA; CLAUDIO-PJ-UNPJ 9.752,14 2.925,64 0,00 0,00 0,00 0,00 0,00 6.953,20 19.630,98 1.840,72 2.110,83 0,00 0,00 3.951,55 15.679,43 30/11/2021
280 638500 ANDRESA ALVES FEITOSA CASAGRANDE ANALISTA DO MP LAVRAS - COMARCA; COORD REG DO MA DA BACIA DO RIO GRANDE 8.436,53 843,65 0,00 0,00 0,00 0,00 0,00 10.997,18 20.277,36 873,84 2.282,82 0,00 0,00 3.156,66 17.120,70 30/11/2021
281 383700 ANDRESSA EDUARDO SOUZA ANALISTA DO MP OURO BRANCO - COMARCA; OURO BRANCO-PJ-SECRETARIA 14.324,23 2.864,85 0,00 0,00 0,00 0,00 0,00 2.486,39 19.675,47 2.562,53 3.152,94 0,00 0,00 5.715,47 13.960,00 30/11/2021
282 678400 ANDRESSA LUIZA SILVA LOPES ASSESSOR PROMOTOR JUSTICA CARMO DO PARANAÍBA - COMARCA; CARMO DO PARANAIBA-PJ-02PJ 0,00 0,00 7.187,72 0,00 0,00 0,00 0,00 1.717,00 8.904,72 751,97 1.229,92 0,00 0,00 1.981,89 6.922,83 30/11/2021
283 426200 ANDRESSA MENDES CASAL OFICIAL DO MP BELO HORIZONTE - COMARCA; DIR ESTRUTURA E PROCESSOS ORGANIZACIONAIS 7.663,37 1.532,67 0,00 0,00 0,00 0,00 0,00 2.486,39 11.682,43 1.283,64 1.954,17 0,00 0,00 3.237,81 8.444,62 30/11/2021
284 390100 ANDRESSA RIBEIRO PUCCI OFICIAL DO MP UBERABA - COMARCA; UBERABA-PJ-14PJ 6.961,05 1.392,21 0,00 0,00 0,00 0,00 14,48 1.717,00 10.084,74 1.148,80 1.723,47 0,00 0,00 2.872,27 7.212,47 30/11/2021
285 462500 ANDREZA APARECIDA COSTA E SILVA ANALISTA DO MP CONSELHEIRO LAFAIETE - COMARCA; CONSELHEIRO LAFAIETE-PJ-02PJ 10.069,62 2.013,92 0,00 0,00 0,00 0,00 0,00 1.717,00 13.800,54 1.745,64 1.973,56 0,00 0,00 3.719,20 10.081,34 30/11/2021
286 677700 ANDREZA DE LOURDES FERREIRA DE PAIVA ASSESSOR PROMOTOR JUSTICA ABRE CAMPO - COMARCA; ABRE CAMPO-PJ-01PJ 0,00 0,00 7.187,72 0,00 0,00 0,00 0,00 1.717,00 8.904,72 751,97 1.229,92 0,00 0,00 1.981,89 6.922,83 30/11/2021
287 537800 ANDREZZA LUZIA DE OLIVEIRA ALVES ANALISTA DO MP PATOS DE MINAS - COMARCA; COORD REG PJ DEF EDU DIR CRI ADO AL PAR NOROE 9.444,70 944,47 0,00 0,00 0,00 0,00 0,00 1.717,00 12.106,17 1.474,54 1.530,03 0,00 0,00 3.004,57 9.101,60 30/11/2021
288 491600 ANE PATRICIA RIBEIRO DUARTE ANALISTA DO MP SETE LAGOAS - COMARCA; SETE LAGOAS-PJ-11PJ 10.069,62 2.013,92 0,00 0,00 0,00 0,00 0,00 1.717,00 13.800,54 1.745,64 1.921,43 0,00 0,00 3.667,07 10.133,47 30/11/2021
289 465800 ANELISE GAMA ASSESSOR BELO HORIZONTE - COMARCA; BH-18PJ VIOLENCIA DOMESTICA-SECRETARIA 0,00 0,00 8.170,49 0,00 0,00 0,00 0,00 1.717,00 9.887,49 751,97 1.500,18 0,00 0,00 2.252,15 7.635,34 30/11/2021
290 535200 ANELIZE FERNANDA ALVES VILARINHO OFICIAL DO MP CAPINÓPOLIS - COMARCA; CAPINOPOLIS-PJ-UNPJ 6.123,79 612,38 0,00 0,00 0,00 0,00 0,00 9.991,95 16.728,12 890,06 738,32 0,00 0,00 1.628,38 15.099,74 30/11/2021
291 197200 ANGELA COELHO SALDANHA OFICIAL DO MP PARÁ DE MINAS - COMARCA; PARA DE MINAS-PJ-03PJ 16.750,82 6.700,33 0,00 0,00 0,00 0,00 189,78 1.717,00 25.357,93 3.564,46 9.401,85 0,00 0,00 12.966,31 12.391,62 30/11/2021
292 307400 ANGELA CRISTINA GONCALVES MUNIZ ANALISTA DO MP UBERLÂNDIA - COMARCA; UBERLANDIA-PJ-SEC FAMILIA 18.103,37 7.241,35 0,00 0,00 0,00 0,00 0,00 1.717,00 27.061,72 3.867,43 4.984,76 0,00 0,00 8.852,19 18.209,53 30/11/2021
293 191800 ANGELA MARIA DE OLIVEIRA OFICIAL DO MP GUARANÉSIA - COMARCA; GUARANESIA-PJ-SECRETARIA 16.750,82 11.725,57 0,00 276,54 0,00 14.449,42 230,45 30.193,39 73.626,19 4.368,50 15.187,42 0,00 0,00 19.555,92 54.070,27 30/11/2021
294 497400 ANGELA MARIA HENRIQUES ANALISTA DO MP BELO HORIZONTE - COMARCA; COORD REG BACIAS RIO VELHAS E PARAOPEBA 10.069,62 2.013,92 0,00 0,00 0,00 0,00 0,00 13.800,54 25.884,08 1.745,64 1.973,56 0,00 0,00 3.719,20 22.164,88 30/11/2021
295 260700 ANGELICA CRISTINA AZEVEDO MOREIRA MOUCO OFICIAL DO MP UBÁ - COMARCA; UBA-PJ-05PJ 12.601,30 3.780,39 0,00 0,00 0,00 0,00 0,00 18.631,98 35.013,67 2.433,35 2.966,43 0,00 0,00 5.399,78 29.613,89 30/11/2021
296 708300 ANGELICA NUNES VIEIRA DA SILVA ASSESSOR PROMOTOR JUSTICA IBIRITÉ - COMARCA; IBIRITE-PJ-02PJ 0,00 0,00 7.187,72 0,00 0,00 0,00 0,00 1.717,00 8.904,72 751,97 1.229,92 0,00 0,00 1.981,89 6.922,83 30/11/2021
297 334600 ANGELICA PANISSA DE FREITAS GALLATI OFICIAL DO MP GUAXUPÉ - COMARCA; GUAXUPE-PJ-02PJ 10.069,62 3.020,89 0,00 0,00 0,00 0,00 0,00 15.576,90 28.667,41 1.906,76 2.154,03 0,00 0,00 4.060,79 24.606,62 30/11/2021
298 521100 ANGELICA SALES MOREIRA OFICIAL DO MP BELO HORIZONTE - COMARCA; BH-02PJ FAMILIA-SECRETARIA 7.421,79 742,18 0,00 0,00 0,00 0,00 0,00 10.146,71 18.310,68 1.118,51 1.068,14 0,00 0,00 2.186,65 16.124,03 30/11/2021
299 466500 ANGELLO MARQUES AGRELLI ANALISTA DO MP MAR DE ESPANHA - COMARCA; MAR DE ESPANHA-PJ-UNPJ 10.069,62 2.013,92 0,00 0,00 4.027,85 0,00 0,00 1.717,00 17.828,39 1.745,64 3.081,22 0,00 0,00 4.826,86 13.001,53 30/11/2021
300 363300 ANGELO VERDOLIN HENRIQUES ANALISTA DO MP SETE LAGOAS - COMARCA; SETE LAGOAS-PJ-04PJ 15.272,02 6.108,81 0,00 0,00 0,00 0,00 0,00 25.168,15 46.548,98 3.233,21 4.121,24 0,00 0,00 7.354,45 39.194,53 30/11/2021
301 250900 ANISIO APARECIDO SANTOS OFICIAL DO MP BETIM - COMARCA; BETIM - SECRETARIA DAS PJS CRIMINAIS 6.123,79 2.449,52 0,00 0,00 0,00 0,00 0,00 9.718,76 18.292,07 1.184,01 536,13 0,00 0,00 1.720,14 16.571,93 30/11/2021
302 651200 ANITA MARIA SANT ANA DE MATTOS FONTES OFICIAL DO MP ERVÁLIA - COMARCA; ERVALIA-PJ-UNPJ 4.817,57 3.372,30 0,00 0,00 0,00 0,00 0,00 1.717,00 9.906,87 1.122,66 1.021,99 0,00 0,00 2.144,65 7.762,22 30/11/2021
303 698100 ANNA CAROLINA POLICARIO BERTOLIN ASSESSOR PROCURADOR JUSTICA BELO HORIZONTE - COMARCA; PROC. JUSTICA DIR. DIFUSOS E COLETIVOS-SEC 0,00 0,00 7.187,72 0,00 0,00 0,00 0,00 1.717,00 8.904,72 751,97 1.229,92 0,00 0,00 1.981,89 6.922,83 30/11/2021
304 253400 ANNA FLAVIA LEHMAN BATTAGLIA DIRETOR/ANALISTA BELO HORIZONTE - COMARCA; SUPRIN DE PLANEJAMENTO E COORDENACAO 18.820,14 5.646,04 3.482,78 0,00 0,00 0,00 0,00 29.665,96 57.614,92 3.726,87 5.635,30 0,00 0,00 9.362,17 48.252,75 30/11/2021
305 688800 ANNA LUIZA MATTOS DUARTE ASSESSOR PROCURADOR JUSTICA BELO HORIZONTE - COMARCA; GABINETE DE PROCURADOR DE JUSTIÇA - SALA 305 0,00 0,00 7.187,72 0,00 2.395,91 0,00 0,00 1.717,00 11.300,63 751,97 1.888,80 0,00 0,00 2.640,77 8.659,86 30/11/2021
306 447600 ANNGELUCE ALCANTARA DE CAMPOS OFICIAL DO MP DIVINÓPOLIS - COMARCA; DIVINOPOLIS-PJ-SECRETARIA 7.421,79 1.484,36 0,00 0,00 0,00 0,00 0,00 3.351,10 12.257,25 1.237,26 1.239,58 0,00 0,00 2.476,84 9.780,41 30/11/2021
307 119600 ANSELMO BORGES PARREIRAS OFICIAL DO MP BONFIM - COMARCA; BONFIM-PJ-UNPJ 8.170,49 6.536,40 0,00 51,01 0,00 3.917,44 0,00 1.717,00 20.392,34 2.165,38 4.597,03 0,00 0,00 6.762,41 13.629,93 30/11/2021
308 630300 ANTONIA GOMES RAMALHO OFICIAL DO MP NOVO CRUZEIRO - COMARCA; NOVO CRUZEIRO-PJ-UNPJ 5.387,19 538,72 0,00 0,00 0,00 0,00 0,00 3.255,78 9.181,69 762,96 550,45 0,00 0,00 1.313,41 7.868,28 30/11/2021
309 401600 ANTONIO CARLOS GUEDES AROUCA ANALISTA DO MP BELO HORIZONTE - COMARCA; ASSESSORIA JURIDICO-ADMINISTRATIVA 13.011,52 2.602,30 0,00 0,00 0,00 0,00 0,00 17.330,82 32.944,64 2.310,49 6.109,91 0,00 0,00 8.420,40 24.524,24 30/11/2021
310 333900 ANTONIO GONCALVES DE SOUZA FILHO OFICIAL DO MP BELO HORIZONTE - COMARCA; DIRETORIA DE CONTABILIDADE 9.752,14 2.925,64 0,00 0,00 0,00 0,00 0,00 14.807,51 27.485,29 1.840,72 2.110,83 0,00 0,00 3.951,55 23.533,74 30/11/2021
311 176100 ANTONIO MARCELO CAMPOS CAMPANELLA OFICIAL DO MP BELO HORIZONTE - COMARCA; COORD DE GABINETE DO PGJ 16.750,82 8.375,41 0,00 0,00 0,00 0,00 203,34 26.843,23 52.172,80 3.832,47 10.335,15 0,00 0,00 14.167,62 38.005,18 30/11/2021
312 321001 ANTONIO OLINTO VIEIRA MACHADO ANALISTA DO MP BELO HORIZONTE - COMARCA; CENTRAL DE APOIO TECN-SETOR DE MEIO AMBIENTE 14.790,66 2.958,13 0,00 0,00 0,00 0,00 51,31 19.465,79 37.265,89 2.652,08 4.476,77 0,00 0,00 7.128,85 30.137,04 30/11/2021
313 356200 ANTONIO PAULA DA SILVA OFICIAL DO MP JUIZ DE FORA - COMARCA; JUIZ DE FORA-PJ-20PJ 9.444,70 2.833,41 0,00 0,00 0,00 0,00 103,15 13.995,11 26.376,37 1.776,77 4.734,18 0,00 0,00 6.510,95 19.865,42 30/11/2021
314 119900 ANTONIO RODRIGUES DE PINHO OFICIAL DO MP GUANHÃES - COMARCA; GUANHAES-PJ-01PJ 15.272,02 10.690,41 0,00 0,00 0,00 0,00 75,01 27.679,43 53.716,87 3.966,27 6.973,48 0,00 0,00 10.939,75 42.777,12 30/11/2021
315 373300 ANTONIO SERGIO ANANIAS OFICIAL DO MP SÃO JOÃO NEPOMUCENO - COMARCA; SAO JOAO NEPOMUCENO-PJ-01PJ 8.579,10 1.715,82 0,00 0,00 0,00 0,00 0,00 1.717,00 12.011,92 189,54 1.857,48 0,00 0,00 2.047,02 9.964,90 30/11/2021
316 608100 ANTONIO SIDINEY VIEIRA LEMOS ANALISTA DO MP PIRAPORA - COMARCA; PIRAPORA-PJ-01PJ 9.146,93 3.658,77 0,00 0,00 0,00 0,00 0,00 14.522,70 27.328,40 1.861,19 2.088,24 0,00 0,00 3.949,43 23.378,97 30/11/2021
317 374700 ANTONIO SILVA NETO OFICIAL DO MP BELO HORIZONTE - COMARCA; GAECO - SECRETARIA 8.858,43 1.771,69 0,00 0,00 0,00 0,00 0,00 13.796,15 24.426,27 1.513,10 1.637,82 0,00 0,00 3.150,92 21.275,35 30/11/2021
318 636700 ANTONIUS VITORIANO FERNANDES OFICIAL DO MP BELO HORIZONTE - COMARCA; ASSESSORIA JURIDICA DO PROCON-MG 4.974,42 497,44 0,00 0,00 0,00 0,00 0,00 1.717,00 7.188,86 694,23 444,49 0,00 0,00 1.138,72 6.050,14 30/11/2021
319 413200 ANY PEREIRA SILVA ANALISTA DO MP TRÊS PONTAS - COMARCA; TRES PONTAS-PJ-01PJ 12.601,30 2.520,26 0,00 0,00 0,00 0,00 0,00 17.330,82 32.452,38 2.231,73 2.675,34 0,00 0,00 4.907,07 27.545,31 30/11/2021
320 151401 APARECIDA DE FATIMA MENDES DE ALMEIDA ASSESSOR JUIZ DE FORA - COMARCA; JUIZ DE FORA-PJ-SECRETARIA 0,00 0,00 5.136,32 0,00 0,00 0,00 0,00 1.717,00 6.853,32 738,09 669,60 0,00 0,00 1.407,69 5.445,63 30/11/2021
321 329300 APARECIDA MARIA MELO DE ASSIS OFICIAL DO MP BELO HORIZONTE - COMARCA; BH-18PJ DIREITOS HUMANOS-SECRETARIA 10.069,62 3.020,89 0,00 0,00 0,00 0,00 0,00 1.717,00 14.807,51 1.906,76 2.206,17 0,00 0,00 4.112,93 10.694,58 30/11/2021
322 475300 APARECIDA MARLENE FREIRE ROSA ANALISTA DO MP BELO HORIZONTE - COMARCA; BH-02PJ FAMILIA-SECRETARIA 12.601,30 11.341,17 0,00 83,03 0,00 6.669,88 0,00 25.659,47 56.354,85 3.643,07 8.115,45 0,00 0,00 11.758,52 44.596,33 30/11/2021
323 653000 APARECIDA ROSA DE LIMA ASSESSOR BELO HORIZONTE - COMARCA; SECRETARIA PROCESSOS DISCIPES ADMINISTRATIVOS 0,00 0,00 8.170,49 0,00 0,00 0,00 0,00 1.717,00 9.887,49 751,97 1.500,18 0,00 0,00 2.252,15 7.635,34 30/11/2021
324 354500 APARECIDA VIEIRA DE CARVALHO OFICIAL DO MP BELO HORIZONTE - COMARCA; DIVISÃO DE EDUCAÇÃO PARA O CONSUMO 7.912,85 2.373,86 0,00 0,00 0,00 0,00 27,44 12.003,71 22.317,86 1.458,15 2.282,50 0,00 0,00 3.740,65 18.577,21 30/11/2021
325 551000 ARACELES BICALHO FELIX ANALISTA DO MP MANHUAÇU - COMARCA; MANHUACU-PJ-02PJ 9.444,70 944,47 0,00 0,00 0,00 0,00 0,00 1.717,00 12.106,17 1.474,54 2.342,76 0,00 0,00 3.817,30 8.288,87 30/11/2021
326 286200 ARACELI MEDRADO DOS SANTOS LIMA OFICIAL DO MP PARACATU - COMARCA; PARACATU-PJ-03PJ 6.123,79 1.837,14 0,00 0,00 0,00 0,00 0,00 9.677,93 17.638,86 1.086,03 1.021,24 0,00 0,00 2.107,27 15.531,59 30/11/2021
327 112200 ARAQUEM AUGUSTO DE MATOS AGENTE DO MP BELO HORIZONTE - COMARCA; BH-23PJ CIVEL-SEC EXP CIVEIS 8.858,43 7.086,74 0,00 0,00 0,00 2.363,50 0,00 14.339,76 32.648,43 2.363,50 3.359,15 0,00 0,00 5.722,65 26.925,78 30/11/2021
328 280600 ARDUINO FRATTEZI ANALISTA DO MP BELO HORIZONTE - COMARCA; CENTRAL DE APOIO TECNICO-SETOR CONTABIL 18.103,37 5.431,01 0,00 0,00 0,00 0,00 0,00 25.251,38 48.785,76 3.577,78 4.618,71 0,00 0,00 8.196,49 40.589,27 30/11/2021
329 520201 ARIANE DE FATIMA CARVALHO ALMEIDA RODRIGUES ANALISTA DO MP VESPASIANO - COMARCA; VESPASIANO-PJ-SECRETARIA 9.146,93 914,69 0,00 0,00 0,00 0,00 0,00 12.932,16 22.993,78 1.422,14 3.236,30 0,00 0,00 4.658,44 18.335,34 30/11/2021
330 537600 ARIELA FREIRE MONTIJO ANALISTA DO MP ARCOS - COMARCA; ARCOS-PJ-01PJ 9.444,70 944,47 0,00 0,00 0,00 0,00 0,00 12.875,56 23.264,73 1.474,54 1.477,89 0,00 0,00 2.952,43 20.312,30 30/11/2021
331 182000 ARILSON ALEXANDRE MARTINS MAGALHAES OFICIAL DO MP JOÃO MONLEVADE - COMARCA; JOAO MONLEVADE-PJ-01PJ 14.790,66 7.395,33 0,00 0,00 0,00 0,00 0,00 26.163,81 48.349,80 3.362,04 4.098,68 0,00 0,00 7.460,72 40.889,08 30/11/2021
332 511000 ARISLANE CAROLINA DA SILVA ANALISTA DO MP ESTRELA DO SUL - COMARCA; ESTRELA DO SUL-PJ-UNPJ 10.069,62 2.013,92 0,00 0,00 0,00 0,00 1.006,96 3.255,78 16.346,28 1.906,76 2.206,17 0,00 0,00 4.112,93 12.233,35 30/11/2021
333 170000 ARLEY BRITES DA SILVA ASSESSOR BELO HORIZONTE - COMARCA; BH-14PJ DEFESA CONSUMIDOR-SECRETARIA 0,00 2.054,53 5.136,32 0,00 0,00 0,00 0,00 6.031,51 13.222,36 751,97 604,62 0,00 0,00 1.356,59 11.865,77 30/11/2021
334 120400 ARLINDO CASSIO DA CRUZ OFICIAL DO MP SÃO GONÇALO DO SAPUCAÍ - COMARCA; SAO GONCALO DO SAPUCAI-PJ-01PJ 18.820,14 15.056,11 0,00 0,00 0,00 5.232,48 0,00 35.593,25 74.701,98 5.232,48 8.342,33 0,00 0,00 13.574,81 61.127,17 30/11/2021
335 243700 ARLINDO MARCIO LACERDA OFICIAL DO MP CONTAGEM - COMARCA; CONTAGEM-PJ-SECRETARIA 13.011,52 5.204,61 0,00 0,00 0,00 0,00 1.445,27 1.717,00 21.378,40 2.726,86 5.172,94 0,00 0,00 7.899,80 13.478,60 30/11/2021
336 392100 ARNALDO DE ANDRADE OFICIAL DO MP DIVINÓPOLIS - COMARCA; DIVINOPOLIS-PJ-02PJ 9.146,93 1.829,39 0,00 0,00 0,00 0,00 1.477,01 2.486,39 14.939,72 1.568,49 2.898,76 0,00 0,00 4.467,25 10.472,47 30/11/2021
337 642400 ARTANE INARDE DE SIQUEIRA DAMASCENO ANALISTA DO MP BELO HORIZONTE - COMARCA; SECRETARIA DE ASSUNTOS INTERNACIONAIS 8.170,49 817,05 0,00 0,00 0,00 0,00 0,00 2.435,10 11.422,64 841,65 1.318,08 0,00 0,00 2.159,73 9.262,91 30/11/2021
338 712100 ARTUR FONTE BOA TEOFILO ASSESSOR BELO HORIZONTE - COMARCA; DIRET DE ESTAGIOS E CONVENIOS ACADEMICOS 0,00 0,00 3.076,28 0,00 0,00 0,00 0,00 1.717,00 4.793,28 449,69 224,40 0,00 0,00 674,09 4.119,19 30/11/2021
339 302100 AUGUSTO ROUSSEAU DE CASTRO ANALISTA DO MP CATAGUASES - COMARCA; CATAGUASES-PJ-02PJ 18.820,14 5.646,04 0,00 0,00 0,00 0,00 0,00 26.183,18 50.649,36 3.726,87 4.833,95 0,00 0,00 8.560,82 42.088,54 30/11/2021
340 540200 AUREA AVELAR BITTENCOURT OFICIAL DO MP BELO HORIZONTE - COMARCA; GRUPO ESP PROM JUST DEF PROB ADM PAT PUB 5.562,64 556,26 0,00 0,00 0,00 0,00 0,00 7.835,90 13.954,80 792,88 491,02 0,00 0,00 1.283,90 12.670,90 30/11/2021
341 633501 AUREA GONTIJO BIRCHAL ASSESSOR BELO HORIZONTE - COMARCA; PROCURADOR-GERAL DE JUSTIÇA 0,00 0,00 8.170,49 0,00 0,00 0,00 0,00 1.717,00 9.887,49 751,97 1.500,18 0,00 0,00 2.252,15 7.635,34 30/11/2021
342 183200 AURELIANO MAGELA DE REZENDE COORDENADOR/OFICIAL BELO HORIZONTE - COMARCA; COORD DE GABINETE DO PGJ 15.499,20 6.199,68 2.687,03 0,00 0,00 0,00 0,00 26.961,98 51.347,89 3.284,10 4.933,64 0,00 0,00 8.217,74 43.130,15 30/11/2021
343 629400 AYESKA DA COSTA VAL MOURA DABIEN OFICIAL DO MP BELO HORIZONTE - COMARCA; BH-09PJ AUDITORIA MILITAR-SECRETARIA 5.387,19 538,72 0,00 0,00 0,00 0,00 0,00 4.679,96 10.605,87 762,96 550,45 0,00 0,00 1.313,41 9.292,46 30/11/2021
344 707400 AYMEE JOHANSSENN TYNEE CORREIA ALVES ASSESSOR PROMOTOR JUSTICA NOVA LIMA - COMARCA; NOVA LIMA-PJ-01PJ 0,00 0,00 7.187,72 0,00 0,00 0,00 0,00 1.717,00 8.904,72 751,97 1.229,92 0,00 0,00 1.981,89 6.922,83 30/11/2021
345 701600 BARBARA CHAVES OLIVEIRA ASSESSOR PROCURADOR JUSTICA BELO HORIZONTE - COMARCA; PROC. JUSTICA DIR. DIFUSOS E COLETIVOS-SEC 0,00 0,00 7.187,72 0,00 0,00 0,00 0,00 1.717,00 8.904,72 751,97 1.229,92 0,00 0,00 1.981,89 6.922,83 30/11/2021
346 691900 BARBARA COUTINHO REIS ASSESSOR PROCURADOR JUSTICA BELO HORIZONTE - COMARCA; GABINETE DE PROCURADOR DE JUSTIÇA - SALA 912 0,00 0,00 7.187,72 0,00 0,00 0,00 0,00 1.717,00 8.904,72 751,97 1.229,92 0,00 0,00 1.981,89 6.922,83 30/11/2021
347 692200 BARBARA CRISTINA MENDES BANDEIRA DE MELO DUTRA ASSESSOR PROCURADOR JUSTICA BELO HORIZONTE - COMARCA; GABINETE DE PROCURADOR DE JUSTIÇA - SALA 1009 0,00 0,00 7.187,72 0,00 2.395,91 0,00 0,00 1.717,00 11.300,63 751,97 1.888,80 0,00 0,00 2.640,77 8.659,86 30/11/2021
348 652800 BARBARA JULIANNE MOREIRA CASTRO ASSESSOR PROCURADOR JUSTICA BELO HORIZONTE - COMARCA; ASSESS TECNICO-JUR JUNTO AS PROC. DE JUST 0,00 0,00 7.187,72 0,00 0,00 0,00 0,00 1.717,00 8.904,72 751,97 1.229,92 0,00 0,00 1.981,89 6.922,83 30/11/2021
349 707700 BARBARA LOUISE PUFF DE OLIVEIRA ASSESSOR PROMOTOR JUSTICA RIBEIRÃO DAS NEVES - COMARCA; RIBEIRAO DAS NEVES-PJ-02PJ 0,00 0,00 7.187,72 0,00 0,00 0,00 0,00 1.717,00 8.904,72 751,97 1.229,92 0,00 0,00 1.981,89 6.922,83 30/11/2021
350 663600 BARBARA REGINA PEREIRA DE PINHO MAGALHAES ASSESSOR PROMOTOR JUSTICA BELO HORIZONTE - COMARCA; CAO-DH CONT EXT ATIV POLIC E AP COMUNIT 0,00 0,00 7.187,72 0,00 0,00 0,00 0,00 1.717,00 8.904,72 751,97 1.229,92 0,00 0,00 1.981,89 6.922,83 30/11/2021
351 692400 BARBARA SOUZA OLIVEIRA ASSESSOR PROMOTOR JUSTICA DIVINO - COMARCA; DIVINO-PJ-UNPJ 0,00 0,00 7.187,72 0,00 0,00 0,00 0,00 1.717,00 8.904,72 751,97 1.229,92 0,00 0,00 1.981,89 6.922,83 30/11/2021
352 546500 BARBARA ZACARONI GOULART OFICIAL DO MP BETIM - COMARCA; BETIM-PJ-08PJ 6.123,79 612,38 0,00 0,00 0,00 0,00 44,56 8.453,17 15.233,90 890,06 2.626,81 0,00 0,00 3.516,87 11.717,03 30/11/2021
353 316500 BEATRIZ ABILVIA DA SILVA ANALISTA DO MP GOVERNADOR VALADARES - COMARCA; GOVERNADOR VALADARES-PJ-07PJ 17.413,92 5.224,18 0,00 0,00 0,00 0,00 79,02 24.355,10 47.072,22 3.434,37 6.411,27 0,00 0,00 9.845,64 37.226,58 30/11/2021
354 311800 BEATRIZ APARECIDA SOARES GANEM OFICIAL DO MP ITAMBACURI - COMARCA; ITAMBACURI-PJ-02PJ 10.069,62 3.020,89 0,00 0,00 0,00 0,00 0,00 11.021,60 24.112,11 1.906,76 2.049,76 0,00 0,00 3.956,52 20.155,59 30/11/2021
355 266800 BEATRIZ AUGUSTA VILACA GOMES DE HUBER OFICIAL DO MP BELO HORIZONTE - COMARCA; BH-05PJ-JUÍZO SUCESSÕES-SEC 9.146,93 2.744,08 0,00 0,00 0,00 0,00 0,00 1.717,00 13.608,01 1.714,84 1.929,09 0,00 0,00 3.643,93 9.964,08 30/11/2021
356 235200 BEATRIZ BOTELHO BATISTA OFICIAL DO MP BELO HORIZONTE - COMARCA; BH-21PJ TUTELA FUNDACOES-SECRETARIA 10.069,62 4.027,85 0,00 0,00 0,00 0,00 0,00 1.717,00 15.814,47 2.067,87 2.438,78 0,00 0,00 4.506,65 11.307,82 30/11/2021
357 182300 BEATRIZ PAULA SOUSA RAMOS OFICIAL DO MP MARIANA - COMARCA; MARIANA-PJ-01PJ 14.790,66 7.395,33 0,00 0,00 0,00 0,00 0,00 24.625,03 46.811,02 3.362,04 4.307,23 0,00 0,00 7.669,27 39.141,75 30/11/2021
358 507000 BELCHIOR FRANKLIN AMARAL LEITE ANALISTA DO MP BELO HORIZONTE - COMARCA; CENTRAL DE APOIO TECNICO 10.069,62 2.013,92 0,00 0,00 0,00 0,00 1.006,96 14.569,93 27.660,43 1.906,76 2.049,76 0,00 0,00 3.956,52 23.703,91 30/11/2021
359 345100 BENITO ELIAS RODRIGUES ANALISTA DO MP BARBACENA - COMARCA; BARBACENA - SECRETARIA DAS PJS CRIMINAIS 16.750,82 5.025,25 0,00 0,00 0,00 0,00 171,89 12.605,04 34.553,00 3.296,45 8.568,71 0,00 0,00 11.865,16 22.687,84 30/11/2021
360 207300 BENITO VIEIRA DOS SANTOS ANALISTA DO MP BELO HORIZONTE - COMARCA; PROC JUST ESP ACOES COMP ORIG CRIMINAL-ASSESS 18.820,14 7.528,06 0,00 0,00 0,00 4.027,99 0,00 28.065,20 58.441,39 4.027,99 5.167,94 0,00 0,00 9.195,93 49.245,46 30/11/2021
361 480200 BERNADETE NUNES DOS SANTOS ANALISTA DO MP GUANHÃES - COMARCA; GUANHAES-PJ-02PJ 10.069,62 3.020,89 0,00 0,00 0,00 0,00 0,00 14.807,51 27.898,02 1.906,76 2.206,17 0,00 0,00 4.112,93 23.785,09 30/11/2021
362 378400 BETANIA FARNESI DE SOUZA E SILVA OFICIAL DO MP CURVELO - COMARCA; CURVELO-PJ-01PJ 8.858,43 3.543,37 0,00 0,00 0,00 0,00 0,00 14.095,84 26.497,64 1.796,57 1.994,94 0,00 0,00 3.791,51 22.706,13 30/11/2021
363 387400 BETANIA MENDONCA DE ASSIS CARVALHO ANALISTA DO MP JUIZ DE FORA - COMARCA; JUIZ DE FORA-PJ-03PJ 14.324,23 2.864,85 0,00 0,00 0,00 0,00 0,00 1.717,00 18.906,08 2.562,53 3.100,80 0,00 0,00 5.663,33 13.242,75 30/11/2021
364 712700 BIANCA DE JESUS SOUZA ASSESSOR GOVERNADOR VALADARES - COMARCA; COOR REG APOIO COM INC MOB VALE DO RIO DOCE 0,00 0,00 3.076,28 0,00 0,00 0,00 0,00 1.717,00 4.793,28 449,69 224,40 0,00 0,00 674,09 4.119,19 30/11/2021
365 450300 BIANCA OLIVEIRA DE ALBUQUERQUE ANALISTA DO MP BELO HORIZONTE - COMARCA; BH-10PJ EXECUÇÃO PENAL-SECRETARIA 10.069,62 2.013,92 0,00 0,00 4.027,85 0,00 0,00 2.486,39 18.597,78 1.745,64 3.081,22 0,00 0,00 4.826,86 13.770,92 30/11/2021
366 535400 BIANCA SALOTO ROSSI ANALISTA DO MP SANTOS DUMONT - COMARCA; SANTOS DUMONT-PJ-01PJ 9.444,70 944,47 0,00 0,00 0,00 0,00 0,00 12.875,56 23.264,73 1.474,54 1.582,16 0,00 0,00 3.056,70 20.208,03 30/11/2021
367 120800 BRAS MARQUES DE SOUZA ANALISTA DO MP BELO HORIZONTE - COMARCA; SUPERINTENDENCIA DE GESTAO ADMINISTRATIVA 23.757,25 19.005,81 0,00 0,00 0,00 5.486,23 0,00 37.179,22 85.428,51 5.486,23 8.778,48 7.300,84 0,00 21.565,55 63.862,96 30/11/2021
368 710500 BRENNO VINICIUS MAGESTE ROSA ASSESSOR PROMOTOR JUSTICA MANHUAÇU - COMARCA; MANHUACU-PJ-02PJ 0,00 0,00 7.187,72 0,00 0,00 0,00 0,00 1.717,00 8.904,72 751,97 1.229,92 0,00 0,00 1.981,89 6.922,83 30/11/2021
369 460900 BRENO CRISTIANO DE SOUZA REZENDE ANALISTA DO MP ITAÚNA - COMARCA; ITAUNA-PJ-02PJ 9.752,14 1.950,43 0,00 0,00 0,00 0,00 0,00 13.800,54 25.503,11 1.684,69 1.885,56 0,00 0,00 3.570,25 21.932,86 30/11/2021
370 239000 BRENO VENANCIO ROMANINI OFICIAL DO MP BELO HORIZONTE - COMARCA; BH-20PJ ORD ECON TRIBUTARIA-SECRETARIA 10.069,62 3.020,89 0,00 0,00 0,00 0,00 0,00 14.807,51 27.898,02 1.906,76 2.206,17 0,00 0,00 4.112,93 23.785,09 30/11/2021
371 202201 BRIGITTE AMARALINA DE CALDAS LIMA OFICIAL DO MP NANUQUE - COMARCA; NANUQUE-PJ-03PJ 10.069,62 4.027,85 0,00 0,00 0,00 0,00 0,00 14.404,72 28.502,19 2.067,87 2.178,09 0,00 0,00 4.245,96 24.256,23 30/11/2021
372 642300 BRUNA IZABELITA DE FATIMA OLIVEIRA COSTA OFICIAL DO MP BELO HORIZONTE - COMARCA; BH-02PJ FAMILIA-SECRETARIA 5.387,19 538,72 0,00 0,00 0,00 0,00 0,00 1.717,00 7.642,91 762,96 550,45 0,00 0,00 1.313,41 6.329,50 30/11/2021
373 513600 BRUNA KARLA MARTINS CARVALHO ANALISTA DO MP GOVERNADOR VALADARES - COMARCA; GOVERNADOR VALADARES-PJ-14PJ 10.069,62 2.013,92 0,00 0,00 0,00 0,00 1.006,96 13.800,54 26.891,04 1.906,76 2.206,17 0,00 0,00 4.112,93 22.778,11 30/11/2021
374 415100 BRUNA MARIA SOARES OLIVEIRA COSTA RAMOS ANALISTA DO MP UBÁ - COMARCA; COORD REG BACIA DO RIO PARAIBA DO SUL 14.324,23 2.864,85 0,00 0,00 0,00 0,00 0,00 18.906,08 36.095,16 2.562,53 6.952,63 0,00 0,00 9.515,16 26.580,00 30/11/2021
375 692900 BRUNA MENDES COELHO ASSESSOR PROCURADOR JUSTICA BELO HORIZONTE - COMARCA; GABINETE DE PROCURADOR DE JUSTIÇA - SALA 801 0,00 0,00 7.187,72 0,00 0,00 0,00 0,00 1.717,00 8.904,72 751,97 1.229,92 0,00 0,00 1.981,89 6.922,83 30/11/2021
376 470000 BRUNA MORAES ANALISTA DO MP TOMBOS - COMARCA; TOMBOS-PJ-UNPJ 12.601,30 2.520,26 0,00 0,00 0,00 0,00 43,70 5.749,42 20.914,68 2.231,73 3.647,32 0,00 0,00 5.879,05 15.035,63 30/11/2021
377 614700 BRUNA NATTANY DE LIMA OFICIAL DO MP MANTENA - COMARCA; MANTENA-PJ-01PJ 5.930,75 593,08 0,00 0,00 0,00 0,00 54,81 8.240,83 14.819,47 856,09 2.084,47 0,00 0,00 2.940,56 11.878,91 30/11/2021
378 693300 BRUNA RAMONY ROCHA DA CRUZ ASSESSOR PROMOTOR JUSTICA JAIBA - COMARCA; JAIBA-PJ-UNPJ 0,00 0,00 7.187,72 0,00 0,00 0,00 0,00 1.717,00 8.904,72 751,97 1.229,92 0,00 0,00 1.981,89 6.922,83 30/11/2021
379 631800 BRUNA RAPOSO JORGE OFICIAL DO MP JUIZ DE FORA - COMARCA; JUIZ DE FORA-PJ-06PJ 5.387,19 538,72 0,00 0,00 0,00 0,00 0,00 8.240,83 14.166,74 762,96 550,45 0,00 0,00 1.313,41 12.853,33 30/11/2021
380 707800 BRUNA ROMIE WERDINE ASSESSOR PROMOTOR JUSTICA IBIRITÉ - COMARCA; IBIRITE-PJ-06PJ 0,00 0,00 7.187,72 0,00 0,00 0,00 0,00 1.717,00 8.904,72 751,97 1.229,92 0,00 0,00 1.981,89 6.922,83 30/11/2021
381 697400 BRUNA SILVA SANTOS ASSESSOR PROMOTOR JUSTICA TIMÓTEO - COMARCA; TIMOTEO-PJ-04PJ 0,00 0,00 7.187,72 0,00 0,00 0,00 0,00 1.717,00 8.904,72 751,97 1.229,92 0,00 0,00 1.981,89 6.922,83 30/11/2021
382 699300 BRUNA URSINE TIMO ASSESSOR PROCURADOR JUSTICA BELO HORIZONTE - COMARCA; PROC JUST ESP ACOES COMP ORIG CRIMINAL-ASSESS 0,00 0,00 7.187,72 0,00 2.395,91 0,00 0,00 1.717,00 11.300,63 751,97 1.888,80 0,00 0,00 2.640,77 8.659,86 30/11/2021
383 463800 BRUNO ALVES TEIXEIRA ANALISTA DO MP UBERLÂNDIA - COMARCA; UBERLANDIA-PJ-04PJ 10.069,62 2.013,92 0,00 0,00 0,00 0,00 0,00 8.161,55 20.245,09 1.745,64 1.973,56 0,00 0,00 3.719,20 16.525,89 30/11/2021
384 538500 BRUNO AUGUSTO DA SILVA OFICIAL DO MP SANTA LUZIA - COMARCA; SANTA LUZIA-PJ-03PJ 6.123,79 612,38 0,00 0,00 0,00 0,00 0,00 8.453,17 15.189,34 890,06 738,32 0,00 0,00 1.628,38 13.560,96 30/11/2021
385 318200 BRUNO BARROS DE SOUZA OFICIAL DO MP UBÁ - COMARCA; UBA-PJ-04PJ 10.069,62 3.020,89 0,00 0,00 0,00 0,00 0,00 14.807,51 27.898,02 1.906,76 1.827,17 0,00 0,00 3.733,93 24.164,09 30/11/2021
386 459600 BRUNO CASTELAR LUGAO MENDES OFICIAL DO MP BELO HORIZONTE - COMARCA; PROC JUST ATUACAO TRIBUNAIS SUPERIORES-GAB001 7.912,85 1.582,57 0,00 0,00 0,00 0,00 0,00 12.011,92 21.507,34 1.331,54 1.375,71 0,00 0,00 2.707,25 18.800,09 30/11/2021
387 427400 BRUNO CESAR RIBEIRO DE PAIVA ANALISTA DO MP BELO HORIZONTE - COMARCA; ASSESS JUR DO CONS SUPERIOR DO MINISTERIO PUB 14.324,23 2.864,85 0,00 0,00 0,00 0,00 0,00 15.468,26 32.657,34 2.562,53 6.952,63 0,00 0,00 9.515,16 23.142,18 30/11/2021
388 380900 BRUNO CIRILO ANTUNES OFICIAL DO MP VARGINHA - COMARCA; VARGINHA-PJ-05PJ 8.579,10 1.715,82 0,00 0,00 0,00 0,00 0,00 13.050,64 23.345,56 1.459,46 1.560,39 0,00 0,00 3.019,85 20.325,71 30/11/2021
389 329000 BRUNO DE MELO REIS ANALISTA DO MP PATROCÍNIO - COMARCA; PATROCINIO-PJ-02PJ 16.750,82 5.025,25 0,00 0,00 0,00 0,00 0,00 25.893,88 47.669,95 3.296,45 4.108,26 0,00 0,00 7.404,71 40.265,24 30/11/2021
390 697800 BRUNO GAZZOLA BEZERRA FALCAO ASSESSOR PROCURADOR JUSTICA BELO HORIZONTE - COMARCA; PROCURADOR-GERAL ADJUNTO JURIDICO- GABINETE 0,00 0,00 7.187,72 0,00 0,00 0,00 0,00 1.717,00 8.904,72 751,97 1.229,92 0,00 0,00 1.981,89 6.922,83 30/11/2021
391 378300 BRUNO HERDY LOPES DE OLIVEIRA ANALISTA DO MP GOVERNADOR VALADARES - COMARCA; GOVERNADOR VALADARES-PJ-03PJ 14.324,23 2.864,85 0,00 0,00 0,00 0,00 0,00 18.874,16 36.063,24 2.562,53 3.152,94 0,00 0,00 5.715,47 30.347,77 30/11/2021
392 529700 BRUNO JOSE BUENO DIAS OFICIAL DO MP SÃO SEBASTIÃO DO PARAÍSO - COMARCA; SAO SEBASTIAO DO PARAISO-PJ-02PJ 6.123,79 612,38 0,00 0,00 0,00 0,00 0,00 8.453,17 15.189,34 890,06 686,18 0,00 0,00 1.576,24 13.613,10 30/11/2021
393 691600 BRUNO JOSE RIBEIRO ASSESSOR PROMOTOR JUSTICA CLÁUDIO - COMARCA; CLAUDIO-PJ-UNPJ 0,00 0,00 7.187,72 0,00 0,00 0,00 0,00 1.717,00 8.904,72 751,97 1.229,92 0,00 0,00 1.981,89 6.922,83 30/11/2021
394 350100 BRUNO LAUD SERRANO DOS REIS OFICIAL DO MP UBÁ - COMARCA; UBA-PJ-02PJ 9.752,14 2.925,64 0,00 0,00 0,00 0,00 0,00 14.394,78 27.072,56 1.840,72 2.058,69 0,00 0,00 3.899,41 23.173,15 30/11/2021
395 373800 BRUNO MARTINO DE ALBUQUERQUE ANALISTA DO MP PONTE NOVA - COMARCA; PONTE NOVA-PJ-03PJ 14.324,23 2.864,85 0,00 0,00 0,00 0,00 0,00 14.732,78 31.921,86 2.562,53 3.048,67 0,00 0,00 5.611,20 26.310,66 30/11/2021
396 470400 BRUNO NOVAIS CABRAL ANALISTA DO MP MUTUM - COMARCA; MUTUM-PJ-UNPJ 10.069,62 2.013,92 0,00 0,00 0,00 0,00 0,00 9.736,51 21.820,05 1.745,64 1.869,29 0,00 0,00 3.614,93 18.205,12 30/11/2021
397 648600 BRUNO RIBEIRO E MELO ASSESSOR BELO HORIZONTE - COMARCA; DIR RELACOES INSTITUCIONAIS 0,00 0,00 8.170,49 0,00 0,00 0,00 0,00 1.717,00 9.887,49 751,97 1.500,18 0,00 0,00 2.252,15 7.635,34 30/11/2021
398 369200 BRUNO ROBERTO DIAS DE OLIVEIRA OFICIAL DO MP BELO HORIZONTE - COMARCA; BH-22PJ PES COM DEF E IDOSOS-SECRETARIA 10.069,62 2.013,92 0,00 0,00 0,00 0,00 101,50 1.717,00 13.902,04 1.745,64 4.544,31 0,00 0,00 6.289,95 7.612,09 30/11/2021
399 547700 BRUNO ROBERTO SOUZA GONCALVES ANALISTA DO MP PARACATU - COMARCA; PARACATU-PJ-03PJ 9.444,70 944,47 0,00 0,00 0,00 0,00 30,03 13.644,95 24.064,15 1.474,54 2.342,76 0,00 0,00 3.817,30 20.246,85 30/11/2021
400 546100 BRUNO SA VIEIRA ANALISTA DO MP BARBACENA - COMARCA; BARBACENA-PJ-SECRETARIA 9.444,70 944,47 0,00 0,00 3.463,06 0,00 0,00 2.486,39 16.338,62 1.474,54 2.482,37 0,00 0,00 3.956,91 12.381,71 30/11/2021
401 438200 BRUNO SALES PEREIRA ANALISTA DO MP BELO HORIZONTE - COMARCA; CENTRAL DE APOIO TECNICO-SETOR CONTABIL 12.204,02 2.440,80 0,00 0,00 0,00 0,00 0,00 2.486,39 17.131,21 2.155,45 2.513,08 0,00 0,00 4.668,53 12.462,68 30/11/2021
402 537400 BRUNO SANT'ANA CESAR ANALISTA DO MP CONTAGEM - COMARCA; CONTAGEM-PJ-21PJ 9.444,70 944,47 0,00 0,00 0,00 0,00 0,00 12.106,17 22.495,34 1.474,54 1.582,16 0,00 0,00 3.056,70 19.438,64 30/11/2021
403 405800 CAIO FERNANDO RODRIGUES DE OLIVEIRA ANALISTA DO MP BELO HORIZONTE - COMARCA; GABINETE DE PROCURADOR DE JUSTIÇA - SALA 805 14.324,23 2.864,85 0,00 0,00 0,00 0,00 144,40 1.717,00 19.050,48 1.014,93 7.247,26 0,00 0,00 8.262,19 10.788,29 30/11/2021
404 530000 CAIO GUEDES DE OLIVEIRA ANALISTA DO MP DIAMANTINA - COMARCA; DIAMANTINA-PJ-02PJ 10.069,62 1.006,96 0,00 0,00 0,00 0,00 0,00 13.562,97 24.639,55 1.584,53 1.688,82 0,00 0,00 3.273,35 21.366,20 30/11/2021
405 491400 CAIO MIRANDA JUNQUEIRA ANALISTA DO MP BUENO BRANDAO - COMARCA; BUENO BRANDAO-PJ-UNPJ 10.069,62 2.013,92 0,00 0,00 0,00 0,00 0,00 1.717,00 13.800,54 1.745,64 1.869,29 0,00 0,00 3.614,93 10.185,61 30/11/2021
406 415800 CAMILA ALVES DA SILVA ANALISTA DO MP CAETÉ - COMARCA; CAETE-PJ-01PJ 13.011,52 2.602,30 0,00 0,00 0,00 0,00 0,00 18.697,92 34.311,74 2.310,49 2.789,06 0,00 19,05 5.118,60 29.193,14 30/11/2021
407 555800 CAMILA CAROLINE ROCHA CHAVES OFICIAL DO MP SALINAS - COMARCA; SALINAS-PJ-01PJ 6.123,79 612,38 0,00 0,00 0,00 0,00 8,56 8.453,17 15.197,90 890,06 1.251,02 0,00 0,00 2.141,08 13.056,82 30/11/2021
408 445200 CAMILA CONDE ROCHA ANALISTA DO MP CONTAGEM - COMARCA; CONTAGEM-PJ-08PJ 10.069,62 2.013,92 0,00 0,00 0,00 0,00 0,00 2.409,45 14.492,99 1.745,64 1.973,56 0,00 0,00 3.719,20 10.773,79 30/11/2021
409 419900 CAMILA CUNNINGHAM PIMENTA DE PADUA ANALISTA DO MP BELO HORIZONTE - COMARCA; ASSESSORIA PSICOSSOCIAL 14.324,23 2.864,85 0,00 0,00 0,00 0,00 0,00 1.717,00 18.906,08 2.562,53 6.808,23 0,00 0,00 9.370,76 9.535,32 30/11/2021
410 507700 CAMILA ELIZABETH RODRIGUES ANALISTA DO MP BELO HORIZONTE - COMARCA; BH-02PJ FAMILIA-SECRETARIA 11.085,56 2.217,11 0,00 0,00 0,00 0,00 1.108,85 1.717,00 16.128,52 2.112,48 3.394,01 0,00 0,00 5.506,49 10.622,03 30/11/2021
411 372700 CAMILA FONSECA LIMONGE ANALISTA DO MP BETIM - COMARCA; BETIM-PJ-01PJ 14.324,23 2.864,85 0,00 0,00 0,00 0,00 0,00 2.486,39 19.675,47 2.562,53 3.152,94 0,00 0,00 5.715,47 13.960,00 30/11/2021
412 621300 CAMILA GOLFETO DE SOUSA VALENTE OFICIAL DO MP CARANGOLA - COMARCA; CARANGOLA-PJ-SECRETARIA 5.930,75 593,08 0,00 0,00 0,00 0,00 0,00 9.394,37 15.918,20 856,09 584,99 0,00 0,00 1.441,08 14.477,12 30/11/2021
413 409800 CAMILA GONCALVES COSTA RIBEIRO ANALISTA DO MP INHAPIM - COMARCA; INHAPIM-PJ-02PJ 10.069,62 2.013,92 0,00 0,00 0,00 0,00 0,00 14.569,93 26.653,47 1.745,64 1.921,43 0,00 0,00 3.667,07 22.986,40 30/11/2021
414 335000 CAMILA GONTIJO DE PAIVA ANALISTA DO MP BELO HORIZONTE - COMARCA; COORD DE CONTROLE CONSTITUCIONALIDADE 16.112,82 4.833,85 0,00 0,00 0,00 0,00 0,00 23.493,07 44.439,74 3.163,74 3.968,81 0,00 0,00 7.132,55 37.307,19 30/11/2021
415 693400 CAMILA HECKSHER MONTEIRO ASSESSOR PROCURADOR JUSTICA BELO HORIZONTE - COMARCA; GABINETE DE PROCURADOR DE JUSTIÇA - SALA 613 0,00 0,00 7.187,72 0,00 0,00 0,00 0,00 1.717,00 8.904,72 751,97 1.229,92 0,00 0,00 1.981,89 6.922,83 30/11/2021
416 696000 CAMILA IMACULADA OLIVEIRA ASSESSOR PROCURADOR JUSTICA BELO HORIZONTE - COMARCA; GABINETE DE PROCURADOR DE JUSTIÇA - SALA 816 0,00 0,00 7.187,72 0,00 0,00 0,00 0,00 1.717,00 8.904,72 751,97 1.229,92 0,00 0,00 1.981,89 6.922,83 30/11/2021
417 547800 CAMILA MATTARELLI DE ABREU E SILVA ANALISTA DO MP BELO HORIZONTE - COMARCA; CAO-VIOLENCIA DOMESTICA E FAMILIAR 9.444,70 944,47 0,00 0,00 0,00 0,00 0,00 12.106,17 22.495,34 1.474,54 2.372,79 0,00 0,00 3.847,33 18.648,01 30/11/2021
418 430000 CANDIDA MARINA COSTA ANALISTA DO MP BELO HORIZONTE - COMARCA; DIVISAO DE DOCUMENTACAO JURIDICA 13.011,52 2.602,30 0,00 0,00 0,00 0,00 0,00 1.717,00 17.330,82 2.310,49 2.789,06 0,00 0,00 5.099,55 12.231,27 30/11/2021
419 614300 CARINA CORTIELHA OFICIAL DO MP BELO HORIZONTE - COMARCA; BH-23PJ CIVEL-SEC EXP CIVEIS 5.387,19 538,72 0,00 0,00 0,00 0,00 41,62 1.717,00 7.684,53 762,96 1.623,17 0,00 0,00 2.386,13 5.298,40 30/11/2021
420 380400 CARINA DIAS FACANHA DE SOUZA ANALISTA DO MP SANTA RITA DO SAPUCAÍ - COMARCA; SANTA RITA DO SAPUCAI-PJ-SECRETARIA 14.324,23 2.864,85 0,00 0,00 0,00 0,00 0,00 1.717,00 18.906,08 2.562,53 3.152,94 0,00 0,00 5.715,47 13.190,61 30/11/2021
421 698300 CARINA ESTEPHANY FAVATO FERREIRA JUSTE ASSESSOR PROCURADOR JUSTICA BELO HORIZONTE - COMARCA; PROC. JUSTICA DIR. DIFUSOS E COLETIVOS-SEC 0,00 0,00 7.187,72 0,00 0,00 0,00 0,00 1.717,00 8.904,72 751,97 1.229,92 0,00 0,00 1.981,89 6.922,83 30/11/2021
422 255000 CARLA ADRIANA DE MENEZES OFICIAL DO MP BELO HORIZONTE - COMARCA; CENT DE APOIO TEC-SETOR DEF,IDOSO E INFANC 10.069,62 3.020,89 0,00 0,00 0,00 0,00 0,00 1.717,00 14.807,51 1.906,76 2.206,17 0,00 0,00 4.112,93 10.694,58 30/11/2021
423 425100 CARLA ADRIANA DINIZ AMARAL OFICIAL DO MP CONTAGEM - COMARCA; CONTAGEM-PJ-SECRETARIA 8.858,43 1.771,69 0,00 0,00 0,00 0,00 30,73 7.032,06 17.692,91 1.513,10 2.416,19 0,00 0,00 3.929,29 13.763,62 30/11/2021
424 508100 CARLA ALESSANDRA FONSECA ANALISTA DO MP BELO HORIZONTE - COMARCA; CAO-ORDEM ECONOMICA E TRIBUTARIA-SECRETARIA 10.069,62 2.013,92 0,00 0,00 0,00 0,00 1.006,96 13.800,54 26.891,04 1.906,76 2.206,17 0,00 0,00 4.112,93 22.778,11 30/11/2021
425 607100 CARLA ANGELICA DIAS MIRANDA OFICIAL DO MP JABOTICATUBAS - COMARCA; JABOTICATUBAS-PJ-UNPJ 5.930,75 593,08 0,00 0,00 0,00 0,00 0,00 8.453,17 14.977,00 856,09 532,86 0,00 0,00 1.388,95 13.588,05 30/11/2021
426 351500 CARLA APARECIDA MENDES RAMIRIO OFICIAL DO MP PASSOS - COMARCA; PASSOS-PJ-01PJ 9.146,93 2.744,08 0,00 0,00 0,00 0,00 0,00 1.717,00 13.608,01 1.714,84 1.876,95 0,00 0,00 3.591,79 10.016,22 30/11/2021
427 713100 CARLA DOS SANTOS SOUZA ASSESSOR PROMOTOR JUSTICA ESPERA FELIZ - COMARCA; ESPERA FELIZ-PJ-UNPJ 0,00 0,00 7.187,72 0,00 0,00 0,00 2.875,09 2.780,55 12.843,36 751,97 2.170,32 0,00 0,00 2.922,29 9.921,07 30/11/2021
428 442800 CARLA GONCALVES COSTA SOALHEIRO ANALISTA DO MP GOVERNADOR VALADARES - COMARCA; GOVERNADOR VALADARES-PJ-11PJ 10.069,62 2.013,92 0,00 0,00 0,00 0,00 0,00 13.800,54 25.884,08 1.745,64 1.921,43 0,00 0,00 3.667,07 22.217,01 30/11/2021
429 321500 CARLA GONCALVES MASSOTE OFICIAL DO MP CAMPO BELO - COMARCA; CAMPO BELO-PJ-02PJ 10.069,62 3.020,89 0,00 0,00 0,00 0,00 0,00 1.717,00 14.807,51 1.906,76 2.206,17 0,00 0,00 4.112,93 10.694,58 30/11/2021
430 429200 CARLA HAUTEQUESTT BECHARA COORDENADOR/ANALISTA BELO HORIZONTE - COMARCA; DIRET DE INFORMACAO E CONHECIMENTO-DINC/CEAF 13.011,52 2.602,30 2.687,03 0,00 0,00 0,00 0,00 1.717,00 20.017,85 2.310,49 3.527,99 0,00 0,00 5.838,48 14.179,37 30/11/2021
431 247500 CARLA MATILDE GUIMARAES DE OLIVEIRA OFICIAL DO MP ITAJUBA - COMARCA; ITAJUBA-PJ-SECRETARIA 10.069,62 4.027,85 0,00 0,00 0,00 0,00 0,00 15.814,47 29.911,94 2.067,87 2.386,64 0,00 0,00 4.454,51 25.457,43 30/11/2021
432 226100 CARLA MERLI DA CONCEICAO ANALISTA DO MP BELO HORIZONTE - COMARCA; CENTRAL DE APOIO TECNICO-SETOR CONTABIL 18.820,14 5.646,04 0,00 0,00 0,00 0,00 0,00 26.183,18 50.649,36 3.726,87 4.781,81 0,00 0,00 8.508,68 42.140,68 30/11/2021
433 181401 CARLO MICHEL GAUDENSI COELHO ANALISTA DO MP BELO HORIZONTE - COMARCA; BH-08PJ JUIZADO ESPECIAL-SECRETARIA 13.011,52 5.204,61 0,00 0,00 6.072,04 0,00 52,65 19.933,13 44.273,95 2.726,86 6.392,66 0,00 0,00 9.119,52 35.154,43 30/11/2021
434 634000 CARLOS ALBERTO AMORMINO TRIGUEIRO ANALISTA DO MP BELO HORIZONTE - COMARCA; DIRET DE APOIO AS PROCURADORIAS DE JUSTICA 8.436,53 843,65 0,00 0,00 0,00 0,00 0,00 11.766,57 21.046,75 1.297,11 1.273,85 0,00 0,00 2.570,96 18.475,79 30/11/2021
435 637900 CARLOS ALBERTO DE MOURA OFICIAL DO MP SETE LAGOAS - COMARCA; SETE LAGOAS-PJ-07PJ 5.387,19 538,72 0,00 0,00 0,00 0,00 0,00 7.642,91 13.568,82 783,51 952,51 0,00 0,00 1.736,02 11.832,80 30/11/2021
436 638700 CARLOS ALBERTO FERREIRA BRAGA ANALISTA DO MP VESPASIANO - COMARCA; VESPASIANO-PJ-06PJ 8.436,53 843,65 0,00 0,00 0,00 0,00 26,83 10.997,18 20.304,19 873,84 2.178,55 0,00 0,00 3.052,39 17.251,80 30/11/2021
437 375801 CARLOS ALBERTO ROCHA ANALISTA DO MP VARGINHA - COMARCA; GAECO REGIONAL DE VARGINHA 10.069,62 1.006,96 0,00 0,00 0,00 0,00 0,00 12.793,58 23.870,16 1.584,53 1.740,95 0,00 0,00 3.325,48 20.544,68 30/11/2021
438 462800 CARLOS ANDREI SOARES FAGUNDES ANALISTA DO MP MONTES CLAROS - COMARCA; MONTES CLAROS-PJ-09PJ 10.069,62 2.013,92 0,00 0,00 0,00 0,00 0,00 1.717,00 13.800,54 1.745,64 1.921,43 0,00 0,00 3.667,07 10.133,47 30/11/2021
439 370300 CARLOS AUGUSTO BUENO DIAS ASSESSOR BELO HORIZONTE - COMARCA; SUPERINTENDÊNCIA DE ENGENHARIA E ARQUITETURA 0,00 0,00 10.397,52 0,00 0,00 0,00 0,00 1.717,00 12.114,52 751,97 1.463,97 0,00 0,00 2.215,94 9.898,58 30/11/2021
440 701800 CARLOS AUGUSTO GOMES DE MORAES SALLES ASSESSOR PROCURADOR JUSTICA BELO HORIZONTE - COMARCA; PROC JUST ATUACAO TRIBUNAIS SUPERIORES-GAB004 0,00 0,00 7.187,72 0,00 0,00 0,00 0,00 1.717,00 8.904,72 751,97 1.229,92 0,00 0,00 1.981,89 6.922,83 30/11/2021
441 505100 CARLOS CEZAR CARVALHO ANALISTA DO MP CONTAGEM - COMARCA; CONTAGEM-PJ-02PJ 10.069,62 4.027,85 0,00 0,00 4.699,16 0,00 0,00 15.814,47 34.611,10 2.067,87 3.626,77 0,00 0,00 5.694,64 28.916,46 30/11/2021
442 195900 CARLOS DE SOUZA FERREIRA OFICIAL DO MP COROMANDEL - COMARCA; COROMANDEL-PJ-01PJ 10.069,62 8.055,69 0,00 0,00 0,00 2.712,33 0,00 19.842,31 40.679,95 2.712,33 4.115,10 0,00 0,00 6.827,43 33.852,52 30/11/2021
443 196800 CARLOS EDUARDO DE OLIVEIRA MARINHO OFICIAL DO MP ALPINÓPOLIS - COMARCA; ALPINOPOLIS-PJ-UNPJ 15.272,02 10.690,41 0,00 0,00 0,00 0,00 0,00 30.193,39 56.155,82 3.966,27 5.127,45 0,00 0,00 9.093,72 47.062,10 30/11/2021
444 650800 CARLOS EDUARDO NIZA DA SILVA OFICIAL DO MP IGARAPÉ - COMARCA; IGARAPE-PJ-01PJ 4.376,03 262,56 0,00 0,00 1.546,20 0,00 0,00 2.486,39 8.671,18 570,31 570,35 0,00 0,00 1.140,66 7.530,52 30/11/2021
445 491800 CARLOS EDUARDO ROMAN OFICIAL DO MP BARBACENA - COMARCA; BARBACENA-PJ-09PJ 7.663,37 1.532,67 0,00 0,00 0,00 0,00 0,00 11.212,42 20.408,46 1.283,64 1.306,55 0,00 0,00 2.590,19 17.818,27 30/11/2021
446 299300 CARLOS HENRIQUE BICALHO ANALISTA DO MP BELO HORIZONTE - COMARCA; BH-17PJ PATRIMONIO PUBLICO-SECRETARIA 18.103,37 7.241,35 0,00 0,00 0,00 0,00 0,00 27.831,11 53.175,83 3.867,43 5.036,89 0,00 0,00 8.904,32 44.271,51 30/11/2021
447 205100 CARLOS HENRIQUE ESTEVES OFICIAL DO MP ITAMBACURI - COMARCA; ITAMBACURI-PJ-01PJ 16.750,82 6.700,33 0,00 0,00 0,00 0,00 189,78 1.717,00 25.357,93 3.564,46 9.349,71 0,00 0,00 12.914,17 12.443,76 30/11/2021
448 351600 CARLOS HENRIQUE FELICIO DA FONSECA OFICIAL DO MP JUIZ DE FORA - COMARCA; JUIZ DE FORA-PJ-21PJ 9.752,14 2.925,64 0,00 0,00 0,00 0,00 0,00 1.717,00 14.394,78 1.840,72 2.058,69 0,00 0,00 3.899,41 10.495,37 30/11/2021
449 85400 CARLOS JOSE VIEIRA OFICIAL DO MP BELO HORIZONTE - COMARCA; DIRETORIA DO COLEGIO E DA CAMARA DE PJ 23.757,25 19.005,81 0,00 0,00 0,00 0,00 0,00 37.179,22 79.942,28 5.486,23 7.374,04 7.300,84 0,00 20.161,11 59.781,17 30/11/2021
450 229100 CARLOS MERCES DE OLIVEIRA ANALISTA DO MP BELO HORIZONTE - COMARCA; CENTRAL DE APOIO TECN-SETOR DE MEIO AMBIENTE 18.820,14 7.528,06 0,00 0,00 0,00 0,00 0,00 1.717,00 28.065,20 4.027,99 4.124,54 0,00 0,00 8.152,53 19.912,67 30/11/2021
451 538300 CARLOS RANGEL SILVA DE MELO ANALISTA DO MP BELO HORIZONTE - COMARCA; DIVISAO DE CONTROLE IMOBILIARIO 9.444,70 2.833,41 0,00 0,00 0,00 0,00 0,00 14.764,50 27.042,61 1.776,77 2.018,51 0,00 0,00 3.795,28 23.247,33 30/11/2021
452 265100 CARLOS REIFF MIRANDA ANALISTA DO MP BELO HORIZONTE - COMARCA; BH-19PJ SAUDE-SECRETARIA 150PJ 18.820,14 5.646,04 0,00 0,00 0,00 0,00 0,00 1.717,00 26.183,18 3.726,87 4.833,95 0,00 0,00 8.560,82 17.622,36 30/11/2021
453 305400 CARLOS ROCHA DE SOUZA OFICIAL DO MP MONTALVÂNIA - COMARCA; MONTALVANIA-PJ-SECRETARIA 6.123,79 1.837,14 0,00 0,00 0,00 0,00 0,00 11.116,79 19.077,72 1.086,03 812,69 0,00 0,00 1.898,72 17.179,00 30/11/2021
454 399900 CARMELITA EVANGELISTA DE SOUZA OFICIAL DO MP JOÃO PINHEIRO - COMARCA; JOAO PINHEIRO-PJ-01PJ 7.912,85 1.582,57 0,00 0,00 0,00 0,00 0,00 1.717,00 11.212,42 1.331,54 1.375,71 0,00 0,00 2.707,25 8.505,17 30/11/2021
455 202000 CARMEN LUCIA MARIZ DE MACEDO OFICIAL DO MP BELO HORIZONTE - COMARCA; DIRETORIA GESTAO COMPRAS LICITACOES 15.272,02 10.690,41 0,00 0,00 0,00 0,00 75,01 27.679,43 53.716,87 3.966,27 7.048,52 0,00 0,00 11.014,79 42.702,08 30/11/2021
456 701900 CAROLINA CARVALHO COSTA ASSESSOR PROCURADOR JUSTICA BELO HORIZONTE - COMARCA; GABINETE DE PROCURADOR DE JUSTIÇA - SALA 811 0,00 0,00 7.187,72 0,00 0,00 0,00 0,00 1.717,00 8.904,72 751,97 1.229,92 0,00 0,00 1.981,89 6.922,83 30/11/2021
457 228500 CAROLINA CHIARELLA DOS SANTOS RIBEIRO COORDENADOR/OFICIAL BELO HORIZONTE - COMARCA; DIVISAO TRANSPORTES 0,00 3.545,75 11.819,15 0,00 0,00 0,00 616,56 4.892,42 20.873,88 1.567,08 2.974,83 0,00 0,00 4.541,91 16.331,97 30/11/2021
458 446500 CAROLINA COSTA VAL RODRIGUES ANALISTA DO MP BELO HORIZONTE - COMARCA; SUPERINTENDENCIA LOGISTICA SERVICOS 13.011,52 2.602,30 0,00 0,00 0,00 0,00 45,12 19.694,65 35.353,59 2.310,49 3.976,45 0,00 0,00 6.286,94 29.066,65 30/11/2021
459 603501 CAROLINA DOMINGOS BRANDAO RABELLO ANALISTA DO MP BARROSO - COMARCA; BARROSO-PJ-01PJ 9.146,93 914,69 0,00 0,00 0,00 0,00 0,00 1.717,00 11.778,62 1.422,14 1.506,50 0,00 0,00 2.928,64 8.849,98 30/11/2021
460 404300 CAROLINA DOS SANTOS VIEIRA ANALISTA DO MP BELO HORIZONTE - COMARCA; BH-08PJ JUIZADO ESPECIAL-SECRETARIA 14.324,23 2.864,85 0,00 0,00 0,00 0,00 0,00 19.465,79 36.654,87 2.562,53 3.048,67 0,00 0,00 5.611,20 31.043,67 30/11/2021
461 551200 CAROLINA LOPES ARANTES MASCARENHAS ANALISTA DO MP BELO HORIZONTE - COMARCA; EXTINTA-COORD EST DEF DIR FAM PES DEFIC IDOSO 9.444,70 944,47 0,00 0,00 0,00 0,00 0,00 2.486,39 12.875,56 1.474,54 2.238,49 0,00 0,00 3.713,03 9.162,53 30/11/2021
462 622600 CAROLINA LOREDO LOPES CATIZANI OFICIAL DO MP RIBEIRÃO DAS NEVES - COMARCA; RIBEIRAO DAS NEVES-PJ-12PJ 5.387,19 538,72 0,00 0,00 0,00 0,00 0,00 7.642,91 13.568,82 762,96 550,45 0,00 0,00 1.313,41 12.255,41 30/11/2021
463 382200 CAROLINA MENDES CHAVES LIN ANALISTA DO MP BELO HORIZONTE - COMARCA; BH-12PJ JUIZO CRIMINAL-GAB 088PJ 10.069,62 2.013,92 0,00 0,00 0,00 0,00 0,00 12.556,01 24.639,55 1.745,64 1.921,43 0,00 0,00 3.667,07 20.972,48 30/11/2021
464 461900 CAROLINA MURTA TEIXEIRA DIAS ANALISTA DO MP BELO HORIZONTE - COMARCA; CENTRO AUTOCOMPOSICAO DE CONFLITOS 10.069,62 2.013,92 0,00 0,00 0,00 0,00 0,00 15.578,43 27.661,97 1.745,64 1.973,56 0,00 0,00 3.719,20 23.942,77 30/11/2021
465 509600 CAROLINA PINTO DE OLIVEIRA SOUZA ANALISTA DO MP MURIAÉ - COMARCA; MURIAE-PJ-01PJ 10.069,62 2.013,92 0,00 0,00 0,00 0,00 1.006,96 14.569,93 27.660,43 1.906,76 2.101,89 0,00 0,00 4.008,65 23.651,78 30/11/2021
466 629100 CAROLINA RODRIGUES AMARAL ANALISTA DO MP BELO HORIZONTE - COMARCA; PROC. JUSTICA DIR. DIFUSOS E COLETIVOS-SEC 9.146,93 914,69 0,00 0,00 0,00 0,00 0,00 11.778,62 21.840,24 1.422,14 1.506,50 0,00 0,00 2.928,64 18.911,60 30/11/2021
467 502600 CAROLINA RODRIGUES RUBEN ANALISTA DO MP BELO HORIZONTE - COMARCA; BH-18PJ VIOLENCIA DOMESTICA-GAB 007PJ 10.069,62 2.013,92 0,00 0,00 0,00 0,00 0,00 3.255,78 15.339,32 1.745,64 1.869,29 0,00 0,00 3.614,93 11.724,39 30/11/2021
468 529600 CAROLINA VAZ DE MELO MAMBRINI ANALISTA DO MP BELO HORIZONTE - COMARCA; BH-14PJ DEFESA CONSUMIDOR-GAB 005PJ 9.444,70 944,47 0,00 0,00 0,00 0,00 0,00 1.717,00 12.106,17 1.474,54 1.582,16 0,00 0,00 3.056,70 9.049,47 30/11/2021
469 619100 CAROLINA ZAKHIA NARDELLI RODRIGUES ANALISTA DO MP NEPOMUCENO - COMARCA; NEPOMUCENO-PJ-UNPJ 9.146,93 914,69 0,00 0,00 0,00 0,00 85,96 12.548,01 22.695,59 1.422,14 3.392,71 0,00 0,00 4.814,85 17.880,74 30/11/2021
470 517600 CAROLINE ALVES DE OLIVEIRA MULLER ANALISTA DO MP VISCONDE DO RIO BRANCO - COMARCA; VISCONDE DO RIO BRANCO-PJ-01PJ 10.069,62 1.006,96 0,00 0,00 0,00 0,00 0,00 1.717,00 12.793,58 1.584,53 1.688,82 0,00 0,00 3.273,35 9.520,23 30/11/2021
471 373200 CAROLINE ANTUNES RIBEIRO OFICIAL DO MP JACUI - COMARCA; JACUI-PJ-UNPJ 9.146,93 1.829,39 0,00 0,00 0,00 0,00 31,74 12.693,32 23.701,38 1.568,49 2.417,43 0,00 0,00 3.985,92 19.715,46 30/11/2021
472 556800 CAROLINE DE SOUZA CARDOSO DOMINGUES OFICIAL DO MP BRASÍLIA DE MINAS - COMARCA; BRASILIA DE MINAS-PJ-02PJ 6.123,79 612,38 0,00 0,00 0,00 0,00 19,46 8.453,17 15.208,80 890,06 1.251,02 0,00 0,00 2.141,08 13.067,72 30/11/2021
473 499400 CAROLINE MARQUES DE LOURDES MARZULLO OFICIAL DO MP JUIZ DE FORA - COMARCA; JUIZ DE FORA-PJ-08PJ 7.663,37 1.532,67 0,00 0,00 0,00 0,00 0,00 2.870,54 12.066,58 1.283,64 1.306,55 0,00 0,00 2.590,19 9.476,39 30/11/2021
474 616800 CAROLINE MONTEIRO DE BARROS ANALISTA DO MP CONTAGEM - COMARCA; CONTAGEM-PJ-11PJ 9.146,93 914,69 0,00 0,00 0,00 0,00 0,00 11.778,62 21.840,24 1.422,14 3.392,71 0,00 0,00 4.814,85 17.025,39 30/11/2021
475 618100 CAROLINE VASCONCELOS COSTA LANZA ANALISTA DO MP PARAOPEBA - COMARCA; PARAOPEBA-PJ-UNPJ 9.146,93 914,69 0,00 0,00 3.353,87 0,00 71,63 14.086,79 27.573,91 1.422,14 4.243,39 0,00 0,00 5.665,53 21.908,38 30/11/2021
476 699000 CAROLLINA RODRIGUES SOUTO AMARAL ASSESSOR PROCURADOR JUSTICA BELO HORIZONTE - COMARCA; GABINETE DE PROCURADOR DE JUSTIÇA - SALA 405 0,00 0,00 7.187,72 0,00 0,00 0,00 0,00 1.717,00 8.904,72 751,97 1.229,92 0,00 0,00 1.981,89 6.922,83 30/11/2021
477 604000 CASSIA APARECIDA DA SILVA OFICIAL DO MP PARACATU - COMARCA; PARACATU-PJ-01PJ 5.930,75 593,08 0,00 0,00 0,00 0,00 0,00 1.717,00 8.240,83 856,09 689,27 0,00 0,00 1.545,36 6.695,47 30/11/2021
478 268800 CASSIA BEATRIZ TEIXEIRA OFICIAL DO MP BELO HORIZONTE - COMARCA; PROC JUST ESP ACOES COMP ORIG CRIMINAL-SEC 12.601,30 3.780,39 0,00 0,00 0,00 0,00 0,00 18.631,98 35.013,67 2.433,35 2.966,43 0,00 0,00 5.399,78 29.613,89 30/11/2021
479 500000 CASSIA DE OLIVEIRA COSTA VIANA ANALISTA DO MP SETE LAGOAS - COMARCA; SETE LAGOAS-PJ-09PJ 10.069,62 5.034,81 0,00 0,00 0,00 0,00 0,00 16.821,43 31.925,86 2.228,99 2.671,39 0,00 0,00 4.900,38 27.025,48 30/11/2021
480 368800 CASSIA LUISA BATISTA MENDONCA WEBER OFICIAL DO MP BELO HORIZONTE - COMARCA; DIVISÃO DE EDUCAÇÃO PARA O CONSUMO 8.436,53 1.687,31 0,00 0,00 0,00 0,00 0,00 1.717,00 11.840,84 1.432,09 3.530,70 0,00 0,00 4.962,79 6.878,05 30/11/2021
481 622200 CASSIA VAZ DE AZEVEDO LISBOA MARZANO ASSESSOR BELO HORIZONTE - COMARCA; CGMP-SECRETARIA DA CORREGEDORIA-GERAL DO MP 0,00 0,00 3.076,28 0,00 0,00 0,00 0,00 2.486,39 5.562,67 449,69 133,57 0,00 0,00 583,26 4.979,41 30/11/2021
482 121000 CASSIO HENRIQUE AFONSO DA SILVA OFICIAL DO MP BELO HORIZONTE - COMARCA; CGMP-ASSESSORIA JURIDICA 18.820,14 13.174,10 0,00 0,00 0,00 0,00 0,00 1.717,00 33.711,24 4.931,36 6.468,66 0,00 0,00 11.400,02 22.311,22 30/11/2021
483 512001 CATARINA NATALINO CALIXTO COORDENADOR/ANALISTA BELO HORIZONTE - COMARCA; DIRETORIA GESTAO TRANSPORTES 0,00 1.343,52 13.435,16 0,00 0,00 0,00 0,00 1.717,00 16.495,68 1.297,11 2.838,07 0,00 0,00 4.135,18 12.360,50 30/11/2021
484 606200 CATARINE DE SIQUEIRA DE QUADROS ANALISTA DO MP CONTAGEM - COMARCA; CONTAGEM-PJ-07PJ 9.146,93 914,69 0,00 0,00 0,00 0,00 0,00 12.875,56 22.937,18 1.422,14 1.402,22 0,00 0,00 2.824,36 20.112,82 30/11/2021
485 622300 CECILIA APARECIDA PEREIRA ASSUNCAO OFICIAL DO MP TRÊS PONTAS - COMARCA; TRES PONTAS-PJ-SECRETARIA 5.930,75 593,08 0,00 0,00 0,00 0,00 0,00 3.255,78 9.779,61 856,09 637,13 0,00 0,00 1.493,22 8.286,39 30/11/2021
486 538000 CECILIA FONTES DE MATOS PIMENTEL ANALISTA DO MP PALMA - COMARCA; PALMA-PJ-UNPJ 9.444,70 944,47 0,00 0,00 0,00 0,00 0,00 10.105,11 20.494,28 1.474,54 1.582,16 0,00 0,00 3.056,70 17.437,58 30/11/2021
487 261300 CECILIO ANTONIO CAMPOS DOS REIS ANALISTA DO MP BELO HORIZONTE - COMARCA; AUDITORIA INTERNA 18.820,14 5.646,04 0,00 0,00 0,00 0,00 1.625,30 26.183,18 52.274,66 3.726,87 5.280,91 0,00 0,00 9.007,78 43.266,88 30/11/2021
488 386400 CEFAS AMORELI DE FIGUEIREDO OFICIAL DO MP CABO VERDE - COMARCA; CABO VERDE-PJ-SECRETARIA 6.123,79 1.224,76 0,00 0,00 0,00 0,00 0,00 9.065,55 16.414,10 988,05 879,78 0,00 0,00 1.867,83 14.546,27 30/11/2021
489 149000 CELIA MAGALHAES CLAROS SOSSI OFICIAL DO MP GOVERNADOR VALADARES - COMARCA; GAECO REGIONAL DE GOVERNADOR VALADARES 17.413,92 12.189,74 0,00 124,00 0,00 9.069,16 103,33 6.650,94 45.551,09 4.548,86 10.960,11 0,00 0,00 15.508,97 30.042,12 30/11/2021
490 421000 CELINA BENEDITA DE SOUZA ALMEIDA OFICIAL DO MP CAMBUÍ - COMARCA; CAMBUI-PJ-01PJ 8.858,43 4.429,21 0,00 0,00 0,00 0,00 38,41 15.004,64 28.330,69 1.938,30 3.172,16 0,00 0,00 5.110,46 23.220,23 30/11/2021
491 252900 CELIO DE MELO CASTOR ANALISTA DO MP BELO HORIZONTE - COMARCA; SUPER DE GESTAO DE PESSOAS-LOTACAO TEMPORARIA 18.820,14 5.646,04 0,00 0,00 0,00 0,00 0,00 1.717,00 26.183,18 3.726,87 4.833,95 0,00 0,00 8.560,82 17.622,36 30/11/2021
492 395700 CELIO FERREIRA LIMA OFICIAL DO MP CONTAGEM - COMARCA; CONTAGEM-PJ-SECRETARIA 8.579,10 1.715,82 0,00 0,00 0,00 0,00 0,00 13.050,64 23.345,56 1.459,46 1.508,25 0,00 0,00 2.967,71 20.377,85 30/11/2021
493 281300 CELMA REGINA PEREIRA SANTOS ANALISTA DO MP BELO HORIZONTE - COMARCA; PROMOT ESTADUAL DE DEF PATRI CULT E TUR DE MG 18.820,14 5.646,04 0,00 0,00 0,00 0,00 0,00 1.717,00 26.183,18 3.726,87 4.833,95 0,00 0,00 8.560,82 17.622,36 30/11/2021
494 535600 CELSO MEDEIROS DE PAIVA OFICIAL DO MP RIO PRETO - COMARCA; RIO PRETO-PJ-SECRETARIA 5.562,64 556,26 0,00 0,00 0,00 0,00 0,00 7.835,90 13.954,80 792,88 543,16 0,00 0,00 1.336,04 12.618,76 30/11/2021
495 367000 CESAR NARVAES DE AVELAR OFICIAL DO MP BELO HORIZONTE - COMARCA; DIVISAO DE MEMORIA INSTITUCIONAL 10.069,62 3.020,89 0,00 0,00 0,00 0,00 1.006,96 15.899,98 29.997,45 2.067,87 2.792,84 0,00 0,00 4.860,71 25.136,74 30/11/2021
496 226500 CESAR SILVEIRA BARROUIN OFICIAL DO MP BELO HORIZONTE - COMARCA; DIRETORIA DE ADMINISTRACAO FINANCEIRA 13.011,52 5.204,61 0,00 0,00 0,00 0,00 52,65 19.933,13 38.201,91 2.726,86 4.722,84 0,00 0,00 7.449,70 30.752,21 30/11/2021
497 121400 CEZAR MORENO CONCEICAO TAVARES OFICIAL DO MP BELO HORIZONTE - COMARCA; COORD DE INCLUSAO E MOBILIZACAO SOCIAIS 16.750,82 11.725,57 0,00 0,00 0,00 0,00 0,00 32.090,05 60.566,44 4.368,50 5.656,04 0,00 0,00 10.024,54 50.541,90 30/11/2021
498 243800 CHARLES MARTINS MUNIZ OFICIAL DO MP BELO HORIZONTE - COMARCA; LAB TECNOLOGIA CONTRA LAVAGEM DINHEIRO 13.011,52 5.204,61 0,00 0,00 0,00 0,00 52,65 16.378,11 34.646,89 2.726,86 4.775,49 0,00 0,00 7.502,35 27.144,54 30/11/2021
499 193500 CHARLIN CESAR KOURLY OFICIAL DO MP ARAGUARI - COMARCA; ARAGUARI-PJ-07PJ 15.272,02 6.108,81 0,00 0,00 0,00 0,00 0,00 1.717,00 23.097,83 3.233,21 4.121,24 0,00 0,00 7.354,45 15.743,38 30/11/2021
500 385500 CHILLEN PEIXOTO DE MOURA OFICIAL DO MP BELO HORIZONTE - COMARCA; DIVISAO DE MATERIAIS 8.579,10 1.715,82 0,00 0,00 0,00 0,00 0,00 2.486,39 12.781,31 1.459,46 1.560,39 0,00 0,00 3.019,85 9.761,46 30/11/2021
501 534500 CHRISTIAN DOUGLAS BRITO RUAS OFICIAL DO MP SÃO JOÃO DA PONTE - COMARCA; SAO JOAO DA PONTE-PJ-SECRETARIA 6.123,79 612,38 0,00 0,00 0,00 0,00 0,00 8.453,17 15.189,34 890,06 738,32 0,00 0,00 1.628,38 13.560,96 30/11/2021
502 370600 CHRISTIAN KARINE FELIX PRATES ASSESSOR BELO HORIZONTE - COMARCA; SUPRIN DE PLANEJAMENTO E COORDENACAO 0,00 0,00 10.397,52 0,00 0,00 0,00 0,00 1.717,00 12.114,52 751,97 2.112,62 0,00 0,00 2.864,59 9.249,93 30/11/2021
503 435800 CHRISTIANA BAHIA ANDRADE PINA ANALISTA DO MP BELO HORIZONTE - COMARCA; LABORATORIO TECNOLOGIA INTELIGENCIA 13.011,52 2.602,30 0,00 0,00 0,00 0,00 0,00 2.486,39 18.100,21 2.310,49 2.789,06 0,00 0,00 5.099,55 13.000,66 30/11/2021
504 516800 CHRISTIANE FERREIRA DO NASCIMENTO ANALISTA DO MP POUSO ALEGRE - COMARCA; POUSO ALEGRE-PJ-08PJ 10.069,62 1.006,96 0,00 0,00 0,00 0,00 0,00 12.793,58 23.870,16 1.584,53 1.740,95 0,00 0,00 3.325,48 20.544,68 30/11/2021
505 176000 CHRISTIANE JUNQUEIRA PULITI ANDRADE DE BARROS ASSESSOR BELO HORIZONTE - COMARCA; PROCURADORIA-GERAL ADJUNTA INSTITUCIONAL 0,00 13.931,13 17.413,92 0,00 0,00 4.827,49 0,00 33.062,05 69.234,59 4.827,49 7.750,53 0,00 0,00 12.578,02 56.656,57 30/11/2021
506 319200 CHRISTIANE MARIA DE ASSIS RUSSO OFICIAL DO MP BELO HORIZONTE - COMARCA; CAO-ORDEM ECONOMICA E TRIBUTARIA-SECRETARIA 11.085,56 3.325,67 0,00 0,00 0,00 0,00 0,00 2.486,39 16.897,62 2.118,07 2.459,12 0,00 0,00 4.577,19 12.320,43 30/11/2021
507 510300 CHRISTIANE MARY DE CARVALHO FERREIRA ANALISTA DO MP BELO HORIZONTE - COMARCA; DIRETORIA DE SISTEMAS DE INFORMACAO 10.069,62 2.013,92 0,00 0,00 0,00 0,00 1.006,96 13.800,54 26.891,04 1.906,76 2.154,03 0,00 0,00 4.060,79 22.830,25 30/11/2021
508 424900 CHRISTIANE PEREIRA TURNER DE ARAUJO OFICIAL DO MP BELO HORIZONTE - COMARCA; CAO-PATRIMONIO PUBLICO 8.579,10 1.715,82 0,00 0,00 0,00 0,00 0,00 2.486,39 12.781,31 1.459,46 1.456,12 0,00 0,00 2.915,58 9.865,73 30/11/2021
509 513700 CHRISTIANE VIEIRA SOARES PEDERSOLI COORDENADOR/ANALISTA BELO HORIZONTE - COMARCA; ASSESSORIA JURIDICA DO PROCON-MG 10.069,62 1.006,96 2.363,83 0,00 0,00 0,00 0,00 16.164,37 29.604,78 1.584,53 2.391,01 0,00 0,00 3.975,54 25.629,24 30/11/2021
510 412300 CHRYSTIAN MACHADO RIBEIRO ANALISTA DO MP VARGINHA - COMARCA; VARGINHA-PJ-04PJ 14.324,23 2.864,85 0,00 0,00 0,00 0,00 144,40 18.906,08 36.239,56 2.562,53 6.808,23 0,00 0,00 9.370,76 26.868,80 30/11/2021
511 513800 CHRYSTIANE DO NASCIMENTO DE MAGALHAES OFICIAL DO MP UBERLÂNDIA - COMARCA; UBERLANDIA-PJ-10PJ 7.663,37 766,34 0,00 0,00 0,00 0,00 24,36 8.460,76 16.914,83 1.161,03 1.666,82 0,00 0,00 2.827,85 14.086,98 30/11/2021
512 497900 CIBELE DE FREITAS SANCHES DIAS ANALISTA DO MP SABARÁ - COMARCA; SABARA-PJ-03PJ 10.069,62 2.013,92 0,00 0,00 0,00 0,00 0,00 13.800,54 25.884,08 1.745,64 1.921,43 0,00 0,00 3.667,07 22.217,01 30/11/2021
513 500900 CIBELLE SILVA PRADO ALVARENGA ANALISTA DO MP ITANHANDU - COMARCA; ITANHANDU-PJ-UNPJ 10.069,62 2.013,92 0,00 0,00 0,00 0,00 0,00 15.339,32 27.422,86 1.745,64 1.973,56 0,00 0,00 3.719,20 23.703,66 30/11/2021
514 705300 CICERO HELENO PEREIRA SILVA ASSESSOR PROMOTOR JUSTICA CORINTO - COMARCA; CORINTO-PJ-UNPJ 0,00 0,00 7.187,72 0,00 0,00 0,00 0,00 1.717,00 8.904,72 751,97 1.229,92 0,00 0,00 1.981,89 6.922,83 30/11/2021
515 296400 CINTIA APARECIDA MOREIRA NAVES E RODRIGUES ANALISTA DO MP CAMPO BELO - COMARCA; CAMPO BELO-PJ-01PJ 18.103,37 5.431,01 0,00 0,00 7.844,79 0,00 0,00 25.251,38 56.630,55 3.577,78 6.776,02 0,00 0,00 10.353,80 46.276,75 30/11/2021
516 407900 CINTIA NETO COMELLI ANALISTA DO MP BELO HORIZONTE - COMARCA; CENTRAL DE APOIO TECNICO-SETOR CONTABIL 14.324,23 2.864,85 0,00 0,00 0,00 0,00 86,64 18.906,08 36.181,80 2.562,53 6.900,49 0,00 0,00 9.463,02 26.718,78 30/11/2021
517 304700 CINTIA QUEIROZ OFICIAL DO MP BELO HORIZONTE - COMARCA; OUVIDORIA DO MPMG 10.069,62 3.020,89 0,00 0,00 0,00 0,00 0,00 14.807,51 27.898,02 1.906,76 2.206,17 0,00 0,00 4.112,93 23.785,09 30/11/2021
518 286100 CIRO CANGUSSU CORDEIRO OFICIAL DO MP IPATINGA - COMARCA; IPATINGA-PJ-09PJ 7.663,37 2.299,01 0,00 0,00 0,00 0,00 0,00 12.003,71 21.966,09 1.406,26 1.379,30 0,00 0,00 2.785,56 19.180,53 30/11/2021
519 689900 CISSA NOGUEIRA NUNES ASSESSOR PROCURADOR JUSTICA BELO HORIZONTE - COMARCA; GABINETE DE PROCURADOR DE JUSTIÇA - SALA 608 0,00 0,00 7.187,72 0,00 0,00 0,00 0,00 1.717,00 8.904,72 751,97 1.229,92 0,00 0,00 1.981,89 6.922,83 30/11/2021
520 681700 CLARA FERREIRA ALKIMIM ASSESSOR PROMOTOR JUSTICA ARAÇUAÍ - COMARCA; ARACUAI-PJ-01PJ 0,00 0,00 7.187,72 0,00 0,00 0,00 0,00 1.717,00 8.904,72 751,97 1.229,92 0,00 0,00 1.981,89 6.922,83 30/11/2021
521 695500 CLARA RODRIGUES BLACH ASSESSOR PROCURADOR JUSTICA BELO HORIZONTE - COMARCA; GABINETE DE PROCURADOR DE JUSTIÇA - SALA 1003 0,00 0,00 7.187,72 0,00 2.395,91 0,00 0,00 1.717,00 11.300,63 751,97 1.888,80 0,00 0,00 2.640,77 8.659,86 30/11/2021
522 412500 CLARICE GOMES MAROTTA ANALISTA DO MP BELO HORIZONTE - COMARCA; COORD ESTADUAL DE DEFESA DOS ANIMAIS 13.011,52 3.903,46 0,00 0,00 0,00 0,00 0,00 20.338,50 37.253,48 2.518,67 3.089,63 0,00 0,00 5.608,30 31.645,18 30/11/2021
523 605300 CLARISSA AZEVEDO ROCHA OFICIAL DO MP BELO HORIZONTE - COMARCA; BH-17PJ PATRIMONIO PUBLICO-SECRETARIA 5.930,75 593,08 0,00 0,00 0,00 0,00 0,00 1.717,00 8.240,83 856,09 689,27 0,00 0,00 1.545,36 6.695,47 30/11/2021
524 308100 CLARISSA DUARTE BELLONI DIRETOR/ANALISTA BELO HORIZONTE - COMARCA; DIRETORIA-GERAL 0,00 7.409,35 24.697,83 0,00 0,00 0,00 0,00 36.131,26 68.238,44 3.577,78 6.871,95 0,00 0,00 10.449,73 57.788,71 30/11/2021
525 497100 CLARISSA ROCHA GUIDI ANALISTA DO MP BELO HORIZONTE - COMARCA; BH-02PJ FAMILIA-SECRETARIA 11.085,56 2.217,11 0,00 0,00 0,00 0,00 35,24 7.690,00 21.027,91 1.940,70 3.158,07 0,00 0,00 5.098,77 15.929,14 30/11/2021
526 641800 CLARISSE TAVARES GONCALVES OFICIAL DO MP BELO HORIZONTE - COMARCA; BH-07PJ 01 TRIBUNAL JURI-SECRETARIA 5.387,19 538,72 0,00 0,00 0,00 0,00 0,00 1.717,00 7.642,91 762,96 550,45 0,00 0,00 1.313,41 6.329,50 30/11/2021
527 463700 CLAUDIA ADRIANA FERRAO DIAS ANALISTA DO MP SETE LAGOAS - COMARCA; SETE LAGOAS-PJ-06PJ 10.069,62 2.013,92 0,00 0,00 0,00 0,00 0,00 13.800,54 25.884,08 1.745,64 1.973,56 0,00 0,00 3.719,20 22.164,88 30/11/2021
528 415400 CLAUDIA ALMEIDA DE VASCONCELLOS BARROS ASSESSOR/OFICIAL BELO HORIZONTE - COMARCA; DIVISAO DE SERVICOS 0,00 2.079,50 10.397,52 -87,95 0,00 0,00 0,00 12.114,52 24.503,59 1.808,60 1.528,86 0,00 1.947,62 5.285,08 19.218,51 30/11/2021
529 207000 CLAUDIA APARECIDA VILELA MACHADO ANALISTA DO MP BELO HORIZONTE - COMARCA; CENTRAL DE APOIO TECNICO-SETOR CONTABIL 18.820,14 7.528,06 0,00 0,00 0,00 0,00 0,00 28.065,20 54.413,40 4.027,99 5.112,29 0,00 0,00 9.140,28 45.273,12 30/11/2021
530 365700 CLAUDIA BREGUEZ CUNHA ANALISTA DO MP VARGINHA - COMARCA; VARGINHA-PJ-07PJ 15.272,02 3.054,40 0,00 0,00 0,00 0,00 52,95 21.570,63 39.950,00 2.744,50 4.808,98 0,00 0,00 7.553,48 32.396,52 30/11/2021
531 430500 CLAUDIA CECILIA SANTANA VENCESLAU OFICIAL DO MP BELO HORIZONTE - COMARCA; DIRETORIA DE INTELIGENCIA 8.579,10 1.715,82 0,00 0,00 0,00 0,00 0,00 12.347,12 22.642,04 1.459,46 1.508,25 0,00 0,00 2.967,71 19.674,33 30/11/2021
532 480400 CLAUDIA GOULART DE SOUZA OFICIAL DO MP PASSOS - COMARCA; PASSOS-PJ-06PJ 7.912,85 1.582,57 0,00 0,00 0,00 0,00 27,44 11.212,42 20.735,28 1.331,54 2.070,90 0,00 0,00 3.402,44 17.332,84 30/11/2021
533 519800 CLAUDIA HELENA CORREA DE ALMEIDA ANALISTA DO MP BELO HORIZONTE - COMARCA; BH-12PJ JUIZO CRIMINAL-GAB 096PJ 10.069,62 1.006,96 0,00 0,00 0,00 0,00 0,00 12.793,58 23.870,16 1.584,53 1.740,95 0,00 0,00 3.325,48 20.544,68 30/11/2021
534 422100 CLAUDIA IACOMINI CABRAL ANALISTA DO MP BELO HORIZONTE - COMARCA; CENT DE APOIO TEC-SETOR DEF,IDOSO E INFANC 13.011,52 9.108,06 0,00 0,00 0,00 0,00 0,00 26.068,19 48.187,77 3.351,41 4.291,89 0,00 0,00 7.643,30 40.544,47 30/11/2021
535 258200 CLAUDIA LAGE MICHALAROS ANALISTA DO MP BELO HORIZONTE - COMARCA; CENTRAL DE APOIO TECN-SETOR DE MEIO AMBIENTE 18.820,14 13.174,10 0,00 0,00 0,00 4.931,36 0,00 33.711,24 70.636,84 4.931,36 7.876,92 0,00 0,00 12.808,28 57.828,56 30/11/2021
536 284600 CLAUDIA LENI DE FREITAS OFICIAL DO MP CONTAGEM - COMARCA; CONTAGEM-PJ-SECRETARIA 6.123,79 2.449,52 0,00 0,00 0,00 0,00 0,00 6.003,66 14.576,97 1.184,01 1.162,70 0,00 0,00 2.346,71 12.230,26 30/11/2021
537 433600 CLAUDIA LUIZA SANTIAGO FELICIO ANALISTA DO MP BELO HORIZONTE - COMARCA; CENT DE APOIO TEC-SETOR DEF,IDOSO E INFANC 13.011,52 2.602,30 0,00 0,00 0,00 0,00 0,00 1.717,00 17.330,82 2.310,49 2.684,78 0,00 0,00 4.995,27 12.335,55 30/11/2021
538 317000 CLAUDIA MACHADO ALVES ASSESSOR/OFICIAL BELO HORIZONTE - COMARCA; DIR GOVERNANCA TECNOLOGIA INFORMACAO 0,00 3.119,26 10.397,52 0,00 0,00 0,00 0,00 15.233,78 28.750,56 1.596,73 2.408,65 0,00 0,00 4.005,38 24.745,18 30/11/2021
539 155300 CLAUDIA MACIEL MIRANDA OFICIAL DO MP CONGONHAS - COMARCA; CONGONHAS-PJ-02PJ 16.750,82 8.375,41 0,00 0,00 0,00 0,00 0,00 27.837,88 52.964,11 3.832,47 4.882,15 0,00 0,00 8.714,62 44.249,49 30/11/2021
540 242200 CLAUDIA MICHELLE DIAS MUNIZ BALEEIRO OFICIAL DO MP MONTE AZUL - COMARCA; MONTE AZUL-PJ-SECRETARIA 12.601,30 5.040,52 0,00 0,00 0,00 0,00 0,00 1.717,00 19.358,82 2.634,97 3.205,39 0,00 0,00 5.840,36 13.518,46 30/11/2021
541 623000 CLAUDIA PATRICIA SILVA RODRIGUES RAPOSEIRAS OFICIAL DO MP PARÁ DE MINAS - COMARCA; PARA DE MINAS-PJ-02PJ 5.930,75 593,08 0,00 0,00 0,00 0,00 0,00 9.010,22 15.534,05 856,09 637,13 0,00 0,00 1.493,22 14.040,83 30/11/2021
542 418400 CLAUDIA REGINA MARTINS BONIFACIO OFICIAL DO MP ITUIUTABA - COMARCA; ITUIUTABA-PJ-06PJ 8.858,43 1.771,69 0,00 0,00 0,00 0,00 30,73 12.347,12 23.007,97 1.513,10 2.342,65 0,00 0,00 3.855,75 19.152,22 30/11/2021
543 498300 CLAUDIA SOUTO FARIAS BRAUN OFICIAL DO MP TEÓFILO OTONI - COMARCA; TEOFILO OTONI-PJ-SECRETARIA 6.123,79 1.224,76 0,00 0,00 0,00 0,00 0,00 8.085,74 15.434,29 988,05 775,50 0,00 0,00 1.763,55 13.670,74 30/11/2021
544 206500 CLAUDIA VALERIA FONSECA ANDRADE ANALISTA DO MP BELO HORIZONTE - COMARCA; BH-23PJ INF-FISC MED SOC FEC 18.820,14 9.410,07 0,00 0,00 0,00 4.329,11 0,00 29.947,21 62.506,53 4.329,11 6.893,95 0,00 0,00 11.223,06 51.283,47 30/11/2021
545 277500 CLAUDIO ANTONIO BORGES BRUNSWICK ALVARES OFICIAL DO MP BELO HORIZONTE - COMARCA; BH-15PJ M AMB 16PJ HAB URB-SECRETARIA 10.069,62 3.020,89 0,00 0,00 0,00 0,00 0,00 1.717,00 14.807,51 1.906,76 2.206,17 0,00 0,00 4.112,93 10.694,58 30/11/2021
546 444800 CLAUDIO ARESIO DO CARMO ANALISTA DO MP SETE LAGOAS - COMARCA; SETE LAGOAS-PJ-01PJ 10.736,08 4.294,43 0,00 0,00 0,00 0,00 0,00 17.236,78 32.267,29 2.217,16 2.602,17 0,00 0,00 4.819,33 27.447,96 30/11/2021
547 545100 CLAUDIO HENRIQUE MACEDO DE SOUZA FRANSOZO ANALISTA DO MP OURO PRETO - COMARCA; OURO PRETO-PJ-03PJ 9.444,70 944,47 0,00 0,00 0,00 0,00 0,00 2.486,39 12.875,56 1.474,54 1.582,16 0,00 0,00 3.056,70 9.818,86 30/11/2021
548 353500 CLAUDIO HENRIQUE PEDRO DA ROCHA OFICIAL DO MP BELO HORIZONTE - COMARCA; DIVISAO TRANSPORTES 9.752,14 2.925,64 0,00 0,00 0,00 0,00 0,00 1.717,00 14.394,78 1.840,72 2.006,56 0,00 0,00 3.847,28 10.547,50 30/11/2021
549 265800 CLAUDIO KUPIDLOWSKY FERNANDES OFICIAL DO MP BELO HORIZONTE - COMARCA; SECRETARIA DO PROCON-MG 10.069,62 3.020,89 0,00 0,00 0,00 0,00 0,00 1.717,00 14.807,51 1.906,76 1.409,08 0,00 0,00 3.315,84 11.491,67 30/11/2021
550 193600 CLAUDIO LEITE FONTES OFICIAL DO MP ITUIUTABA - COMARCA; ITUIUTABA-PJ-02PJ 9.146,93 3.658,77 0,00 0,00 0,00 0,00 0,00 15.814,47 28.620,17 1.861,19 1.837,88 0,00 0,00 3.699,07 24.921,10 30/11/2021
551 329400 CLAUDIO MARCIO BERNARDES OFICIAL DO MP ITAÚNA - COMARCA; ITAUNA-PJ-03PJ 10.069,62 7.048,73 0,00 0,00 0,00 0,00 0,00 1.717,00 18.835,35 2.551,21 3.084,47 0,00 0,00 5.635,68 13.199,67 30/11/2021
552 270200 CLAUDIO RABELO ALVES OFICIAL DO MP FORMIGA - COMARCA; FORMIGA-PJ-03PJ 11.085,56 3.325,67 0,00 0,00 0,00 0,00 41,65 1.717,00 16.169,88 2.118,07 3.398,96 0,00 0,00 5.517,03 10.652,85 30/11/2021
553 264700 CLAUDIO ROBERTO KFURI DE ARAUJO ANALISTA DO MP BELO HORIZONTE - COMARCA; CENTRAL DE APOIO TECNICO-SETOR DE INFORMATICA 18.820,14 5.646,04 0,00 0,00 0,00 0,00 0,00 1.717,00 26.183,18 3.726,87 4.729,68 0,00 0,00 8.456,55 17.726,63 30/11/2021
554 188600 CLAUDIO SALES OFICIAL DO MP NEPOMUCENO - COMARCA; NEPOMUCENO-PJ-SECRETARIA 14.790,66 11.832,53 0,00 0,00 0,00 0,00 0,00 29.206,64 55.829,83 4.071,99 5.332,22 0,00 0,00 9.404,21 46.425,62 30/11/2021
555 543300 CLAUDIO SILVA DE CARVALHO ANALISTA DO MP CAMPO BELO - COMARCA; CAMPO BELO-PJ-03PJ 8.579,10 857,91 0,00 0,00 0,00 0,00 0,00 4.862,67 14.299,68 1.322,20 1.310,08 0,00 0,00 2.632,28 11.667,40 30/11/2021
556 160700 CLAUDIO VICENTE HESS ASSESSOR BELO HORIZONTE - COMARCA; CENTRAL DE APOIO TECNICO-SETOR DE INFORMATICA 0,00 6.717,58 13.435,16 0,00 0,00 0,00 0,00 21.869,74 42.022,48 751,97 4.691,03 0,00 0,00 5.443,00 36.579,48 30/11/2021
557 312900 CLAUDIO VIEIRA FIRPE OFICIAL DO MP BELO HORIZONTE - COMARCA; DIR RELACOES INSTITUCIONAIS 10.069,62 3.020,89 0,00 0,00 0,00 0,00 0,00 1.717,00 14.807,51 1.906,76 2.206,17 0,00 0,00 4.112,93 10.694,58 30/11/2021
558 634100 CLEA CRISTINA GUERRA DE FREITAS COSTA OFICIAL DO MP BELO HORIZONTE - COMARCA; BH-18PJ VIOLENCIA DOMESTICA-SECRETARIA 5.387,19 538,72 0,00 0,00 0,00 0,00 0,00 8.412,30 14.338,21 762,96 498,31 0,00 0,00 1.261,27 13.076,94 30/11/2021
559 459200 CLEIA ZILLE PEREIRA ANALISTA DO MP BELO HORIZONTE - COMARCA; BH-07PJ 01 TRIBUNAL JURI-SECRETARIA 10.069,62 2.013,92 0,00 0,00 0,00 0,00 0,00 12.189,40 24.272,94 1.745,64 1.973,56 0,00 0,00 3.719,20 20.553,74 30/11/2021
560 481800 CLEIDE CARDOSO DA SILVA ANALISTA DO MP MANHUAÇU - COMARCA; MANHUACU-PJ-04PJ 10.069,62 2.013,92 0,00 0,00 0,00 0,00 0,00 13.800,54 25.884,08 1.745,64 1.869,29 0,00 0,00 3.614,93 22.269,15 30/11/2021
561 347600 CLEIDIMAR DE OLIVEIRA SILVA OFICIAL DO MP PATOS DE MINAS - COMARCA; PATOS DE MINAS-PJ-03PJ 9.444,70 2.833,41 0,00 0,00 0,00 0,00 0,00 14.394,78 26.672,89 1.776,77 1.809,96 0,00 0,00 3.586,73 23.086,16 30/11/2021
562 396500 CLEIDISON BATISTA DE ANDRADE OFICIAL DO MP RESPLENDOR - COMARCA; RESPLENDOR-PJ-UNPJ 8.170,49 1.634,10 0,00 0,00 0,00 0,00 0,00 12.347,12 22.151,71 1.381,01 1.342,85 0,00 0,00 2.723,86 19.427,85 30/11/2021
563 535100 CLEISON ALVES DA SILVA ANALISTA DO MP BOA ESPERANÇA - COMARCA; BOA ESPERANCA-PJ-01PJ 9.444,70 944,47 0,00 0,00 0,00 0,00 0,00 12.106,17 22.495,34 1.474,54 1.477,89 0,00 0,00 2.952,43 19.542,91 30/11/2021
564 298100 CLEONICE AUGUSTA BARROS DE OLIVEIRA ANALISTA DO MP JUIZ DE FORA - COMARCA; JUIZ DE FORA-PJ-08PJ 18.820,14 5.646,04 0,00 0,00 0,00 0,00 0,00 1.717,00 26.183,18 3.726,87 4.833,95 0,00 0,00 8.560,82 17.622,36 30/11/2021
565 264100 CLETO HENRIQUE ANDRADE SILVA ANALISTA DO MP BELO HORIZONTE - COMARCA; DIRETORIA DE SISTEMAS DE INFORMACAO 18.820,14 5.646,04 0,00 0,00 0,00 0,00 0,00 26.183,18 50.649,36 3.726,87 4.729,68 0,00 0,00 8.456,55 42.192,81 30/11/2021
566 334400 CLEUBA DE OLIVEIRA BARCELOS GONCALVES OFICIAL DO MP DIVINÓPOLIS - COMARCA; COORD REG SAUDE MACRORREGIAO SANITARIA OESTE 10.069,62 3.020,89 0,00 0,00 0,00 0,00 0,00 14.807,51 27.898,02 1.906,76 2.154,03 0,00 0,00 4.060,79 23.837,23 30/11/2021
567 347500 CLEUSA CORDEIRO DA MATA PIMENTA OFICIAL DO MP CAMPO BELO - COMARCA; CAMPO BELO-PJ-01PJ 10.069,62 8.055,69 0,00 0,00 6.041,77 2.712,33 0,00 19.842,31 46.721,72 2.712,33 5.672,31 0,00 0,00 8.384,64 38.337,08 30/11/2021
568 510200 CLEZIO SALES SILVA OFICIAL DO MP BRASÓPOLIS - COMARCA; BRASOPOLIS-PJ-UNPJ 6.123,79 1.224,76 0,00 0,00 0,00 0,00 612,38 10.980,44 18.941,37 1.086,03 1.021,24 0,00 0,00 2.107,27 16.834,10 30/11/2021
569 323000 CLOTILDE DE PADUA VIEIRA OFICIAL DO MP BELO HORIZONTE - COMARCA; BH-19PJ SAUDE-SECRETARIA 129PJ 7.421,79 2.226,54 0,00 0,00 0,00 0,00 0,00 1.717,00 11.365,33 1.356,01 1.411,03 0,00 0,00 2.767,04 8.598,29 30/11/2021
570 285200 CLOVIS ANDRE LUDTKE OFICIAL DO MP BELO HORIZONTE - COMARCA; DIVISAO DE MANUTENCAO PREDIAL 10.069,62 3.020,89 0,00 0,00 0,00 0,00 0,00 1.717,00 14.807,51 1.906,76 2.206,17 0,00 0,00 4.112,93 10.694,58 30/11/2021
571 381100 CONCEICAO APARECIDA TEIXEIRA ARANTES ANALISTA DO MP BELO HORIZONTE - COMARCA; BH-23PJ INFRACIONAL-ASS JURIDICA 14.324,23 2.864,85 0,00 0,00 0,00 0,00 4.187,46 18.676,90 40.053,44 3.151,85 5.366,22 0,00 0,00 8.518,07 31.535,37 30/11/2021
572 249900 CONSTANTINO CEZAR GOMES MOTA OFICIAL DO MP MONTES CLAROS - COMARCA; COORD REG BACIA RIOS VERDE GRANDE E PARDO 9.444,70 2.833,41 0,00 0,00 0,00 0,00 0,00 17.885,07 30.163,18 1.776,77 1.914,23 0,00 0,00 3.691,00 26.472,18 30/11/2021
573 481000 CRISHMA ANALIA LOMBELLO ANALISTA DO MP JUIZ DE FORA - COMARCA; JUIZ DE FORA-PJ-13PJ 10.069,62 2.013,92 0,00 0,00 0,00 0,00 0,00 1.717,00 13.800,54 1.745,64 1.921,43 0,00 0,00 3.667,07 10.133,47 30/11/2021
574 523900 CRISTHYANE BAZOLI COSTA GUEDES COUTO OFICIAL DO MP BELO HORIZONTE - COMARCA; BH-04PJ JUIZO REG PÚBLICOS-SECRETARIA 7.421,79 742,18 0,00 0,00 0,00 0,00 0,00 10.146,71 18.310,68 1.118,51 1.068,14 0,00 0,00 2.186,65 16.124,03 30/11/2021
575 187000 CRISTIAN DAYVSON EVANGELISTA OFICIAL DO MP JUIZ DE FORA - COMARCA; JUIZ DE FORA-PJ-13PJ 14.790,66 5.916,26 0,00 0,00 0,00 0,00 0,00 23.097,83 43.804,75 3.125,38 3.913,43 0,00 0,00 7.038,81 36.765,94 30/11/2021
576 682100 CRISTIAN TRISTAO DE ANDRADE ASSESSOR PROMOTOR JUSTICA TRÊS CORACOES - COMARCA; TRES CORACOES-PJ-04PJ 0,00 0,00 7.187,72 0,00 0,00 0,00 0,00 1.717,00 8.904,72 751,97 1.229,92 0,00 0,00 1.981,89 6.922,83 30/11/2021
577 319800 CRISTIANA GONCALVES DOS SANTOS GUSMAO OFICIAL DO MP PARAOPEBA - COMARCA; PARAOPEBA-PJ-UNPJ 10.069,62 3.020,89 0,00 0,00 0,00 0,00 0,00 14.807,51 27.898,02 1.906,76 2.206,17 0,00 0,00 4.112,93 23.785,09 30/11/2021
578 520600 CRISTIANA JANAINA BARBOZA JUVENCIO DOS SANTOS ANALISTA DO MP BELO HORIZONTE - COMARCA; BH-02PJ FAMILIA-SECRETARIA 10.069,62 1.006,96 0,00 0,00 0,00 0,00 0,00 6.147,63 17.224,21 1.584,53 1.740,95 0,00 0,00 3.325,48 13.898,73 30/11/2021
579 195600 CRISTIANA SOARES HALABI OFICIAL DO MP UBERABA - COMARCA; UBERABA-PJ-01PJ 15.499,20 6.199,68 0,00 0,00 0,00 0,00 0,00 24.274,95 45.973,83 3.284,10 4.194,70 0,00 0,00 7.478,80 38.495,03 30/11/2021
580 218900 CRISTIANE ALVES BELLES OFICIAL DO MP JUIZ DE FORA - COMARCA; JUIZ DE FORA-PJ-10PJ 6.123,79 1.837,14 0,00 0,00 0,00 0,00 0,00 2.870,54 10.831,47 1.086,03 916,96 0,00 0,00 2.002,99 8.828,48 30/11/2021
581 263600 CRISTIANE CARVALHO COUTINHO OFICIAL DO MP BELO HORIZONTE - COMARCA; BH-23PJ INFRACIONAL-SEC EXP 10.069,62 3.020,89 0,00 0,00 0,00 0,00 0,00 1.717,00 14.807,51 1.906,76 2.154,03 0,00 0,00 4.060,79 10.746,72 30/11/2021
582 541000 CRISTIANE COELHO ALVES OFICIAL DO MP ITABIRA - COMARCA; ITABIRA-PJ-03PJ 5.562,64 556,26 0,00 0,00 0,00 0,00 0,00 7.835,90 13.954,80 792,88 543,16 0,00 0,00 1.336,04 12.618,76 30/11/2021
583 441700 CRISTIANE CORRADO DE ANDRADE ANALISTA DO MP BELO HORIZONTE - COMARCA; DIRETORIA DE SISTEMAS DE INFORMACAO 13.011,52 2.602,30 0,00 0,00 0,00 0,00 0,00 18.906,08 34.519,90 2.310,49 2.789,06 0,00 0,00 5.099,55 29.420,35 30/11/2021
584 375100 CRISTIANE DAS DORES ERCIO DE LIMA OFICIAL DO MP GOVERNADOR VALADARES - COMARCA; COOR REG APOIO COM INC MOB VALE DO RIO DOCE 8.579,10 1.715,82 0,00 0,00 0,00 0,00 0,00 1.717,00 12.011,92 1.459,46 1.973,35 0,00 0,00 3.432,81 8.579,11 30/11/2021
585 178800 CRISTIANE DE LIMA HOSKEN OFICIAL DO MP BELO HORIZONTE - COMARCA; BH-14PJ DEFESA CONSUMIDOR-GAB 110PJ 15.272,02 6.108,81 0,00 0,00 0,00 0,00 0,00 25.168,15 46.548,98 3.233,21 4.069,10 0,00 0,00 7.302,31 39.246,67 30/11/2021
586 494000 CRISTIANE DE MELO MARQUEZ OLIVEIRA ANALISTA DO MP UBERLÂNDIA - COMARCA; UBERLANDIA-PJ-06PJ 11.085,56 2.217,11 0,00 0,00 0,00 0,00 0,00 3.255,78 16.558,45 1.940,70 2.255,18 0,00 0,00 4.195,88 12.362,57 30/11/2021
587 266100 CRISTIANE DE OLIVEIRA CASTRO OFICIAL DO MP BELO HORIZONTE - COMARCA; BH-14PJ DEFESA CONSUMIDOR-SECRETARIA 12.601,30 3.780,39 0,00 0,00 0,00 0,00 1.445,27 20.077,25 37.904,21 2.433,35 3.259,61 0,00 0,00 5.692,96 32.211,25 30/11/2021
588 329500 CRISTIANE DOS REIS SILVA OFICIAL DO MP ARAXÁ - COMARCA; ARAXA-PJ-04PJ 9.444,70 2.833,41 0,00 0,00 0,00 0,00 0,00 14.807,51 27.085,62 1.776,77 1.966,37 0,00 0,00 3.743,14 23.342,48 30/11/2021
589 301600 CRISTIANE GODINHO PIRES ANALISTA DO MP BETIM - COMARCA; BETIM-PJ-06PJ 16.750,82 5.025,25 0,00 0,00 0,00 0,00 0,00 1.717,00 23.493,07 3.296,45 4.212,54 0,00 0,00 7.508,99 15.984,08 30/11/2021
590 406100 CRISTIANE GONCALVES CHAVES ANALISTA DO MP BELO HORIZONTE - COMARCA; BH-14PJ DEFESA CONSUMIDOR-GAB 112PJ 14.324,23 4.297,27 0,00 0,00 0,00 0,00 0,00 1.717,00 20.338,50 2.791,72 3.483,83 0,00 0,00 6.275,55 14.062,95 30/11/2021
591 487600 CRISTIANE LOPES DE OLIVEIRA OFICIAL DO MP DIVINÓPOLIS - COMARCA; DIVINOPOLIS-PJ-03PJ 6.123,79 1.224,76 0,00 0,00 0,00 0,00 0,00 9.065,55 16.414,10 988,05 879,78 0,00 0,00 1.867,83 14.546,27 30/11/2021
592 502500 CRISTIANE MACIEL DE OLIVEIRA GOMES ANALISTA DO MP JUIZ DE FORA - COMARCA; JUIZ DE FORA-PJ-05PJ 10.069,62 2.013,92 0,00 0,00 0,00 0,00 0,00 12.958,79 25.042,33 1.745,64 1.973,56 0,00 0,00 3.719,20 21.323,13 30/11/2021
593 285500 CRISTIANE MAGALHAES LOURENCO ANALISTA DO MP BELO HORIZONTE - COMARCA; CENTRAL DE APOIO TECNICO-SETOR CONTABIL 18.103,37 5.431,01 0,00 0,00 0,00 0,00 0,00 25.251,38 48.785,76 3.577,78 4.566,57 0,00 0,00 8.144,35 40.641,41 30/11/2021
594 536500 CRISTIANE MICHELE DE SOUZA ANALISTA DO MP BARÃO DE COCAIS - COMARCA; BARAO DE COCAIS-PJ-UNPJ 9.444,70 944,47 0,00 0,00 0,00 0,00 0,00 2.332,51 12.721,68 1.474,54 1.477,89 0,00 0,00 2.952,43 9.769,25 30/11/2021
595 346600 CRISTIANE NOGUEIRA ANDRADE ANALISTA DO MP BELO HORIZONTE - COMARCA; CENTRAL DE APOIO TECNICO-SETOR CONTABIL 16.750,82 5.025,25 0,00 0,00 0,00 0,00 0,00 23.493,07 45.269,14 3.296,45 8.568,71 0,00 0,00 11.865,16 33.403,98 30/11/2021
596 234000 CRISTIANE OLIVEIRA TOSTES OFICIAL DO MP JUIZ DE FORA - COMARCA; JUIZ DE FORA-PJ-08PJ 14.324,23 4.297,27 0,00 0,00 6.207,17 0,00 0,00 2.486,39 27.315,06 2.791,72 5.190,80 0,00 0,00 7.982,52 19.332,54 30/11/2021
597 445800 CRISTIANE ORZIL COSTA OFICIAL DO MP SANTA LUZIA - COMARCA; SANTA LUZIA-PJ-05PJ 6.123,79 1.224,76 0,00 0,00 2.449,52 0,00 0,00 9.834,94 19.633,01 988,05 1.553,40 0,00 0,00 2.541,45 17.091,56 30/11/2021
598 616100 CRISTIANE PAES RODRIGUES MARCICANO ANALISTA DO MP CATAGUASES - COMARCA; CATAGUASES-PJ-05PJ 8.436,53 843,65 0,00 0,00 0,00 0,00 77,96 11.766,57 21.124,71 1.297,11 3.378,83 0,00 0,00 4.675,94 16.448,77 30/11/2021
599 612300 CRISTIANE RIBEIRO DOS REIS ARCANJO OFICIAL DO MP BELO HORIZONTE - COMARCA; DIRETORIA DE PAGAMENTO DE PESSOAL-DPAG 5.930,75 593,08 0,00 0,00 0,00 0,00 0,00 0,00 6.523,83 856,09 584,99 0,00 0,00 1.441,08 5.082,75 30/11/2021
600 257700 CRISTIANE RODRIGUES PAES NUNES ANALISTA DO MP BELO HORIZONTE - COMARCA; BH-22PJ PES COM DEF E IDOSOS-ORIENTACAO PSIC 18.820,14 5.646,04 0,00 0,00 0,00 0,00 0,00 2.486,39 26.952,57 3.726,87 4.781,81 0,00 0,00 8.508,68 18.443,89 30/11/2021
601 510800 CRISTIANE SANTOS FERNANDES ORNELES ANALISTA DO MP BELO HORIZONTE - COMARCA; BH-03PJ EMPRESARIAL-SECRETARIA 10.069,62 2.013,92 0,00 0,00 0,00 0,00 1.006,96 13.800,54 26.891,04 1.906,76 2.206,17 0,00 0,00 4.112,93 22.778,11 30/11/2021
602 535701 CRISTIANE SANTOS MIRANDA ANALISTA DO MP CONTAGEM - COMARCA; CONTAGEM-PJ-20PJ 7.421,79 445,31 0,00 0,00 0,00 0,00 0,00 1.717,00 9.584,10 1.071,01 999,56 0,00 0,00 2.070,57 7.513,53 30/11/2021
603 536200 CRISTIANO DE OLIVEIRA ANALISTA DO MP CONCEIÇÃO DO MATO DENTRO - COMARCA; CONCEICAO DO MATO DENTRO-PJ-UNPJ 10.069,62 1.006,96 0,00 0,00 0,00 0,00 0,00 13.562,97 24.639,55 1.584,53 1.688,82 0,00 0,00 3.273,35 21.366,20 30/11/2021
604 477400 CRISTIANO SOARES ELEUTERIO ANALISTA DO MP BELO HORIZONTE - COMARCA; GABINETE DE PROCURADOR DE JUSTIÇA - SALA 812 12.204,02 2.440,80 0,00 0,00 0,00 0,00 123,03 16.361,82 31.129,67 2.155,45 5.711,48 0,00 0,00 7.866,93 23.262,74 30/11/2021
605 449400 CRISTIANO TEIXEIRA RODRIGUES LANA ANALISTA DO MP BELO HORIZONTE - COMARCA; BH-18PJ VIOLENCIA DOMESTICA-GAB 185PJ 10.069,62 2.013,92 0,00 0,00 0,00 0,00 0,00 14.600,30 26.683,84 1.745,64 1.973,56 0,00 0,00 3.719,20 22.964,64 30/11/2021
606 239400 CRISTINA DE FATIMA CRUZ E SILVA OFICIAL DO MP MONTE SANTO DE MINAS - COMARCA; MONTE SANTO DE MINAS-PJ-SECRETARIA 12.601,30 3.780,39 0,00 0,00 0,00 0,00 0,00 1.717,00 18.098,69 2.433,35 2.966,43 0,00 0,00 5.399,78 12.698,91 30/11/2021
607 544000 CRISTINA DE OLIVEIRA TERRA ANALISTA DO MP BELO HORIZONTE - COMARCA; BH-18PJ VIOLENCIA DOMESTICA 9.444,70 944,47 0,00 0,00 0,00 0,00 0,00 12.106,17 22.495,34 1.474,54 1.582,16 0,00 0,00 3.056,70 19.438,64 30/11/2021
608 356800 CRISTINA DE PINHO BARROSO OFICIAL DO MP SABINÓPOLIS - COMARCA; SABINOPOLIS-PJ-UNPJ 8.170,49 2.451,15 0,00 0,00 0,00 0,00 0,00 12.684,49 23.306,13 1.511,74 1.531,59 0,00 0,00 3.043,33 20.262,80 30/11/2021
609 649500 CRISTINA DO DIVINO ESPIRITO SANTOS OFICIAL DO MP DIVINÓPOLIS - COMARCA; DIVINOPOLIS-PJ-12PJ 5.217,34 521,73 0,00 0,00 0,00 0,00 192,70 1.717,00 7.648,77 763,87 499,68 0,00 0,00 1.263,55 6.385,22 30/11/2021
610 348201 CRISTINA MARIA DA SILVA ANALISTA DO MP ARAXÁ - COMARCA; ARAXA-PJ-06PJ 10.069,62 2.013,92 0,00 0,00 0,00 0,00 0,00 2.486,39 14.569,93 1.745,64 1.973,56 0,00 0,00 3.719,20 10.850,73 30/11/2021
611 434900 CRISTINA MELO DE MADUREIRA ANALISTA DO MP BELO HORIZONTE - COMARCA; BH-07PJ 01 TRIBUNAL JURI-SECRETARIA 13.011,52 2.602,30 0,00 0,00 0,00 0,00 0,00 1.717,00 17.330,82 2.310,49 2.789,06 0,00 0,00 5.099,55 12.231,27 30/11/2021
612 307700 CRISTINA TEIXEIRA MARQUES OFICIAL DO MP BELO HORIZONTE - COMARCA; CENTRAL DE APOIO TECNICO-SETOR CONTABIL 9.146,93 2.744,08 0,00 0,00 0,00 0,00 20,63 13.608,01 25.519,65 1.714,84 2.834,18 0,00 0,00 4.549,02 20.970,63 30/11/2021
613 265300 CRISTOVAO SANCHES DE MEDEIROS ANALISTA DO MP BELO HORIZONTE - COMARCA; DIRETORIA DE CONTABILIDADE 17.413,92 5.224,18 0,00 0,00 0,00 0,00 0,00 24.355,10 46.993,20 3.434,37 6.490,28 0,00 0,00 9.924,65 37.068,55 30/11/2021
614 349800 CROZEIR LUIZ DA SILVA OFICIAL DO MP UNAÍ - COMARCA; UNAI-PJ-SECRETARIA 9.444,70 1.888,94 0,00 0,00 0,00 0,00 0,00 13.740,87 25.074,51 1.625,66 1.748,20 0,00 0,00 3.373,86 21.700,65 30/11/2021
615 490500 CYNTHIA CRISTINA DE SOUZA OLIVEIRA VALENTE ANALISTA DO MP BELO HORIZONTE - COMARCA; BH-09PJ AUDITORIA MILITAR-SECRETARIA 10.069,62 2.013,92 0,00 0,00 0,00 0,00 0,00 1.717,00 13.800,54 1.745,64 1.973,56 0,00 0,00 3.719,20 10.081,34 30/11/2021
616 389800 CYNTHIA GARIGLIO DOS SANTOS OFICIAL DO MP PERDIZES - COMARCA; PERDIZES-PJ-SECRETARIA 8.170,49 1.634,10 0,00 0,00 0,00 0,00 28,34 12.290,98 22.123,91 1.381,01 2.036,97 0,00 0,00 3.417,98 18.705,93 30/11/2021
617 335101 CYNTHIA GONTIJO D ASSUNCAO ANALISTA DO MP BELO HORIZONTE - COMARCA; FEPDC-SECRETARIA EXECUTIVA 10.069,62 2.013,92 0,00 0,00 0,00 0,00 0,00 2.486,39 14.569,93 1.745,64 1.973,56 0,00 0,00 3.719,20 10.850,73 30/11/2021
618 269700 CYNTIA ROCHA CAVALCANTI OFICIAL DO MP UBERLÂNDIA - COMARCA; UBERLANDIA-PJ-06PJ 12.601,30 3.780,39 0,00 0,00 0,00 0,00 0,00 19.401,37 35.783,06 2.433,35 2.966,43 0,00 0,00 5.399,78 30.383,28 30/11/2021
619 278000 DAIRTON LOPES MARTINS FILHO COORDENADOR/ANALISTA BELO HORIZONTE - COMARCA; DIRETORIA DE SISTEMAS DE INFORMACAO 0,00 4.030,55 13.435,16 0,00 0,00 0,00 0,00 19.182,71 36.648,42 1.906,76 3.409,35 0,00 0,00 5.316,11 31.332,31 30/11/2021
620 392700 DALIANA CHAVES IBRAIM MARINHO OFICIAL DO MP ITAÚNA - COMARCA; ITAUNA-PJ-04PJ 7.187,72 1.437,54 0,00 0,00 0,00 0,00 0,00 10.623,15 19.248,41 1.192,32 1.174,70 0,00 0,00 2.367,02 16.881,39 30/11/2021
621 558101 DALLEY TASSIA SILVA ANALISTA DO MP MORADA NOVA DE MINAS - COMARCA; MORADA NOVA DE MINAS-PJ-UNPJ 9.146,93 914,69 0,00 0,00 0,00 0,00 0,00 3.255,78 13.317,40 1.422,14 1.402,22 0,00 0,00 2.824,36 10.493,04 30/11/2021
622 476700 DALTON DAUD ANALISTA DO MP ARAGUARI - COMARCA; ARAGUARI-PJ-05PJ 10.069,62 2.013,92 0,00 0,00 0,00 0,00 0,00 1.717,00 13.800,54 1.745,64 1.869,29 0,00 0,00 3.614,93 10.185,61 30/11/2021
623 426900 DANIEL ALVES DA SILVA OFICIAL DO MP BELO HORIZONTE - COMARCA; DIVISAO TRANSPORTES 6.123,79 1.224,76 0,00 0,00 0,00 0,00 0,00 9.065,55 16.414,10 988,05 775,50 0,00 0,00 1.763,55 14.650,55 30/11/2021
624 122000 DANIEL ANTONIO VIEIRA OFICIAL DO MP ENTRE-RIOS DE MINAS - COMARCA; ENTRE RIOS DE MINAS-PJ-SECRETARIA 10.069,62 8.055,69 0,00 0,00 0,00 0,00 0,00 1.717,00 19.842,31 2.712,33 3.160,66 0,00 0,00 5.872,99 13.969,32 30/11/2021
625 411000 DANIEL FERREIRA DA SILVA ANALISTA DO MP GOVERNADOR VALADARES - COMARCA; GOVERNADOR VALADARES-PJ-15PJ 13.011,52 3.903,46 0,00 0,00 0,00 0,00 513,77 25.583,55 43.012,30 2.518,67 4.118,54 0,00 0,00 6.637,21 36.375,09 30/11/2021
626 703500 DANIEL FILIPE DE DEUS SOARES ASSESSOR PROMOTOR JUSTICA ITABIRITO - COMARCA; ITABIRITO-PJ-02PJ 0,00 0,00 7.187,72 0,00 0,00 0,00 0,00 1.717,00 8.904,72 751,97 1.229,92 0,00 0,00 1.981,89 6.922,83 30/11/2021
627 309000 DANIEL GOMES DOS SANTOS ANALISTA DO MP POÇOS DE CALDAS - COMARCA; POCOS DE CALDAS-PJ-05PJ 17.413,92 5.224,18 0,00 0,00 0,00 0,00 0,00 25.251,38 47.889,48 3.434,37 4.411,67 0,00 0,00 7.846,04 40.043,44 30/11/2021
628 554500 DANIEL GOMES PEREIRA OFICIAL DO MP NANUQUE - COMARCA; NANUQUE-PJ-02PJ 6.123,79 612,38 0,00 0,00 0,00 0,00 19,46 8.453,17 15.208,80 890,06 1.251,02 0,00 0,00 2.141,08 13.067,72 30/11/2021
629 453000 DANIEL GONCALVES PEREIRA ANALISTA DO MP UNAÍ - COMARCA; UNAI-PJ-02PJ 10.069,62 2.013,92 0,00 0,00 0,00 0,00 0,00 11.292,84 23.376,38 1.745,64 1.973,56 0,00 0,00 3.719,20 19.657,18 30/11/2021
630 495500 DANIEL GUIMARAES CABRAL OFICIAL DO MP BELO HORIZONTE - COMARCA; BH-17PJ PATRIMONIO PUBLICO-SECRETARIA 7.187,72 1.437,54 0,00 0,00 0,00 0,00 0,00 10.623,15 19.248,41 1.192,32 1.174,70 0,00 0,00 2.367,02 16.881,39 30/11/2021
631 442900 DANIEL GUIMARAES GONCALVES ANALISTA DO MP UBERLÂNDIA - COMARCA; UBERLANDIA-PJ-03PJ 13.011,52 2.602,30 0,00 0,00 0,00 0,00 45,12 17.330,82 32.989,76 717,23 4.195,02 0,00 0,00 4.912,25 28.077,51 30/11/2021
632 655900 DANIEL LUIZ DA SILVA ASSESSOR BELO HORIZONTE - COMARCA; DIV FISCAL ADM CONT TERCEIRIZACAO 0,00 0,00 5.136,32 0,00 0,00 0,00 0,00 1.717,00 6.853,32 738,09 669,60 0,00 0,00 1.407,69 5.445,63 30/11/2021
633 464600 DANIEL PIACENTINI STIVANIN ANALISTA DO MP ANDRADAS - COMARCA; ANDRADAS-PJ-02PJ 10.069,62 2.013,92 0,00 0,00 0,00 0,00 0,00 1.717,00 13.800,54 1.745,64 1.973,56 0,00 0,00 3.719,20 10.081,34 30/11/2021
634 417000 DANIEL QUEIROZ FERREIRA ANALISTA DO MP PASSOS - COMARCA; PASSOS-PJ-06PJ 12.601,30 2.520,26 0,00 0,00 0,00 0,00 0,00 1.717,00 16.838,56 2.231,73 2.675,34 0,00 0,00 4.907,07 11.931,49 30/11/2021
635 396700 DANIEL SILVA CARNEVALLI DIRETOR/ANALISTA BELO HORIZONTE - COMARCA; SUPERINTENDENCIA DE TECNOLOGIA DA INFORMACAO 0,00 3.482,78 17.413,92 0,00 0,00 0,00 0,00 23.717,96 44.614,66 2.562,53 4.172,54 0,00 0,00 6.735,07 37.879,59 30/11/2021
636 489300 DANIEL TABOZA ROCHA ANALISTA DO MP IPATINGA - COMARCA; IPATINGA-PJ-08PJ 10.069,62 2.013,92 0,00 0,00 0,00 0,00 0,00 2.486,39 14.569,93 1.745,64 1.973,56 0,00 0,00 3.719,20 10.850,73 30/11/2021
637 414100 DANIEL TARDELI VALADAO ANALISTA DO MP TRÊS CORACOES - COMARCA; TRES CORACOES-PJ-02PJ 13.011,52 2.602,30 0,00 0,00 0,00 0,00 0,00 18.869,60 34.483,42 2.310,49 3.722,77 0,00 0,00 6.033,26 28.450,16 30/11/2021
638 446601 DANIEL VIEIRA BUENO ANALISTA DO MP SÃO DOMINGOS DO PRATA - COMARCA; SAO DOMINGOS DO PRATA-PJ-UNPJ 9.146,93 914,69 0,00 0,00 0,00 0,00 0,00 2.486,39 12.548,01 1.422,14 2.239,40 0,00 0,00 3.661,54 8.886,47 30/11/2021
639 253200 DANIELA BATISTA LIMA BARBOSA ASSESSOR BELO HORIZONTE - COMARCA; CENTRAL DE APOIO TECN-SETOR DE MEIO AMBIENTE 0,00 1.540,90 5.136,32 0,00 0,00 0,00 0,00 1.717,00 8.394,22 751,97 1.089,53 0,00 0,00 1.841,50 6.552,72 30/11/2021
640 505800 DANIELA BORGES DE MATTOS RESENDE ANALISTA DO MP JUIZ DE FORA - COMARCA; JUIZ DE FORA-PJ-20PJ 10.069,62 2.013,92 0,00 0,00 0,00 0,00 0,00 13.800,54 25.884,08 1.745,64 1.973,56 0,00 0,00 3.719,20 22.164,88 30/11/2021
641 478000 DANIELA CARVALHO SOARES ANALISTA DO MP SÃO JOÃO DEL REI - COMARCA; SAO JOAO DEL REI-PJ-01PJ 10.069,62 2.013,92 0,00 0,00 4.027,85 0,00 0,00 1.717,00 17.828,39 1.745,64 3.081,22 0,00 0,00 4.826,86 13.001,53 30/11/2021
642 275900 DANIELA CHAGAS SODRE ANALISTA DO MP BELO HORIZONTE - COMARCA; CENTRAL DE APOIO TECNICO-SETOR CONTABIL 18.103,37 5.431,01 0,00 0,00 0,00 0,00 0,00 25.251,38 48.785,76 3.577,78 4.566,57 0,00 0,00 8.144,35 40.641,41 30/11/2021
643 234301 DANIELA CRUZ SOARES ANALISTA DO MP BELO HORIZONTE - COMARCA; LABORATORIO TECNOLOGIA INTELIGENCIA 18.820,14 5.646,04 0,00 0,00 0,00 0,00 0,00 20.474,40 44.940,58 3.726,87 4.833,95 0,00 0,00 8.560,82 36.379,76 30/11/2021
644 638000 DANIELA DE ALMEIDA BATISTA ANALISTA DO MP ANDRELÂNDIA - COMARCA; ANDRELANDIA-PJ-UNPJ 8.436,53 843,65 0,00 0,00 0,00 0,00 10,73 2.486,39 11.777,30 873,84 2.291,10 0,00 0,00 3.164,94 8.612,36 30/11/2021
645 301000 DANIELA DE ALMEIDA E OLIVEIRA ANALISTA DO MP BELO HORIZONTE - COMARCA; DIRETORIA DE SISTEMAS DE INFORMACAO 18.103,37 5.431,01 0,00 0,00 0,00 0,00 0,00 25.251,38 48.785,76 3.577,78 4.618,71 0,00 0,00 8.196,49 40.589,27 30/11/2021
646 296000 DANIELA DE AZEVEDO SILVA ANALISTA DO MP BRASÓPOLIS - COMARCA; BRASOPOLIS-PJ-UNPJ 16.750,82 5.025,25 0,00 0,00 0,00 0,00 0,00 26.183,18 47.959,25 3.296,45 4.212,54 0,00 0,00 7.508,99 40.450,26 30/11/2021
647 453500 DANIELA DE CASTRO SOUSA BARBOSA ANALISTA DO MP BELO HORIZONTE - COMARCA; BH-08PJ JUIZADO ESPECIAL-SECRETARIA 10.069,62 2.013,92 0,00 0,00 0,00 0,00 0,00 13.800,54 25.884,08 1.745,64 1.973,56 0,00 0,00 3.719,20 22.164,88 30/11/2021
648 506000 DANIELA DE OLIVEIRA CAVALIERI ANALISTA DO MP BELO HORIZONTE - COMARCA; BH-14PJ DEFESA CONSUMIDOR-GAB 005PJ 10.069,62 2.013,92 0,00 0,00 0,00 0,00 0,00 3.730,92 15.814,46 1.745,64 1.973,56 0,00 0,00 3.719,20 12.095,26 30/11/2021
649 546200 DANIELA DE VILHENA LEMES GONCALVES OFICIAL DO MP TRÊS CORACOES - COMARCA; TRES CORACOES-PJ-05PJ 5.562,64 556,26 0,00 0,00 0,00 0,00 538,46 12.690,22 19.347,58 792,88 491,02 0,00 0,00 1.283,90 18.063,68 30/11/2021
650 356400 DANIELA LEAL FERRAZ ANALISTA DO MP MONTES CLAROS - COMARCA; COORD REG PJ DEF EDUC DIR CRIANCA ADOL NORTE 14.790,66 4.437,20 0,00 0,00 0,00 0,00 0,00 11.643,82 30.871,68 2.888,73 3.623,90 0,00 0,00 6.512,63 24.359,05 30/11/2021
651 501000 DANIELA LOURENCO SANTOS DA SILVA GUIMARAES ANALISTA DO MP BELO HORIZONTE - COMARCA; BH-12PJ JUIZO CRIMINAL-GAB 095PJ 10.069,62 2.013,92 0,00 0,00 0,00 0,00 0,00 1.717,00 13.800,54 1.745,64 1.921,43 0,00 0,00 3.667,07 10.133,47 30/11/2021
652 195801 DANIELA MARIA DE OLIVEIRA QUEIROZ ANALISTA DO MP ARAGUARI - COMARCA; ARAGUARI-PJ-06PJ 13.011,52 5.204,61 0,00 0,00 0,00 0,00 0,00 18.428,60 36.644,73 2.726,86 3.390,19 0,00 0,00 6.117,05 30.527,68 30/11/2021
653 511400 DANIELA MARIA LARA DE OLIVEIRA ANALISTA DO MP BOA ESPERANÇA - COMARCA; BOA ESPERANCA-PJ-02PJ 10.069,62 2.013,92 0,00 0,00 0,00 0,00 1.006,96 14.569,93 27.660,43 1.906,76 2.154,03 0,00 0,00 4.060,79 23.599,64 30/11/2021
654 252101 DANIELA PAULA ALVES PENA ANALISTA DO MP CONTAGEM - COMARCA; CONTAGEM-PJ-APO TECNICO 14.790,66 5.916,26 0,00 0,00 0,00 0,00 59,86 1.717,00 22.483,78 3.125,38 5.540,25 0,00 0,00 8.665,63 13.818,15 30/11/2021
655 604700 DANIELA PEIXOTO NOGUEIRA COORDENADOR/OFICIAL BELO HORIZONTE - COMARCA; DIRET DE FORMACAO, APERFEIC. E POS-GRADUACAO 0,00 1.181,92 11.819,15 0,00 0,00 0,00 0,00 2.486,39 15.487,46 856,09 2.470,51 0,00 0,00 3.326,60 12.160,86 30/11/2021
656 662000 DANIELA RIBAS DE AVILA ASSESSOR BELO HORIZONTE - COMARCA; CENTRO AUTOCOMPOSICAO DE CONFLITOS 0,00 0,00 8.170,49 0,00 0,00 0,00 0,00 1.717,00 9.887,49 751,97 1.500,18 0,00 0,00 2.252,15 7.635,34 30/11/2021
657 711600 DANIELA SOTTE DE OLIVEIRA NEVES ASSESSOR PROMOTOR JUSTICA AIURUOCA - COMARCA; AIURUOCA-PJ-UNPJ 0,00 0,00 7.187,72 0,00 0,00 0,00 0,00 1.717,00 8.904,72 751,97 1.229,92 0,00 0,00 1.981,89 6.922,83 30/11/2021
658 462000 DANIELA SOUSA GOMES DO AMARAL ANALISTA DO MP BETIM - COMARCA; BETIM-PJ-04PJ 10.736,08 2.147,22 0,00 0,00 0,00 0,00 0,00 15.019,67 27.902,97 1.873,61 2.158,30 0,00 0,00 4.031,91 23.871,06 30/11/2021
659 427000 DANIELA TEIXEIRA DINIZ ANDRADE ANALISTA DO MP BELO HORIZONTE - COMARCA; DIRETORIA DE PROJETOS DE EDIFICACOES 10.069,62 2.013,92 0,00 0,00 0,00 0,00 0,00 13.800,54 25.884,08 1.745,64 1.921,43 0,00 0,00 3.667,07 22.217,01 30/11/2021
660 337200 DANIELA TOLEDO SENIUK ANALISTA DO MP BELO HORIZONTE - COMARCA; GABINETE DE PROCURADOR DE JUSTIÇA - SALA 412 13.872,60 4.161,78 0,00 0,00 0,00 0,00 0,00 19.751,38 37.785,76 2.697,78 4.667,77 0,00 0,00 7.365,55 30.420,21 30/11/2021
661 605600 DANIELE ALZIRA SILVA CABRAL MOREIRA OFICIAL DO MP BELO HORIZONTE - COMARCA; BH-10PJ EXECUÇÃO PENAL-SECRETARIA 5.930,75 593,08 0,00 0,00 0,00 0,00 0,00 2.486,39 9.010,22 856,09 689,27 0,00 0,00 1.545,36 7.464,86 30/11/2021
662 195500 DANIELE CHAVES FONSECA OFICIAL DO MP BELO HORIZONTE - COMARCA; EXTINTA-CGMP-DIV APOIO FISC ORIENT FUNCIONAL 16.112,82 6.445,13 0,00 0,00 0,00 0,00 78,75 24.274,95 46.911,65 3.421,55 6.385,87 0,00 0,00 9.807,42 37.104,23 30/11/2021
663 323400 DANIELE MEGALE SANTINI OFICIAL DO MP BELO HORIZONTE - COMARCA; EXTINTA-CGMP-DIV APOIO FISC ORIENT FUNCIONAL 10.069,62 3.020,89 0,00 0,00 0,00 0,00 0,00 15.673,90 28.764,41 1.906,76 2.154,03 0,00 0,00 4.060,79 24.703,62 30/11/2021
664 357900 DANIELE REJANE PINTO VERSIEUX OFICIAL DO MP PEDRO LEOPOLDO - COMARCA; PEDRO LEOPOLDO-PJ-03PJ 9.146,93 2.744,08 0,00 0,00 0,00 0,00 0,00 14.807,51 26.698,52 1.714,84 1.929,09 0,00 0,00 3.643,93 23.054,59 30/11/2021
665 389500 DANIELE VASCONCELOS AMORIM PRADO OFICIAL DO MP SÃO SEBASTIÃO DO PARAÍSO - COMARCA; SAO SEBASTIAO DO PARAISO-PJ-04PJ 8.858,43 1.771,69 0,00 0,00 0,00 0,00 0,00 1.717,00 12.347,12 1.513,10 1.637,82 0,00 0,00 3.150,92 9.196,20 30/11/2021
666 629700 DANIELLA BASTOS MARTINS BICALHO OFICIAL DO MP GOVERNADOR VALADARES - COMARCA; GOVERNADOR VALADARES-PJ-16PJ 5.387,19 538,72 0,00 0,00 0,00 0,00 0,00 8.240,83 14.166,74 762,96 550,45 0,00 0,00 1.313,41 12.853,33 30/11/2021
667 265000 DANIELLE CASTANHEIRA SCALABRINI OFICIAL DO MP BELO HORIZONTE - COMARCA; JUNTA RECURSAL DO PROCON ESTADUAL 10.069,62 3.020,89 0,00 0,00 0,00 0,00 0,00 1.717,00 14.807,51 1.906,76 2.154,03 0,00 0,00 4.060,79 10.746,72 30/11/2021
668 490100 DANIELLE DE AVILA SILVA LOPES ANALISTA DO MP BELO HORIZONTE - COMARCA; PROC. JUSTICA DIR. DIFUSOS E COLETIVOS-SEC 10.069,62 3.020,89 0,00 0,00 0,00 0,00 0,00 15.576,90 28.667,41 1.906,76 2.206,17 0,00 0,00 4.112,93 24.554,48 30/11/2021
669 711100 DANIELLE DOMINGOS LOPES DE MELO ASSESSOR PROCURADOR JUSTICA BELO HORIZONTE - COMARCA; GABINETE DE PROCURADOR DE JUSTIÇA - SALA 703 0,00 0,00 7.187,72 0,00 0,00 0,00 0,00 1.717,00 8.904,72 751,97 1.229,92 0,00 0,00 1.981,89 6.922,83 30/11/2021
670 549600 DANIELLE GOMES LOPES RODRIGUES OFICIAL DO MP VESPASIANO - COMARCA; VESPASIANO-PJ-02PJ 6.123,79 612,38 0,00 0,00 0,00 0,00 0,00 8.453,17 15.189,34 890,06 1.251,02 0,00 0,00 2.141,08 13.048,26 30/11/2021
671 613000 DANIELLE SILVA OLIVEIRA FRANKLIN ASSESSOR/OFICIAL BELO HORIZONTE - COMARCA; DIRETORIA DE ORCAMENTO-DIOR/SPC 0,00 1.039,75 10.397,52 0,00 0,00 0,00 0,00 14.539,17 25.976,44 856,09 2.040,46 0,00 0,00 2.896,55 23.079,89 30/11/2021
672 380800 DANILLO RIBEIRO ANTUNES ANALISTA DO MP MONTES CLAROS - COMARCA; MONTES CLAROS-PJ-SECRETARIA 14.324,23 2.864,85 0,00 0,00 0,00 0,00 0,00 1.717,00 18.906,08 2.562,53 3.100,80 0,00 0,00 5.663,33 13.242,75 30/11/2021
673 453700 DANILO BOTELHO DE CARVALHO DIRETOR/ANALISTA BELO HORIZONTE - COMARCA; SUPERINTENDENCIA DE FINANCAS 0,00 3.482,78 17.413,92 0,00 0,00 0,00 0,00 32.123,79 53.020,49 2.231,73 4.263,51 0,00 0,00 6.495,24 46.525,25 30/11/2021
674 391200 DANILO D'AVILA MENDES ANALISTA DO MP MONTES CLAROS - COMARCA; GAECO REGIONAL DE MONTES CLAROS 14.324,23 2.864,85 0,00 0,00 0,00 0,00 0,00 20.235,18 37.424,26 2.562,53 3.152,94 0,00 0,00 5.715,47 31.708,79 30/11/2021
675 710900 DANILO DE SOUZA RODRIGUES ASSESSOR PROMOTOR JUSTICA IPANEMA - COMARCA; IPANEMA-PJ-01PJ 0,00 0,00 7.187,72 0,00 0,00 0,00 0,00 1.717,00 8.904,72 751,97 1.229,92 0,00 0,00 1.981,89 6.922,83 30/11/2021
676 494900 DANILO GAVIAO AVELINO DE MELLO ANALISTA DO MP POUSO ALEGRE - COMARCA; GAECO REGIONAL DE POUSO ALEGRE 10.069,62 2.013,92 0,00 0,00 0,00 0,00 0,00 14.569,93 26.653,47 1.745,64 1.973,56 0,00 0,00 3.719,20 22.934,27 30/11/2021
677 604300 DANILO NASCIMENTO SALGADO ANALISTA DO MP JANAÚBA - COMARCA; JANAUBA-PJ-01PJ 9.146,93 914,69 0,00 0,00 0,00 0,00 0,00 7.257,89 17.319,51 1.422,14 1.506,50 0,00 0,00 2.928,64 14.390,87 30/11/2021
678 298300 DANUZA MONICA DE SOUZA DINIZ ANALISTA DO MP BELO HORIZONTE - COMARCA; CAO-FUNDACOES-ASSESSORIA JURIDICA 14.324,23 4.297,27 0,00 0,00 0,00 0,00 53,82 11.027,75 29.703,07 2.791,72 4.793,95 0,00 0,00 7.585,67 22.117,40 30/11/2021
679 398700 DARCY LUIZ MILEO GREGATTI OFICIAL DO MP LAMBARI - COMARCA; LAMBARI-PJ-SECRETARIA 8.579,10 1.715,82 0,00 0,00 0,00 0,00 0,00 13.050,64 23.345,56 1.459,46 1.560,39 0,00 0,00 3.019,85 20.325,71 30/11/2021
680 406200 DARIANA AUGUSTA DE TOLEDO PATROCINIO RUIZ COORDENADOR/OFICIAL BELO HORIZONTE - COMARCA; DIRETORIA GESTAO COMPRAS LICITACOES 0,00 2.687,03 13.435,16 0,00 0,00 0,00 0,00 1.717,00 17.839,19 1.513,10 3.148,14 0,00 0,00 4.661,24 13.177,95 30/11/2021
681 586901 DARIO VITORINO DE CARVALHO SILVA ASSESSOR BELO HORIZONTE - COMARCA; DIRETORIA DE SEGURANCA 0,00 0,00 17.413,92 0,00 0,00 0,00 0,00 1.717,00 19.130,92 751,97 3.989,99 0,00 0,00 4.741,96 14.388,96 30/11/2021
682 305000 DARLI LEITE DE OLIVEIRA OFICIAL DO MP ARAÇUAÍ - COMARCA; ARACUAI-PJ-01PJ 6.123,79 1.837,14 0,00 0,00 0,00 0,00 0,00 9.677,93 17.638,86 1.086,03 864,83 0,00 0,00 1.950,86 15.688,00 30/11/2021
683 703700 DAVID ALVES DOS SANTOS ASSESSOR PROMOTOR JUSTICA BELO HORIZONTE - COMARCA; CENTRO AUTOCOMPOSICAO DE CONFLITOS 0,00 0,00 7.187,72 0,00 0,00 0,00 0,00 1.717,00 8.904,72 751,97 1.229,92 0,00 0,00 1.981,89 6.922,83 30/11/2021
684 122200 DAVID RIBEIRO DOS SANTOS ANALISTA DO MP BORDA DA MATA - COMARCA; BORDA DA MATA-PJ-UNPJ 18.820,14 15.056,11 0,00 0,00 0,00 5.232,48 0,00 13.009,08 52.117,81 5.232,48 8.446,61 0,00 0,00 13.679,09 38.438,72 30/11/2021
685 389400 DAWSON CANEDO MARQUES OFICIAL DO MP TRÊS CORACOES - COMARCA; TRES CORACOES-PJ-01PJ 9.146,93 1.829,39 0,00 0,00 0,00 0,00 31,74 11.229,81 22.237,87 1.568,49 1.827,44 0,00 0,00 3.395,93 18.841,94 30/11/2021
686 537200 DAYANE TEIXEIRA DE OLIVEIRA CASELLI ANALISTA DO MP BELO HORIZONTE - COMARCA; ASSESS TECNICO-JUR JUNTO AS PROC. DE JUST 8.170,49 817,05 0,00 0,00 0,00 0,00 0,00 1.717,00 10.704,54 1.250,28 3.222,82 0,00 0,00 4.473,10 6.231,44 30/11/2021
687 256100 DAYSE ROSALY PEREIRA BATISTA OFICIAL DO MP BELO HORIZONTE - COMARCA; BH-08PJ JUIZADO ESPECIAL-SECRETARIA 10.069,62 3.020,89 0,00 0,00 0,00 0,00 0,00 1.717,00 14.807,51 1.906,76 2.206,17 0,00 0,00 4.112,93 10.694,58 30/11/2021
688 311901 DEBORA APARECIDA DA SILVA ASSESSOR BELO HORIZONTE - COMARCA; BH-23PJ CIVEL-SETOR ATEND PUB 0,00 0,00 3.076,28 0,00 0,00 0,00 0,00 1.717,00 4.793,28 449,69 224,40 0,00 0,00 674,09 4.119,19 30/11/2021
689 194301 DEBORA APARECIDA DOS SANTOS ANALISTA DO MP UBERLÂNDIA - COMARCA; UBERLANDIA-PJ-SEC FAMILIA 18.820,14 7.528,06 0,00 0,00 0,00 0,00 0,00 1.717,00 28.065,20 4.027,99 5.216,56 0,00 0,00 9.244,55 18.820,65 30/11/2021
690 518800 DEBORA CARVALHO FIORATTO COORDENADOR/OFICIAL BELO HORIZONTE - COMARCA; DIRETORIA MATERIAIS E SERVICOS 0,00 1.343,52 13.435,16 -29,23 0,00 0,00 0,00 16.495,68 31.245,13 1.161,03 2.697,61 0,00 646,84 4.505,48 26.739,65 30/11/2021
691 444900 DEBORA CLAUDIA PEREIRA ALVES ANALISTA DO MP BELO HORIZONTE - COMARCA; BH-08PJ JUIZADO ESPECIAL-SECRETARIA 10.069,62 2.013,92 0,00 0,00 0,00 0,00 0,00 1.717,00 13.800,54 1.745,64 1.973,56 0,00 0,00 3.719,20 10.081,34 30/11/2021
692 617700 DEBORA COMANDUCI SCHREIDER ANALISTA DO MP BICAS - COMARCA; BICAS-PJ-UNPJ 9.146,93 914,69 0,00 0,00 3.353,87 0,00 71,63 1.717,00 15.204,12 1.422,14 4.191,26 0,00 0,00 5.613,40 9.590,72 30/11/2021
693 555700 DEBORA CRISTINA BUITRAGO PEREIRA ANALISTA DO MP BELO HORIZONTE - COMARCA; DIRETORIA GESTAO CONTRATOS CONVENIOS 9.444,70 944,47 0,00 0,00 0,00 0,00 0,00 3.255,78 13.644,95 1.474,54 2.342,76 0,00 0,00 3.817,30 9.827,65 30/11/2021
694 513100 DEBORA CRISTINA PEREIRA DE OLIVEIRA ANALISTA DO MP BELO HORIZONTE - COMARCA; BH-23PJ CIVEL-SETOR JURIDICO 10.069,62 2.013,92 0,00 0,00 0,00 0,00 1.006,96 2.486,39 15.576,89 1.906,76 2.206,17 0,00 0,00 4.112,93 11.463,96 30/11/2021
695 612100 DEBORA DUARTE SILVA DE SOUZA OFICIAL DO MP RIBEIRÃO DAS NEVES - COMARCA; RIBEIRAO DAS NEVES-PJ-06PJ 5.930,75 1.779,23 0,00 0,00 0,00 0,00 0,00 9.426,98 17.136,96 1.045,87 859,00 0,00 0,00 1.904,87 15.232,09 30/11/2021
696 539700 DEBORA SALES CARVALHO ANALISTA DO MP PATOS DE MINAS - COMARCA; COORD REG PJ DEF EDU DIR CRI ADO AL PAR NOROE 9.444,70 944,47 0,00 0,00 0,00 0,00 0,00 1.717,00 12.106,17 1.474,54 1.582,16 0,00 0,00 3.056,70 9.049,47 30/11/2021
697 424100 DEBORA SANTOS E ALVES ANALISTA DO MP JANUÁRIA - COMARCA; JANUARIA-PJ-01PJ 14.324,23 2.864,85 0,00 0,00 0,00 0,00 144,40 3.255,78 20.589,26 2.562,53 6.808,23 0,00 0,00 9.370,76 11.218,50 30/11/2021
698 426301 DEBORA SCUCATO MACHADO SOARES OFICIAL DO MP ITABIRITO - COMARCA; ITABIRITO-PJ-01PJ 6.123,79 1.224,76 0,00 0,00 0,00 0,00 0,00 9.834,94 17.183,49 988,05 879,78 0,00 0,00 1.867,83 15.315,66 30/11/2021
699 678100 DEBORA SOUZA COSTA ASSESSOR PROMOTOR JUSTICA BOTELHOS - COMARCA; BOTELHOS-PJ-UNPJ 0,00 0,00 7.187,72 0,00 0,00 0,00 0,00 2.486,39 9.674,11 751,97 1.177,78 0,00 0,00 1.929,75 7.744,36 30/11/2021
700 550200 DEBORA TRINDADE LEITE ANALISTA DO MP MANHUAÇU - COMARCA; MANHUACU-PJ-05PJ 9.444,70 944,47 0,00 0,00 0,00 0,00 495,22 12.313,96 23.198,35 1.474,54 2.268,51 0,00 0,00 3.743,05 19.455,30 30/11/2021
701 438000 DEBORAH COSTA LAGE ANALISTA DO MP BELO HORIZONTE - COMARCA; PROC JUST ATUACAO TRIBUNAIS SUPERIORES-GAB006 13.011,52 2.602,30 0,00 0,00 0,00 0,00 0,00 17.187,17 32.800,99 2.310,49 2.789,06 0,00 0,00 5.099,55 27.701,44 30/11/2021
702 475700 DEBORAH LOBAO LACERDA ASSESSOR/OFICIAL BELO HORIZONTE - COMARCA; BH-17PJ PATRIMONIO PUBLICO-SECRETARIA 0,00 1.634,10 8.170,49 0,00 0,00 0,00 0,00 1.717,00 11.521,59 988,05 1.555,19 0,00 0,00 2.543,24 8.978,35 30/11/2021
703 613700 DEISER MARIA FERREIRA ROSCOE OFICIAL DO MP BELO HORIZONTE - COMARCA; DIVISÃO DE EDUCAÇÃO PARA O CONSUMO 5.930,75 593,08 0,00 0,00 0,00 0,00 0,00 6.066,22 12.590,05 856,09 689,27 0,00 0,00 1.545,36 11.044,69 30/11/2021
704 551900 DEISY ROCHA DA SILVA ANALISTA DO MP CARMO DO PARANAÍBA - COMARCA; CARMO DO PARANAIBA-PJ-01PJ 9.444,70 944,47 0,00 0,00 0,00 0,00 0,00 1.717,00 12.106,17 1.474,54 2.372,79 0,00 0,00 3.847,33 8.258,84 30/11/2021
705 501900 DELI RAQUEL RODRIGUES ANALISTA DO MP ITUIUTABA - COMARCA; ITUIUTABA-PJ-04PJ 10.069,62 2.013,92 0,00 0,00 0,00 0,00 0,00 1.717,00 13.800,54 1.745,64 1.973,56 0,00 0,00 3.719,20 10.081,34 30/11/2021
706 378600 DELIANE LOPES VIEIRA BREIJAO ANALISTA DO MP JUIZ DE FORA - COMARCA; JUIZ DE FORA-PJ-12PJ 14.324,23 2.864,85 0,00 0,00 0,00 0,00 0,00 19.465,79 36.654,87 2.562,53 3.100,80 0,00 0,00 5.663,33 30.991,54 30/11/2021
707 487700 DENIA FERREIRA MAIA SILVA OFICIAL DO MP TRÊS CORACOES - COMARCA; TRES CORACOES-PJ-04PJ 6.123,79 1.224,76 0,00 0,00 0,00 0,00 0,00 9.218,03 16.566,58 988,05 775,50 0,00 0,00 1.763,55 14.803,03 30/11/2021
708 424800 DENIS APARECIDO CAMPOS DELFINO ANALISTA DO MP LUZ - COMARCA; LUZ-PJ-UNPJ 12.601,30 2.520,26 0,00 0,00 0,00 0,00 0,00 18.100,21 33.221,77 2.231,73 2.466,79 0,00 0,00 4.698,52 28.523,25 30/11/2021
709 381400 DENISE ANGELICA MELLO DE PAULA OFICIAL DO MP BELO HORIZONTE - COMARCA; BH-18PJ DIREITOS HUMANOS-SECRETARIA 9.146,93 1.829,39 0,00 0,00 0,00 0,00 0,00 13.462,71 24.439,03 1.568,49 2.521,71 0,00 0,00 4.090,20 20.348,83 30/11/2021
710 702100 DENISE CANDIDO LIMA MACEDO KATOPODIS ASSESSOR PROCURADOR JUSTICA BELO HORIZONTE - COMARCA; GABINETE DE PROCURADOR DE JUSTIÇA - SALA 514 0,00 0,00 7.187,72 0,00 0,00 0,00 0,00 1.717,00 8.904,72 751,97 1.229,92 0,00 0,00 1.981,89 6.922,83 30/11/2021
711 196300 DENISE DE ALMEIDA VILELA FURTADO OFICIAL DO MP BELO HORIZONTE - COMARCA; CENTRAL DE APOIO TECNICO-SECRETARIA 12.204,02 4.881,61 0,00 0,00 0,00 0,00 0,00 20.512,36 37.597,99 2.545,98 3.129,04 0,00 0,00 5.675,02 31.922,97 30/11/2021
712 271100 DENISE ELOY PEIXOTO OFICIAL DO MP BELO HORIZONTE - COMARCA; DIRETORIA DE INTELIGENCIA 12.601,30 3.780,39 0,00 0,00 0,00 0,00 0,00 18.631,98 35.013,67 2.433,35 2.966,43 0,00 0,00 5.399,78 29.613,89 30/11/2021
713 385400 DENISE FREITAS DE ASSIS ASSESSOR/OFICIAL CARATINGA - COMARCA; CARATINGA-PJ-SECRETARIA 0,00 2.079,50 10.397,52 0,00 0,00 0,00 0,00 1.717,00 14.194,02 1.459,46 2.160,47 0,00 0,00 3.619,93 10.574,09 30/11/2021
714 437100 DENISE NOGUEIRA MAGRI MENDES ANALISTA DO MP BELO HORIZONTE - COMARCA; LAB TECNOLOGIA CONTRA LAVAGEM DINHEIRO 13.011,52 3.903,46 0,00 0,00 0,00 0,00 0,00 1.717,00 18.631,98 2.518,67 2.933,21 0,00 0,00 5.451,88 13.180,10 30/11/2021
715 524700 DENISE RAMOS GUIMARAES OFICIAL DO MP BELO HORIZONTE - COMARCA; BH-07PJ 01 TRIBUNAL JURI-SECRETARIA 6.123,79 612,38 0,00 0,00 0,00 0,00 0,00 8.453,17 15.189,34 890,06 738,32 0,00 0,00 1.628,38 13.560,96 30/11/2021
716 239100 DENISE RIBEIRO DOS SANTOS CAETANO OFICIAL DO MP ITANHANDU - COMARCA; ITANHANDU-PJ-SECRETARIA 12.601,30 3.780,39 0,00 0,00 0,00 0,00 0,00 18.631,98 35.013,67 2.433,35 2.914,30 0,00 0,00 5.347,65 29.666,02 30/11/2021
717 325500 DENISE ROSA TORRES OFICIAL DO MP BELO HORIZONTE - COMARCA; DIRETORIA DE PESSOAL ADMINISTRATIVO - DPAD 10.069,62 3.020,89 0,00 0,00 0,00 0,00 0,00 15.673,90 28.764,41 1.906,76 2.206,17 0,00 0,00 4.112,93 24.651,48 30/11/2021
718 437200 DENISE VIVIANE DOS SANTOS ANALISTA DO MP BELO HORIZONTE - COMARCA; CGMP-ASSESSORIA JURIDICA 11.085,56 2.217,11 0,00 0,00 0,00 0,00 0,00 17.515,36 30.818,03 1.940,70 2.150,91 0,00 0,00 4.091,61 26.726,42 30/11/2021
719 267900 DENISIA DE ALMEIDA SALES OFICIAL DO MP BELO HORIZONTE - COMARCA; BH-18PJ DIREITOS HUMANOS-SECRETARIA 9.444,70 2.833,41 0,00 0,00 0,00 0,00 0,00 14.807,51 27.085,62 1.776,77 1.966,37 0,00 0,00 3.743,14 23.342,48 30/11/2021
720 480300 DESIREE ARANTES FERREIRA GOUVEA OFICIAL DO MP PRATÁPOLIS - COMARCA; PRATAPOLIS-PJ-UNPJ 6.123,79 1.224,76 0,00 0,00 0,00 988,05 0,00 1.717,00 10.053,60 988,05 1.151,49 0,00 0,00 2.139,54 7.914,06 30/11/2021
721 355300 DEYSE CRISTINA MORAIS OFICIAL DO MP PASSOS - COMARCA; PASSOS-PJ-02PJ 9.752,14 2.925,64 0,00 0,00 0,00 0,00 33,82 12.704,41 25.416,01 1.840,72 3.036,82 0,00 0,00 4.877,54 20.538,47 30/11/2021
722 523700 DIANA CAMPOS RESENDE OFICIAL DO MP SÃO JOÃO DEL REI - COMARCA; SAO JOAO DEL REI-PJ-04PJ 7.421,79 3.710,90 0,00 0,00 0,00 0,00 0,00 13.212,06 24.344,75 1.593,51 1.701,78 0,00 0,00 3.295,29 21.049,46 30/11/2021
723 241900 DIANA CARDOSO MARTINS OFICIAL DO MP BELO HORIZONTE - COMARCA; CAO-CRIMINAL 10.069,62 3.020,89 0,00 0,00 0,00 0,00 0,00 14.807,51 27.898,02 1.906,76 5.100,49 0,00 0,00 7.007,25 20.890,77 30/11/2021
724 410100 DIANA GORDILHO SILVEIRA SENA ANALISTA DO MP BELO HORIZONTE - COMARCA; BH-06PJ JUIZO CIVEL-SECRETARIA 14.324,23 2.864,85 0,00 0,00 0,00 0,00 144,40 18.906,08 36.239,56 2.562,53 6.952,63 0,00 0,00 9.515,16 26.724,40 30/11/2021
725 553000 DIANA MARIA MARQUES ANALISTA DO MP BETIM - COMARCA; BETIM-PJ-13PJ 9.444,70 944,47 0,00 0,00 0,00 0,00 30,03 5.872,67 16.291,87 1.474,54 2.350,67 0,00 0,00 3.825,21 12.466,66 30/11/2021
726 520000 DIARLE TOSTE DOS SANTOS ANALISTA DO MP RIO POMBA - COMARCA; RIO POMBA-PJ-UNPJ 10.069,62 1.006,96 0,00 0,00 0,00 0,00 0,00 1.717,00 12.793,58 1.584,53 1.083,82 0,00 0,00 2.668,35 10.125,23 30/11/2021
727 539800 DIEGO CAMARGOS RODRIGUES OFICIAL DO MP CONTAGEM - COMARCA; CONTAGEM-PJ-05PJ 6.123,79 612,38 0,00 0,00 0,00 0,00 0,00 8.453,17 15.189,34 890,06 738,32 0,00 0,00 1.628,38 13.560,96 30/11/2021
728 607300 DIEGO CERVEIRA DE SOUZA ANALISTA DO MP PATOS DE MINAS - COMARCA; COORD REG BACIAS PARACATU,URUCUIA E ABAETE 10.069,62 1.006,96 0,00 0,00 0,00 0,00 284,30 4.818,44 16.179,32 1.584,53 1.740,95 0,00 0,00 3.325,48 12.853,84 30/11/2021
729 446900 DIEGO DE FREITAS OFICIAL DO MP UBERABA - COMARCA; UBERABA-PJ-06PJ 8.170,49 1.634,10 0,00 0,00 0,00 0,00 0,00 11.840,84 21.645,43 1.381,01 1.447,12 0,00 0,00 2.828,13 18.817,30 30/11/2021
730 288800 DILENE NEPOMUCENO ALVES OFICIAL DO MP BELO HORIZONTE - COMARCA; DIRETORIA DE PESSOAL ADMINISTRATIVO - DPAD 10.069,62 3.020,89 0,00 0,00 0,00 0,00 0,00 1.717,00 14.807,51 1.906,76 2.206,17 0,00 0,00 4.112,93 10.694,58 30/11/2021
731 681200 DILLIANY PAULA LOPES SERRANO ASSESSOR PROMOTOR JUSTICA RESPLENDOR - COMARCA; RESPLENDOR-PJ-UNPJ 0,00 0,00 7.187,72 0,00 0,00 0,00 0,00 1.717,00 8.904,72 751,97 1.229,92 0,00 0,00 1.981,89 6.922,83 30/11/2021
732 270101 DILSON DO AMARAL ANALISTA DO MP RIO CASCA - COMARCA; RIO CASCA-PJ-UNPJ 9.444,70 944,47 0,00 0,00 3.463,06 0,00 0,00 1.717,00 15.569,23 1.474,54 2.534,50 0,00 0,00 4.009,04 11.560,19 30/11/2021
733 466000 DIMITRI GUDE MARCIAL ANALISTA DO MP NANUQUE - COMARCA; NANUQUE-PJ-02PJ 10.069,62 2.013,92 0,00 0,00 0,00 0,00 1.006,96 2.486,39 15.576,89 1.906,76 2.101,89 0,00 0,00 4.008,65 11.568,24 30/11/2021
734 516300 DINORA APARECIDA MACEDO BRANDAO ANALISTA DO MP BELO HORIZONTE - COMARCA; BH-19PJ SAUDE-SECRETARIA 150PJ 9.444,70 944,47 0,00 0,00 0,00 0,00 0,00 1.717,00 12.106,17 1.474,54 1.582,16 0,00 0,00 3.056,70 9.049,47 30/11/2021
735 511700 DIOGENES HENRIQUES PEREIRA LOURENCO ANALISTA DO MP BELO HORIZONTE - COMARCA; BH-03PJ EMPRESARIAL-SECRETARIA 10.069,62 2.013,92 0,00 0,00 0,00 0,00 1.006,96 14.569,93 27.660,43 1.906,76 2.206,17 0,00 0,00 4.112,93 23.547,50 30/11/2021
736 604100 DIOGO CESAR DE OLIVEIRA HONORIO ASSESSOR PIUMHI - COMARCA; PIUMHI-PJ-02PJ 0,00 0,00 5.136,32 0,00 0,00 0,00 0,00 1.717,00 6.853,32 738,09 669,60 0,00 0,00 1.407,69 5.445,63 30/11/2021
737 259600 DIOGO MESQUITA MAIA ANALISTA DO MP BELO HORIZONTE - COMARCA; DIRET DE APOIO AS PROCURADORIAS DE JUSTICA 17.413,92 13.931,14 0,00 131,29 0,00 9.613,70 109,41 1.717,00 42.916,46 4.827,49 11.603,83 0,00 0,00 16.431,32 26.485,14 30/11/2021
738 386700 DIRCIMAR FERNANDES CARNEIRO OFICIAL DO MP VISCONDE DO RIO BRANCO - COMARCA; VISCONDE DO RIO BRANCO-PJ-03PJ 8.858,43 6.200,90 0,00 0,00 0,00 0,00 0,00 1.754,80 16.814,13 2.221,77 2.660,97 0,00 0,00 4.882,74 11.931,39 30/11/2021
739 113800 DIRSON APARECIDO GUIMARAES ASSESSOR BELO HORIZONTE - COMARCA; DIVISAO DE MANUTENCAO PREDIAL 0,00 4.622,69 5.136,32 0,00 0,00 0,00 0,00 11.476,01 21.235,02 751,97 1.937,03 0,00 0,00 2.689,00 18.546,02 30/11/2021
740 216700 DOMICIO VALDETE PEREIRA OFICIAL DO MP TEÓFILO OTONI - COMARCA; COORD REG PJ DEF EDU DIR CRIAN ADOL JEQUI MUC 14.790,66 5.916,26 0,00 0,00 0,00 0,00 0,00 23.097,83 43.804,75 3.125,38 3.861,29 0,00 0,00 6.986,67 36.818,08 30/11/2021
741 192701 DONIZETTI APARECIDO AMORIM ANALISTA DO MP PRATÁPOLIS - COMARCA; PRATAPOLIS-PJ-UNPJ 9.752,14 3.900,86 0,00 0,00 0,00 0,00 0,00 15.814,47 29.467,47 1.996,76 2.283,97 0,00 0,00 4.280,73 25.186,74 30/11/2021
742 558700 DORCILIA FATIMA DE OLIVEIRA OFICIAL DO MP DIVINÓPOLIS - COMARCA; DIVINOPOLIS-PJ-02PJ 6.123,79 612,38 0,00 0,00 0,00 890,06 0,00 7.330,48 14.956,71 890,06 930,95 0,00 0,00 1.821,01 13.135,70 30/11/2021
743 555300 DOUGLAS CUNHA DE SOUZA ANALISTA DO MP VARZEA DA PALMA - COMARCA; VARZEA DA PALMA-PJ-01PJ 9.444,70 944,47 0,00 0,00 0,00 0,00 30,03 12.106,17 22.525,37 1.474,54 2.342,76 0,00 0,00 3.817,30 18.708,07 30/11/2021
744 265900 DOUGLAS GOMES MOREIRA ANALISTA DO MP BELO HORIZONTE - COMARCA; CENTRAL DE APOIO TECNICO-SETOR DE ENGENHARIA 18.820,14 5.646,04 0,00 0,00 0,00 0,00 0,00 1.717,00 26.183,18 3.726,87 4.833,95 0,00 0,00 8.560,82 17.622,36 30/11/2021
745 241000 DOUGLAS MEIRELLES DE CASTRO OFICIAL DO MP CONCEIÇÃO DO RIO VERDE - COMARCA; CONCEICAO DO RIO VERDE-PJ-UNPJ 13.011,52 5.204,61 0,00 0,00 0,00 0,00 31,59 13.861,09 32.108,81 2.726,86 4.618,57 0,00 0,00 7.345,43 24.763,38 30/11/2021
746 534900 DOUGLAS SILVA E SOUZA ANALISTA DO MP CAMPOS GERAIS - COMARCA; CAMPOS GERAIS-PJ-01PJ 9.444,70 944,47 0,00 0,00 0,00 0,00 0,00 1.717,00 12.106,17 1.474,54 1.530,03 0,00 0,00 3.004,57 9.101,60 30/11/2021
747 638900 DOUGLAS WALLAS CONCEICAO NEVES OFICIAL DO MP RIBEIRÃO DAS NEVES - COMARCA; RIBEIRAO DAS NEVES-PJ-SEC CIVEL 4.974,42 497,44 0,00 0,00 0,00 0,00 6,96 7.188,86 12.667,68 713,21 849,56 0,00 0,00 1.562,77 11.104,91 30/11/2021
748 146800 DUCINALVA AMARAL LOPES REIS OFICIAL DO MP PARAISÓPOLIS - COMARCA; PARAISOPOLIS-PJ-UNPJ 18.820,14 13.174,10 0,00 0,00 0,00 4.931,36 0,00 33.711,24 70.636,84 4.931,36 7.824,78 0,00 0,00 12.756,14 57.880,70 30/11/2021
749 122500 DUILIO CARLOS FERREIRA UTSCH OFICIAL DO MP CONCEIÇÃO DO MATO DENTRO - COMARCA; CONCEICAO DO MATO DENTRO-PJ-UNPJ 14.790,66 11.832,53 0,00 0,00 0,00 4.071,99 0,00 29.206,64 59.901,82 4.071,99 6.452,02 0,00 0,00 10.524,01 49.377,81 30/11/2021
750 201800 DULCINEIA ANDRE DE SOUZA OFICIAL DO MP JEQUITINHONHA - COMARCA; JEQUITINHONHA-PJ-SECRETARIA 14.790,66 5.916,26 0,00 0,00 0,00 0,00 0,00 23.097,83 43.804,75 3.125,38 3.757,01 0,00 0,00 6.882,39 36.922,36 30/11/2021
751 395800 DUVIDIER MEDIRCIO JUNIOR ANALISTA DO MP BELO HORIZONTE - COMARCA; CENTRAL DE APOIO TECNICO-SETOR DE ENGENHARIA 15.499,20 3.099,84 0,00 0,00 0,00 0,00 129,25 20.316,04 39.044,33 2.788,12 6.750,29 0,00 0,00 9.538,41 29.505,92 30/11/2021
752 604800 ECIA RAMILIS ISSA DE ABREU ANALISTA DO MP BRASÍLIA DE MINAS - COMARCA; BRASILIA DE MINAS-PJ-01PJ 9.146,93 914,69 0,00 0,00 3.353,87 0,00 0,00 12.106,17 25.521,66 1.422,14 2.428,81 0,00 0,00 3.850,95 21.670,71 30/11/2021
753 273000 EDELFINA APARECIDA GUIMARAES OFICIAL DO MP CACHOEIRA DE MINAS - COMARCA; CACHOEIRA DE MINAS-PJ-UNPJ 10.069,62 7.048,73 0,00 0,00 0,00 0,00 0,00 1.717,00 18.835,35 2.551,21 3.084,47 0,00 0,00 5.635,68 13.199,67 30/11/2021
754 523300 EDER DOS SANTOS PATRICIO ANALISTA DO MP NOVA SERRANA - COMARCA; NOVA SERRANA-PJ-03PJ 10.069,62 1.006,96 0,00 0,00 0,00 0,00 0,00 2.486,39 13.562,97 841,65 1.797,35 0,00 0,00 2.639,00 10.923,97 30/11/2021
755 356700 EDER JOSE PACHECO OFICIAL DO MP CAMPO BELO - COMARCA; CAMPO BELO-PJ-SECRETARIA 10.069,62 3.020,89 0,00 0,00 0,00 0,00 0,00 15.576,90 28.667,41 1.906,76 2.101,90 0,00 0,00 4.008,66 24.658,75 30/11/2021
756 507900 EDERSON SILVA LOPES OFICIAL DO MP BELO HORIZONTE - COMARCA; LABORATORIO TECNOLOGIA INTELIGENCIA 6.123,79 1.224,76 0,00 0,00 0,00 0,00 612,38 10.342,26 18.303,19 1.086,03 916,96 0,00 0,00 2.002,99 16.300,20 30/11/2021
757 296200 EDGARD GOULART MATOSINHO DE LAET JR ANALISTA DO MP GOVERNADOR VALADARES - COMARCA; GAECO REGIONAL DE GOVERNADOR VALADARES 17.413,92 5.224,18 0,00 0,00 0,00 0,00 498,04 7.150,14 30.286,28 3.434,37 6.306,99 0,00 0,00 9.741,36 20.544,92 30/11/2021
758 295000 EDILA MARIA DA SILVEIRA OFICIAL DO MP FORMIGA - COMARCA; FORMIGA-PJ-01PJ 8.858,43 2.657,53 0,00 0,00 0,00 0,00 0,00 13.608,01 25.123,97 1.654,83 1.842,45 0,00 0,00 3.497,28 21.626,69 30/11/2021
759 332300 EDILA MARILAC MIRANDA PRADO OFICIAL DO MP DIAMANTINA - COMARCA; DIAMANTINA-PJ-01PJ 10.069,62 5.034,81 0,00 0,00 5.034,81 0,00 0,00 10.808,00 30.947,24 2.228,99 3.951,68 0,00 0,00 6.180,67 24.766,57 30/11/2021
760 376600 EDILANE CONSOLACAO ROSA NAZARETH ANALISTA DO MP BETIM - COMARCA; BETIM-PJ-10PJ 14.324,23 2.864,85 0,00 0,00 0,00 0,00 0,00 1.717,00 18.906,08 713,54 3.439,58 0,00 0,00 4.153,12 14.752,96 30/11/2021
761 309800 EDILZA DOS REIS OFICIAL DO MP UBERLÂNDIA - COMARCA; UBERLANDIA-PJ-03PJ 10.069,62 3.020,89 0,00 0,00 0,00 0,00 0,00 14.807,51 27.898,02 1.906,76 2.154,03 0,00 0,00 4.060,79 23.837,23 30/11/2021
762 200500 EDINEIA MARIA DE OLIVEIRA ANTUNES OFICIAL DO MP MONTES CLAROS - COMARCA; MONTES CLAROS-PJ-10PJ 15.272,02 6.108,81 0,00 0,00 0,00 0,00 61,77 23.097,83 44.540,43 3.233,21 5.746,21 0,00 0,00 8.979,42 35.561,01 30/11/2021
763 427700 EDISANGELA SOARES LOPES OFICIAL DO MP PIRAPORA - COMARCA; PIRAPORA-PJ-02PJ 6.123,79 1.224,76 0,00 0,00 0,00 0,00 0,00 1.717,00 9.065,55 988,05 879,78 0,00 0,00 1.867,83 7.197,72 30/11/2021
764 555400 EDISON MONTEIRO SAMPAIO NETO ANALISTA DO MP BELO HORIZONTE - COMARCA; BH-12PJ JUIZO CRIMINAL-GAB 094PJ 9.444,70 944,47 0,00 0,00 0,00 0,00 0,00 12.106,17 22.495,34 1.474,54 2.372,79 0,00 0,00 3.847,33 18.648,01 30/11/2021
765 517700 EDMILSON TADEU FERNANDES OFICIAL DO MP POUSO ALEGRE - COMARCA; GAECO REGIONAL DE POUSO ALEGRE 7.421,79 742,18 0,00 0,00 0,00 0,00 68,58 1.717,00 9.949,55 1.118,51 2.806,11 0,00 0,00 3.924,62 6.024,93 30/11/2021
766 358400 EDNA APARECIDA SILVA FERREIRA OFICIAL DO MP CORONEL FABRICIANO - COMARCA; CORONEL FABRICIANO-PJ-02PJ 9.146,93 2.744,08 0,00 0,00 0,00 0,00 0,00 11.316,71 23.207,72 1.714,84 1.824,81 0,00 0,00 3.539,65 19.668,07 30/11/2021
767 331800 EDNA MARCIA CAMILO DA SILVA OFICIAL DO MP SETE LAGOAS - COMARCA; SETE LAGOAS-PJ-SEC CRIMINAIS 10.069,62 3.020,89 0,00 0,00 0,00 0,00 0,00 1.717,00 14.807,51 1.906,76 2.154,03 0,00 0,00 4.060,79 10.746,72 30/11/2021
768 327900 EDRIEL SANTANA PEREIRA OFICIAL DO MP TUPACIGUARA - COMARCA; TUPACIGUARA-PJ-01PJ 10.069,62 3.020,89 0,00 0,00 0,00 0,00 0,00 16.012,31 29.102,82 1.906,76 2.206,17 0,00 0,00 4.112,93 24.989,89 30/11/2021
769 482400 EDSON GARCIA OFICIAL DO MP MACHADO - COMARCA; MACHADO-PJ-02PJ 5.743,70 574,37 0,00 0,00 0,00 0,00 0,00 8.383,26 14.701,33 823,75 537,30 0,00 0,00 1.361,05 13.340,28 30/11/2021
770 225601 EDSON LABRE FILHO ANALISTA DO MP VARGINHA - COMARCA; VARGINHA-PJ-01PJ 17.413,92 5.224,18 0,00 0,00 0,00 0,00 79,02 24.355,10 47.072,22 3.434,37 6.359,13 0,00 0,00 9.793,50 37.278,72 30/11/2021
771 602700 EDSON NOGUEIRA BUENO OFICIAL DO MP PITANGUI - COMARCA; PITANGUI-PJ-02PJ 5.387,19 538,72 0,00 0,00 0,00 0,00 0,00 1.717,00 7.642,91 762,96 550,45 0,00 0,00 1.313,41 6.329,50 30/11/2021
772 414400 EDUARDO ABRANTES CAMPOS ANALISTA DO MP SÃO JOÃO DEL REI - COMARCA; SAO JOAO DEL REI-PJ-02PJ 14.324,23 2.864,85 0,00 0,00 5.729,69 0,00 144,40 18.906,08 41.969,25 2.562,53 8.383,90 0,00 0,00 10.946,43 31.022,82 30/11/2021
773 476800 EDUARDO ALVES DE MOURA ANALISTA DO MP UBERLÂNDIA - COMARCA; UBERLANDIA-PJ-02PJ 10.069,62 2.013,92 0,00 0,00 0,00 0,00 0,00 14.569,93 26.653,47 841,65 1.949,22 0,00 0,00 2.790,87 23.862,60 30/11/2021
774 390800 EDUARDO AMORIM PETTERSEN OFICIAL DO MP CARANGOLA - COMARCA; CARANGOLA-PJ-SECRETARIA 8.579,10 1.715,82 0,00 0,00 0,00 0,00 0,00 13.187,38 23.482,30 1.459,46 1.560,39 0,00 0,00 3.019,85 20.462,45 30/11/2021
775 461600 EDUARDO ANTONIO DE ASSIS FARIA ASSESSOR BELO HORIZONTE - COMARCA; ASSESS EXECUTIVA DO CONSELHO SUPERIOR DO MP 0,00 0,00 8.170,49 0,00 0,00 0,00 0,00 2.486,39 10.656,88 751,97 1.395,91 0,00 0,00 2.147,88 8.509,00 30/11/2021
776 248800 EDUARDO DE CASTRO AMORIM ANALISTA DO MP BELO HORIZONTE - COMARCA; SUPER DE GESTAO DE PESSOAS-LOTACAO TEMPORARIA 18.820,14 5.646,04 0,00 0,00 0,00 0,00 0,00 26.183,18 50.649,36 3.726,87 4.833,95 0,00 0,00 8.560,82 42.088,54 30/11/2021
777 209100 EDUARDO DE SOUZA MAIA ANALISTA DO MP BELO HORIZONTE - COMARCA; SUPER DE GESTAO DE PESSOAS-LOTACAO TEMPORARIA 18.820,14 7.528,06 0,00 0,00 0,00 0,00 0,00 1.717,00 28.065,20 4.027,99 5.112,29 0,00 0,00 9.140,28 18.924,92 30/11/2021
778 633900 EDUARDO GONCALVES PIRES OFICIAL DO MP BELO HORIZONTE - COMARCA; DIRETORIA DE PAGAMENTO DE PESSOAL-DPAG 5.930,75 1.779,23 0,00 0,00 0,00 0,00 0,00 10.204,83 17.914,81 1.045,87 963,27 0,00 0,00 2.009,14 15.905,67 30/11/2021
779 350500 EDUARDO GONCALVES RIBEIRO OFICIAL DO MP VESPASIANO - COMARCA; VESPASIANO-PJ-04PJ 9.146,93 2.744,08 0,00 0,00 0,00 0,00 31,74 13.608,01 25.530,76 1.714,84 2.798,05 0,00 0,00 4.512,89 21.017,87 30/11/2021
780 115800 EDUARDO HENRIQUE DE CAMPOS MAIA OFICIAL DO MP BELO HORIZONTE - COMARCA; DIV FISCAL ADM CONT TERCEIRIZACAO 16.750,82 8.375,41 0,00 0,00 0,00 0,00 0,00 1.717,00 26.843,23 3.832,47 4.830,01 0,00 0,00 8.662,48 18.180,75 30/11/2021
781 392600 EDUARDO HENRIQUE DOS SANTOS COSTA ELIAZAR OFICIAL DO MP MATOZINHOS - COMARCA; MATOZINHOS-PJ-01PJ 8.579,10 1.715,82 0,00 0,00 0,00 0,00 73,29 12.011,92 22.380,13 1.459,46 3.333,79 0,00 0,00 4.793,25 17.586,88 30/11/2021
782 99101 EDUARDO JOSE DE FREITAS NUNES ASSESSOR BELO HORIZONTE - COMARCA; PROC JUST ATUACAO TRIBUNAIS SUPERIORES-GAB007 0,00 2.054,53 5.136,32 0,00 0,00 0,00 5.136,32 1.717,00 14.044,17 751,97 2.643,27 0,00 0,00 3.395,24 10.648,93 30/11/2021
783 407500 EDUARDO MASCARENHAS CURI AZEVEDO COORDENADOR/ANALISTA BELO HORIZONTE - COMARCA; DIR CONTEUDO JORNALISTICO 0,00 2.687,03 13.435,16 0,00 0,00 0,00 0,00 2.486,39 18.608,58 1.745,64 3.084,19 0,00 0,00 4.829,83 13.778,75 30/11/2021
784 601300 EDUARDO TRAD VIEIRA OFICIAL DO MP SILVIANÓPOLIS - COMARCA; SILVIANOPOLIS-PJ-UNPJ 5.562,64 556,26 0,00 0,00 0,00 0,00 0,00 1.717,00 7.835,90 792,88 595,30 0,00 0,00 1.388,18 6.447,72 30/11/2021
785 257600 EDUARDO VALADARES CABRAL ANALISTA DO MP BELO HORIZONTE - COMARCA; COORD DE INCLUSAO E MOBILIZACAO SOCIAIS 16.112,82 4.833,85 0,00 0,00 0,00 0,00 0,00 22.663,67 43.610,34 3.163,74 4.020,95 0,00 0,00 7.184,69 36.425,65 30/11/2021
786 545700 EDVAIR FERREIRA DE CARVALHO OFICIAL DO MP ARAGUARI - COMARCA; ARAGUARI-PJ-06PJ 5.562,64 556,26 0,00 0,00 0,00 0,00 0,00 1.717,00 7.835,90 792,88 543,16 0,00 0,00 1.336,04 6.499,86 30/11/2021
787 401700 EDWANIA AMORIM DO CARMO OFICIAL DO MP RIBEIRÃO DAS NEVES - COMARCA; RIBEIRAO DAS NEVES-PJ-03PJ 8.858,43 1.771,69 0,00 0,00 0,00 0,00 0,00 12.693,32 23.323,44 1.513,10 1.637,82 0,00 0,00 3.150,92 20.172,52 30/11/2021
788 303600 EFIGENIO SARAIVA LOPES ANALISTA DO MP BELO HORIZONTE - COMARCA; DIRETORIA DE PAGAMENTO DE PESSOAL-DPAG 18.820,14 5.646,04 0,00 0,00 0,00 0,00 0,00 26.183,18 50.649,36 3.726,87 4.729,68 0,00 0,00 8.456,55 42.192,81 30/11/2021
789 286000 ELAINE APARECIDA SILVA BERZOINI OFICIAL DO MP JUIZ DE FORA - COMARCA; JUIZ DE FORA-PJ-14PJ 10.069,62 3.020,89 0,00 0,00 0,00 0,00 0,00 14.807,51 27.898,02 1.906,76 2.206,17 0,00 0,00 4.112,93 23.785,09 30/11/2021
790 509000 ELAINE CANDIDA PONTES OFICIAL DO MP BELO HORIZONTE - COMARCA; BH-02PJ FAMILIA-SECRETARIA 7.421,79 1.484,36 0,00 0,00 0,00 0,00 742,18 11.521,59 21.169,92 1.356,01 1.411,03 0,00 0,00 2.767,04 18.402,88 30/11/2021
791 283601 ELAINE CRISTINA MEQUELINO DUARTE ANALISTA DO MP ALFENAS - COMARCA; ALFENAS-PJ-02PJ 14.324,23 2.864,85 0,00 0,00 0,00 0,00 0,00 19.465,79 36.654,87 2.562,53 3.048,67 0,00 0,00 5.611,20 31.043,67 30/11/2021
792 535500 ELAINE DE OLIVEIRA CAMPOS REIS OFICIAL DO MP RIBEIRÃO DAS NEVES - COMARCA; RIBEIRAO NEVES-SEC PJ EXECUCAO PENAL 6.123,79 612,38 0,00 0,00 2.245,39 0,00 0,00 8.453,17 17.434,73 890,06 1.355,80 0,00 0,00 2.245,86 15.188,87 30/11/2021
793 455700 ELAINE DE OLIVEIRA CASTRO ANALISTA DO MP POMPÉU - COMARCA; POMPEU-PJ-UNPJ 10.069,62 2.013,92 0,00 0,00 0,00 0,00 0,00 13.800,54 25.884,08 1.745,64 1.921,43 0,00 0,00 3.667,07 22.217,01 30/11/2021
794 367200 ELAINE MUNIZ BARBOSA ANALISTA DO MP BELO HORIZONTE - COMARCA; DIRETORIA DE SISTEMAS DE INFORMACAO 15.272,02 3.054,40 0,00 0,00 0,00 0,00 0,00 2.486,39 20.812,81 2.744,50 4.703,89 0,00 0,00 7.448,39 13.364,42 30/11/2021
795 679200 ELAINE RIBEIRO CHAVES ASSESSOR PROCURADOR JUSTICA BELO HORIZONTE - COMARCA; GABINETE DE PROCURADOR DE JUSTIÇA - SALA 614 0,00 0,00 7.187,72 0,00 0,00 0,00 0,00 1.717,00 8.904,72 751,97 1.229,92 0,00 0,00 1.981,89 6.922,83 30/11/2021
796 176900 ELAINE RIBEIRO TAVEIRA OFICIAL DO MP BELO HORIZONTE - COMARCA; DIRETORIA DE PESSOAL ADMINISTRATIVO - DPAD 13.435,16 5.374,06 0,00 0,00 0,00 0,00 54,37 1.717,00 20.580,59 2.821,75 4.957,62 0,00 0,00 7.779,37 12.801,22 30/11/2021
797 496200 ELAINE SABRINA MOREIRA SCHUWARTEN ANALISTA DO MP IPATINGA - COMARCA; GAECO REGIONAL DE IPATINGA 10.069,62 2.013,92 0,00 0,00 0,00 0,00 0,00 14.600,30 26.683,84 1.745,64 1.973,56 0,00 0,00 3.719,20 22.964,64 30/11/2021
798 489200 ELAINE VICENTINO GARCIA ANALISTA DO MP BELO HORIZONTE - COMARCA; CENTRAL DE APOIO TECNICO-SETOR CONTABIL 10.069,62 3.020,89 0,00 0,00 0,00 0,00 0,00 1.717,00 14.807,51 1.906,76 2.101,90 0,00 0,00 4.008,66 10.798,85 30/11/2021
799 244500 ELCI ALVES DE SOUZA ASSESSOR BELO HORIZONTE - COMARCA; CAO-CONFLITOS AGRARIOS-SECRETARIA 0,00 1.540,90 5.136,32 0,00 0,00 0,00 0,00 1.717,00 8.394,22 751,97 1.037,40 0,00 0,00 1.789,37 6.604,85 30/11/2021
800 472500 ELCI VAZ DE OLIVEIRA FILHO ANALISTA DO MP PIUMHI - COMARCA; PIUMHI-PJ-02PJ 10.069,62 5.034,81 0,00 0,00 0,00 0,00 0,00 1.717,00 16.821,43 2.228,99 2.671,39 0,00 0,00 4.900,38 11.921,05 30/11/2021
801 385200 ELCI VIANA REIS OFICIAL DO MP RIO PARDO DE MINAS - COMARCA; RIO PARDO DE MINAS-PJ-SECRETARIA 9.146,93 3.658,77 0,00 0,00 0,00 0,00 37,02 14.522,70 27.365,42 1.861,19 3.077,95 0,00 0,00 4.939,14 22.426,28 30/11/2021
802 289801 ELCIO JOSE DOS SANTOS ASSESSOR/ANALISTA BELO HORIZONTE - COMARCA; DIVISAO DE SERVICOS 0,00 2.520,26 12.601,30 0,00 0,00 0,00 0,00 16.838,56 31.960,12 1.745,64 2.809,02 0,00 0,00 4.554,66 27.405,46 30/11/2021
803 319600 ELEN TULER DE ALBERGARIA ANALISTA DO MP BELO HORIZONTE - COMARCA; BH-19PJ SAUDE-SECRETARIA 130PJ 13.872,60 5.549,04 0,00 0,00 0,00 0,00 0,00 23.097,83 42.519,47 2.919,74 3.668,66 0,00 0,00 6.588,40 35.931,07 30/11/2021
804 205500 ELIANA ALVES DE SOUSA OFICIAL DO MP GOVERNADOR VALADARES - COMARCA; GOVERNADOR VALADARES-PJ-07PJ 10.069,62 4.027,85 0,00 0,00 0,00 0,00 0,00 1.717,00 15.814,47 2.067,87 2.438,78 0,00 0,00 4.506,65 11.307,82 30/11/2021
805 628800 ELIANA APARECIDA PEREIRA ANALISTA DO MP CAMBUÍ - COMARCA; CAMBUI-PJ-02PJ 7.663,37 766,34 0,00 0,00 0,00 0,00 0,00 10.997,18 19.426,89 1.161,03 1.077,39 0,00 0,00 2.238,42 17.188,47 30/11/2021
806 301700 ELIANA DA SILVEIRA ANALISTA DO MP BELO HORIZONTE - COMARCA; BH-11PJ COMB CRIME ORGANIZ-GAB 081PJ 15.272,02 4.581,61 0,00 0,00 0,00 0,00 0,00 1.717,00 21.570,63 2.988,86 3.768,45 0,00 0,00 6.757,31 14.813,32 30/11/2021
807 251500 ELIANA DE LIMA MILAGRES FONSECA ANALISTA DO MP CONTAGEM - COMARCA; CONTAGEM-PJ-16PJ 15.272,02 4.581,61 0,00 0,00 0,00 0,00 0,00 21.570,63 41.424,26 2.988,86 3.664,18 0,00 0,00 6.653,04 34.771,22 30/11/2021
808 503900 ELIANA DIAS DUTRA FERREIRA OFICIAL DO MP GOVERNADOR VALADARES - COMARCA; GOVERNADOR VALADARES-PJ-10PJ 7.663,37 1.532,67 0,00 0,00 0,00 0,00 0,00 0,00 9.196,04 1.283,64 1.202,28 0,00 0,00 2.485,92 6.710,12 30/11/2021
809 413900 ELIANA PINTO DE OLIVEIRA NEVES ANALISTA DO MP CAMPO BELO - COMARCA; CAMPO BELO-PJ-04PJ 12.601,30 2.520,26 0,00 0,00 0,00 0,00 0,00 1.717,00 16.838,56 2.231,73 2.675,34 0,00 0,00 4.907,07 11.931,49 30/11/2021
810 228200 ELIANA RODRIGUES DA CUNHA PINHEIRO OFICIAL DO MP BELO HORIZONTE - COMARCA; DIRETORIA DE PROJETOS DE EDIFICACOES 12.601,30 3.780,39 0,00 0,00 0,00 2.433,35 0,00 18.631,98 37.447,02 2.433,35 3.635,60 0,00 0,00 6.068,95 31.378,07 30/11/2021
811 386600 ELIANA SABINO CHAVES PESSOA ANALISTA DO MP CARATINGA - COMARCA; CARATINGA-PJ-06PJ 14.324,23 10.026,96 0,00 0,00 0,00 0,00 204,57 26.068,19 50.623,95 3.708,47 10.136,31 0,00 0,00 13.844,78 36.779,17 30/11/2021
812 677500 ELIANA SILVA ANDRADE ASSESSOR PROMOTOR JUSTICA TRÊS CORACOES - COMARCA; TRES CORACOES-PJ-06PJ 0,00 0,00 7.187,72 0,00 0,00 0,00 0,00 1.717,00 8.904,72 751,97 1.229,92 0,00 0,00 1.981,89 6.922,83 30/11/2021
813 297400 ELIANE AUGUSTA RIBEIRO COSTA ANALISTA DO MP CONSELHEIRO LAFAIETE - COMARCA; CONSELHEIRO LAFAIETE-PJ-05PJ 18.103,37 5.431,01 0,00 0,00 0,00 0,00 0,00 25.251,38 48.785,76 3.577,78 4.514,43 0,00 0,00 8.092,21 40.693,55 30/11/2021
814 510600 ELIANE CAROLINA MAIA ANALISTA DO MP IGARAPÉ - COMARCA; IGARAPE-PJ-03PJ 10.069,62 1.006,96 0,00 0,00 0,00 0,00 0,00 5.409,19 16.485,77 1.584,53 1.584,54 0,00 0,00 3.169,07 13.316,70 30/11/2021
815 262600 ELIANE FERREIRA SOARES ASSESSOR BELO HORIZONTE - COMARCA; BH-18PJ DIREITOS HUMANOS-SECRETARIA 0,00 2.054,53 5.136,32 0,00 0,00 0,00 0,00 1.717,00 8.907,85 751,97 1.178,64 0,00 0,00 1.930,61 6.977,24 30/11/2021
816 204400 ELIANE GLAUCE DE QUEIROS MAIA OFICIAL DO MP GUANHÃES - COMARCA; GUANHAES-PJ-02PJ 14.790,66 5.916,26 0,00 0,00 0,00 0,00 531,48 28.895,77 50.134,17 3.125,38 3.965,56 0,00 0,00 7.090,94 43.043,23 30/11/2021
817 91800 ELIANE KAPLER ALVES OFICIAL DO MP BELO HORIZONTE - COMARCA; DIVISAO DE CONTROLE IMOBILIARIO 18.820,14 9.410,07 0,00 0,00 0,00 0,00 0,00 29.947,21 58.177,42 4.329,11 5.599,17 0,00 0,00 9.928,28 48.249,14 30/11/2021
818 334200 ELIANE MARCIA DE OLIVEIRA BRITO OFICIAL DO MP BELO HORIZONTE - COMARCA; BH-08PJ JUIZADO ESPECIAL-SECRETARIA 6.123,79 1.837,14 0,00 0,00 0,00 0,00 0,00 1.717,00 9.677,93 1.086,03 1.021,24 0,00 0,00 2.107,27 7.570,66 30/11/2021
819 365900 ELIANE MARIA DE OLIVEIRA FERREIRA OFICIAL DO MP SETE LAGOAS - COMARCA; SETE LAGOAS-PJ-SEC CRIMINAIS 10.069,62 5.034,81 0,00 0,00 0,00 0,00 0,00 1.717,00 16.821,43 2.228,99 2.671,39 0,00 0,00 4.900,38 11.921,05 30/11/2021
820 320600 ELIANE STADLER DE SOUZA OFICIAL DO MP FRANCISCO SÁ - COMARCA; FRANCISCO SA-PJ-SECRETARIA 9.146,93 2.744,08 0,00 0,00 0,00 0,00 0,00 13.608,01 25.499,02 1.714,84 1.876,95 0,00 0,00 3.591,79 21.907,23 30/11/2021
821 448900 ELIAS PEREIRA OTONI ASSESSOR BELO HORIZONTE - COMARCA; BH-18PJ DIREITOS HUMANOS-SECRETARIA 0,00 0,00 3.076,28 0,00 0,00 0,00 0,00 1.717,00 4.793,28 449,69 162,01 0,00 0,00 611,70 4.181,58 30/11/2021
822 495400 ELICA SOUZA GASPARONI MATTOS OFICIAL DO MP UBÁ - COMARCA; UBA-PJ-06PJ 7.663,37 1.532,67 0,00 0,00 0,00 0,00 0,00 1.717,00 10.913,04 1.283,64 1.306,55 0,00 0,00 2.590,19 8.322,85 30/11/2021
823 86600 ELIENE FERREIRA DA SILVA OFICIAL DO MP BELO HORIZONTE - COMARCA; BH-22PJ PES COM DEF E IDOSOS-SECRETARIA 21.145,12 14.801,58 0,00 0,00 0,00 5.486,23 0,00 37.179,22 78.612,15 5.486,23 8.726,34 484,48 0,00 14.697,05 63.915,10 30/11/2021
824 183800 ELIENE MARIA CUNHA OFICIAL DO MP BELO HORIZONTE - COMARCA; DIRETORIA DE PESSOAL ADMINISTRATIVO - DPAD 15.272,02 6.108,81 0,00 0,00 0,00 0,00 0,00 25.168,15 46.548,98 3.233,21 4.069,10 0,00 0,00 7.302,31 39.246,67 30/11/2021
825 172300 ELINA APARECIDA SILVA ASSESSOR BELO HORIZONTE - COMARCA; BH-19PJ SAUDE-SECRETARIA 130PJ 0,00 1.230,51 3.076,28 0,00 0,00 0,00 0,00 1.717,00 6.023,79 621,96 421,28 0,00 0,00 1.043,24 4.980,55 30/11/2021
826 492501 ELINE CAMPOS DA FONSECA CUNHA ANALISTA DO MP PONTE NOVA - COMARCA; PONTE NOVA-PJ-02PJ 10.069,62 2.013,92 0,00 0,00 0,00 0,00 93,04 9.772,69 21.949,27 1.745,64 4.415,66 0,00 0,00 6.161,30 15.787,97 30/11/2021
827 618900 ELISA MOURA VIEIRA MARCATTI OFICIAL DO MP BELO HORIZONTE - COMARCA; BH-23PJ CIVEL-SEC EXP CIVEIS 5.930,75 593,08 0,00 0,00 0,00 0,00 0,00 2.486,39 9.010,22 856,09 2.084,47 0,00 0,00 2.940,56 6.069,66 30/11/2021
828 256500 ELISABETE NOGUEIRA ANALISTA DO MP RIBEIRÃO DAS NEVES - COMARCA; RIBEIRAO NEVES-SEC PJ EXECUCAO PENAL 15.272,02 7.636,01 0,00 0,00 0,00 0,00 0,00 24.625,03 47.533,06 3.477,56 4.317,61 0,00 0,00 7.795,17 39.737,89 30/11/2021
829 355000 ELISANGELA DARLANTONI RIBEIRO OFICIAL DO MP ARAXÁ - COMARCA; ARAXA-PJ-05PJ 8.579,10 2.573,73 0,00 0,00 0,00 0,00 0,00 13.995,11 25.147,94 1.596,73 1.706,43 0,00 0,00 3.303,16 21.844,78 30/11/2021
830 604400 ELISANGELA DEMASI FERREIRA MOREIRA ANALISTA DO MP CABO VERDE - COMARCA; CABO VERDE-PJ-UNPJ 9.146,93 914,69 0,00 0,00 0,00 0,00 0,00 12.106,17 22.167,79 1.422,14 1.506,50 0,00 0,00 2.928,64 19.239,15 30/11/2021
831 323800 ELISANGELA GONCALVES DE JESUS OFICIAL DO MP BELO HORIZONTE - COMARCA; DIVISAO FROTA 9.444,70 2.833,41 0,00 0,00 0,00 0,00 0,00 14.807,51 27.085,62 1.776,77 1.966,37 0,00 0,00 3.743,14 23.342,48 30/11/2021
832 507400 ELISANGELA MIGUEL DA ROCHA SILVA ASSESSOR BELO HORIZONTE - COMARCA; EXTINTA-CGMP-DIV APOIO FISC ORIENT FUNCIONAL 0,00 0,00 5.136,32 0,00 0,00 0,00 0,00 2.486,39 7.622,71 738,09 617,47 0,00 0,00 1.355,56 6.267,15 30/11/2021
833 261400 ELISANGELA REZENDE MENDES OFICIAL DO MP POUSO ALEGRE - COMARCA; POUSO ALEGRE-PJ-05PJ 10.069,62 3.020,89 0,00 0,00 0,00 0,00 0,00 14.807,51 27.898,02 1.906,76 2.206,17 0,00 0,00 4.112,93 23.785,09 30/11/2021
834 534100 ELISANGELA ROSINE SILVA OFICIAL DO MP UBERABA - COMARCA; UBERABA-PJ-06PJ 5.562,64 556,26 0,00 0,00 0,00 0,00 0,00 7.835,90 13.954,80 792,88 595,30 0,00 0,00 1.388,18 12.566,62 30/11/2021
835 634300 ELIUDE GRACA DAMASIO ROSARIO FRANCELINO OFICIAL DO MP BELO HORIZONTE - COMARCA; BH-18PJ VIOLENCIA DOMESTICA-SECRETARIA 4.974,42 497,44 0,00 0,00 0,00 0,00 0,00 2.922,38 8.394,24 694,23 444,49 0,00 0,00 1.138,72 7.255,52 30/11/2021
836 461700 ELIZABETH ALEIXO DA PAZ ANALISTA DO MP JUIZ DE FORA - COMARCA; JUIZ DE FORA-PJ-18PJ 10.069,62 2.013,92 0,00 0,00 0,00 0,00 0,00 13.800,54 25.884,08 1.745,64 1.973,56 0,00 0,00 3.719,20 22.164,88 30/11/2021
837 227300 ELIZABETH COIMBRA FELIX OFICIAL DO MP BELO HORIZONTE - COMARCA; DIRETORIA DE PAGAMENTO DE PESSOAL-DPAG 14.324,23 5.729,69 0,00 0,00 0,00 0,00 168,46 20.534,94 40.757,32 3.020,90 7.974,23 0,00 0,00 10.995,13 29.762,19 30/11/2021
838 354800 ELIZABETH DOS REIS OFICIAL DO MP BELO HORIZONTE - COMARCA; DIVISAO DE MATERIAIS 10.069,62 3.020,89 0,00 0,00 0,00 0,00 0,00 14.807,51 27.898,02 1.906,76 2.154,03 0,00 0,00 4.060,79 23.837,23 30/11/2021
839 612000 ELIZABETH MARIA DE QUEIROZ TANIGUCHI OFICIAL DO MP BELO HORIZONTE - COMARCA; SUPERINTENDENCIA GESTÃO DE PESSOAS 5.387,19 538,72 0,00 0,00 0,00 0,00 0,00 1.717,00 7.642,91 762,96 550,45 0,00 0,00 1.313,41 6.329,50 30/11/2021
840 452800 ELIZANGELA MARIA DAVI OFICIAL DO MP ARCOS - COMARCA; ARCOS-PJ-01PJ 6.123,79 1.224,76 0,00 0,00 0,00 0,00 0,00 9.065,55 16.414,10 988,05 827,64 0,00 0,00 1.815,69 14.598,41 30/11/2021
841 496300 ELIZANGELA MARQUES PINTO COELHO OFICIAL DO MP BELO HORIZONTE - COMARCA; DIRETORIA DE PESSOAL ADMINISTRATIVO - DPAD 7.663,37 1.532,67 0,00 0,00 0,00 0,00 0,00 11.212,42 20.408,46 1.283,64 1.306,55 0,00 0,00 2.590,19 17.818,27 30/11/2021
842 422500 ELIZETE FORTES DA CUNHA ANALISTA DO MP RIBEIRÃO DAS NEVES - COMARCA; RIBEIRAO DAS NEVES-PJ-07PJ 13.011,52 2.602,30 0,00 0,00 0,00 0,00 0,00 18.906,08 34.519,90 2.310,49 2.736,92 0,00 0,00 5.047,41 29.472,49 30/11/2021
843 506100 ELLEM CRISTINA ROCHA FONSECA BOWEN ANALISTA DO MP GOVERNADOR VALADARES - COMARCA; COORD REG PJ DEF EDU DIR CRIANCA ADOL RIODOCE 10.069,62 2.013,92 0,00 0,00 0,00 0,00 1.006,96 1.717,00 14.807,50 1.906,76 2.206,17 0,00 0,00 4.112,93 10.694,57 30/11/2021
844 468200 ELLEN CRISTINA BERNARDES DARE ANALISTA DO MP TRÊS PONTAS - COMARCA; TRES PONTAS-PJ-02PJ 10.069,62 2.013,92 0,00 0,00 0,00 0,00 0,00 2.486,39 14.569,93 1.745,64 1.921,43 0,00 0,00 3.667,07 10.902,86 30/11/2021
845 418800 ELLEN CRISTINA DE QUEIROZ FERREIRA ANALISTA DO MP BELO HORIZONTE - COMARCA; CENTRAL DE APOIO TECNICO-SETOR CONTABIL 13.011,52 2.602,30 0,00 0,00 0,00 0,00 45,12 2.870,54 18.529,48 895,80 4.167,57 0,00 0,00 5.063,37 13.466,11 30/11/2021
846 328401 ELLEN CRISTINA FERREIRA MORAIS MONTEIRO ANALISTA DO MP CAMANDUCAIA - COMARCA; CAMANDUCAIA-PJ-UNPJ 13.011,52 2.602,30 0,00 0,00 0,00 0,00 0,00 1.717,00 17.330,82 2.310,49 3.827,05 0,00 0,00 6.137,54 11.193,28 30/11/2021
847 556100 ELLEN CRISTINE BIANCHIN DA SILVA OFICIAL DO MP SÃO GONÇALO DO SAPUCAÍ - COMARCA; SAO GONCALO DO SAPUCAI-PJ-02PJ 5.562,64 556,26 0,00 0,00 0,00 0,00 336,54 11.507,24 17.962,68 792,88 1.011,57 0,00 0,00 1.804,45 16.158,23 30/11/2021
848 447100 ELLEN ROSANA DE MACEDO BORGES OFICIAL DO MP UBERLÂNDIA - COMARCA; UBERLANDIA-PJ-17PJ 8.579,10 1.715,82 0,00 0,00 0,00 0,00 73,29 8.580,28 18.948,49 1.459,46 3.490,20 0,00 0,00 4.949,66 13.998,83 30/11/2021
849 477700 ELMA JACOB OFICIAL DO MP BELO HORIZONTE - COMARCA; COORD DE GABINETE DO PGJ 7.912,85 5.539,00 0,00 46,65 0,00 3.660,22 38,88 15.168,85 32.366,45 1.964,57 4.216,94 0,00 0,00 6.181,51 26.184,94 30/11/2021
850 123300 ELMA PAULA DOS SANTOS COELHO OFICIAL DO MP BELO HORIZONTE - COMARCA; BH-19PJ SAUDE-SECRETARIA 130PJ 18.820,14 16.938,13 0,00 0,00 0,00 5.486,23 0,00 37.179,22 78.423,72 5.486,23 8.882,75 296,05 0,00 14.665,03 63.758,69 30/11/2021
851 356500 ELOISA CARDOSO SILVA FRANCA OFICIAL DO MP PEÇANHA - COMARCA; PECANHA-PJ-SECRETARIA 6.123,79 1.837,14 0,00 0,00 0,00 0,00 0,00 1.717,00 9.677,93 1.086,03 916,96 0,00 0,00 2.002,99 7.674,94 30/11/2021
852 251901 ELOISA COSTA E SILVA ANALISTA DO MP SANTOS DUMONT - COMARCA; SANTOS DUMONT-PJ-02PJ 10.069,62 3.020,89 0,00 0,00 0,00 0,00 0,00 2.486,39 15.576,90 1.906,76 2.154,03 0,00 0,00 4.060,79 11.516,11 30/11/2021
853 400400 ELOIZA MARIA FERRI PIRES DA SILVA OFICIAL DO MP BELO HORIZONTE - COMARCA; ASSESSORIA TECNICA DO PROCON-MG 7.912,85 1.582,57 0,00 0,00 0,00 0,00 0,00 12.011,92 21.507,34 1.331,54 1.323,57 0,00 0,00 2.655,11 18.852,23 30/11/2021
854 258000 ELSO CECIANO PALMEIRA ASSESSOR/OFICIAL BELO HORIZONTE - COMARCA; DIRET DE PESSOAL DO MINISTERIO PUBLICO - DPMP 12.601,30 8.820,91 3.024,31 0,00 0,00 0,00 61,91 26.163,52 50.671,95 3.239,83 6.465,65 0,00 0,00 9.705,48 40.966,47 30/11/2021
855 206900 ELVIRA RITA DOS SANTOS ANALISTA DO MP BELO HORIZONTE - COMARCA; CENTRAL DE APOIO TECNICO-SETOR CONTABIL 18.820,14 7.528,06 0,00 0,00 0,00 4.027,99 0,00 28.065,20 58.441,39 4.027,99 6.376,40 0,00 0,00 10.404,39 48.037,00 30/11/2021
856 506800 ELVIS FERREIRA DA SILVA ANALISTA DO MP BELO HORIZONTE - COMARCA; DIRETORIA DE SISTEMAS DE INFORMACAO 10.069,62 2.013,92 0,00 0,00 0,00 0,00 1.006,96 14.569,93 27.660,43 1.906,76 2.049,76 0,00 0,00 3.956,52 23.703,91 30/11/2021
857 602400 ELZA MARIA MOREIRA MUNIZ ANALISTA DO MP RIO PARANAÍBA - COMARCA; RIO PARANAIBA-PJ-UNPJ 9.444,70 944,47 0,00 0,00 0,00 0,00 0,00 12.106,17 22.495,34 1.474,54 1.530,03 0,00 0,00 3.004,57 19.490,77 30/11/2021
858 368401 ELZIRA SIMOES DOS SANTOS ASSESSOR BELO HORIZONTE - COMARCA; ASSESSORIA DE COMUNICACAO INTEGRADA 0,00 3.433,94 11.446,46 0,00 0,00 0,00 0,00 1.717,00 16.597,40 751,97 3.345,41 0,00 0,00 4.097,38 12.500,02 30/11/2021
859 437400 EMANOELLE DA SILVA RODRIGUES OFICIAL DO MP UNAÍ - COMARCA; UNAI-PJ-03PJ 7.912,85 1.582,57 0,00 0,00 0,00 0,00 79,76 12.751,20 22.326,38 1.331,54 3.443,89 0,00 0,00 4.775,43 17.550,95 30/11/2021
860 458900 EMANUELLE CONRAD SILVA FREDERICO NAVES ANALISTA DO MP ALFENAS - COMARCA; ALFENAS-PJ-05PJ 12.601,30 2.520,26 0,00 0,00 0,00 0,00 0,00 4.047,77 19.169,33 2.231,73 2.623,21 0,00 0,00 4.854,94 14.314,39 30/11/2021
861 284100 EMERSON MAGNO ALMEIDA PEDROSA DA FONSECA ANALISTA DO MP BELO HORIZONTE - COMARCA; CENTRAL DE APOIO TECNICO-SETOR CONTABIL 18.103,37 5.431,01 0,00 0,00 0,00 0,00 0,00 25.251,38 48.785,76 3.577,78 3.353,33 0,00 0,00 6.931,11 41.854,65 30/11/2021
862 179900 EMERSON MORAIS DIAS OFICIAL DO MP BELO HORIZONTE - COMARCA; SUPERINTENDÊNCIA DE ENGENHARIA E ARQUITETURA 16.750,82 6.700,33 0,00 0,00 0,00 0,00 189,78 25.168,15 48.809,08 3.564,46 9.591,63 0,00 0,00 13.156,09 35.652,99 30/11/2021
863 488700 EMERSON SIQUEIRA DE SOUSA TEIXEIRA ANALISTA DO MP ITANHOMI - COMARCA; ITANHOMI-PJ-UNPJ 10.069,62 2.013,92 0,00 0,00 0,00 0,00 0,00 13.800,54 25.884,08 1.745,64 1.817,15 0,00 0,00 3.562,79 22.321,29 30/11/2021
864 194200 EMILIA ALVES FERREIRA RAMOS OFICIAL DO MP UBERLÂNDIA - COMARCA; UBERLANDIA-PJ-SEC CIVEIS CRIMINAIS 10.736,08 4.294,43 0,00 0,00 0,00 0,00 0,00 17.236,78 32.267,29 2.217,16 2.654,31 0,00 0,00 4.871,47 27.395,82 30/11/2021
865 679500 EMILY DIAS LEMOS E SILVA ASSESSOR PROCURADOR JUSTICA BELO HORIZONTE - COMARCA; GABINETE DE PROCURADOR DE JUSTIÇA - SALA 515 0,00 0,00 7.187,72 0,00 0,00 0,00 0,00 2.486,39 9.674,11 751,97 1.125,65 0,00 0,00 1.877,62 7.796,49 30/11/2021
866 620700 EMILY FONTANA DE SIQUEIRA ANALISTA DO MP BELO HORIZONTE - COMARCA; BH-18PJ VIOLENCIA DOMESTICA-SECRETARIA 9.146,93 914,69 0,00 0,00 0,00 0,00 0,00 2.486,39 12.548,01 1.422,14 1.454,36 0,00 0,00 2.876,50 9.671,51 30/11/2021
867 297000 ENEIDA SOARES COSTA MELO ANALISTA DO MP PIUMHI - COMARCA; PIUMHI-PJ-01PJ 18.103,37 5.431,01 0,00 0,00 0,00 0,00 0,00 25.251,38 48.785,76 3.577,78 4.618,71 0,00 0,00 8.196,49 40.589,27 30/11/2021
868 276000 ENEZIO RODRIGUES DE SOUZA FILHO OFICIAL DO MP UBERLÂNDIA - COMARCA; UBERLANDIA-PJ-10PJ 10.069,62 3.020,89 0,00 0,00 0,00 0,00 0,00 1.717,00 14.807,51 1.906,76 2.206,17 0,00 0,00 4.112,93 10.694,58 30/11/2021
869 387700 ENI MARIA DOS REIS OFICIAL DO MP POUSO ALEGRE - COMARCA; POUSO ALEGRE-PJ-07PJ 8.858,43 1.771,69 0,00 0,00 0,00 0,00 0,00 12.693,32 23.323,44 1.513,10 1.637,82 0,00 0,00 3.150,92 20.172,52 30/11/2021
870 605100 ENIA MAIA ASSESSOR/OFICIAL BELO HORIZONTE - COMARCA; DIRETORIA DE ORCAMENTO-DIOR/SPC 0,00 1.039,75 10.397,52 0,00 0,00 0,00 1.113,80 9.341,85 21.892,92 856,09 2.346,76 0,00 0,00 3.202,85 18.690,07 30/11/2021
871 612200 ENILDO GOMES MEIRA FILHO ANALISTA DO MP BELO HORIZONTE - COMARCA; BH-23PJ INFRACIONAL-ASS JURIDICA 9.146,93 914,69 0,00 0,00 0,00 0,00 1.638,56 12.548,01 24.248,19 1.684,31 1.728,59 0,00 0,00 3.412,90 20.835,29 30/11/2021
872 553700 ENIVALDO NOVATO PUBLIO ANALISTA DO MP DIVINÓPOLIS - COMARCA; DIVINOPOLIS-PJ-09PJ 9.444,70 944,47 0,00 0,00 0,00 0,00 30,03 12.106,17 22.525,37 1.474,54 2.290,62 0,00 0,00 3.765,16 18.760,21 30/11/2021
873 680600 ENZO JOSE FERES SOUZA JABER ASSESSOR PROMOTOR JUSTICA NOVO CRUZEIRO - COMARCA; NOVO CRUZEIRO-PJ-SECRETARIA 0,00 0,00 7.187,72 0,00 0,00 0,00 0,00 1.717,00 8.904,72 751,97 1.229,92 0,00 0,00 1.981,89 6.922,83 30/11/2021
874 417300 ERIC BARATTI DA SILVA ANALISTA DO MP FRUTAL - COMARCA; FRUTAL-PJ-05PJ 10.069,62 2.013,92 0,00 0,00 0,00 0,00 0,00 13.800,54 25.884,08 1.745,64 1.973,56 0,00 0,00 3.719,20 22.164,88 30/11/2021
875 637600 ERIC DA ROCHA CHEHUEN ANALISTA DO MP LIMA DUARTE - COMARCA; LIMA DUARTE-PJ-UNPJ 8.436,53 843,65 0,00 0,00 3.093,39 0,00 0,00 1.717,00 14.090,57 841,65 2.301,92 0,00 0,00 3.143,57 10.947,00 30/11/2021
876 398900 ERIC TEIXEIRA SILVA OFICIAL DO MP UBERLÂNDIA - COMARCA; UBERLANDIA-PJ-SEC CIVEIS CRIMINAIS 8.579,10 1.715,82 0,00 0,00 0,00 0,00 0,00 1.717,00 12.011,92 1.459,46 1.560,39 0,00 0,00 3.019,85 8.992,07 30/11/2021
877 703600 ERICA CORDEIRO SANTOS ASSESSOR PROMOTOR JUSTICA MINAS NOVAS - COMARCA; MINAS NOVAS-PJ-UNPJ 0,00 0,00 7.187,72 0,00 0,00 0,00 0,00 1.717,00 8.904,72 751,97 1.229,92 0,00 0,00 1.981,89 6.922,83 30/11/2021
878 274200 ERICA DE SOUZA ANDRADE OFICIAL DO MP CURVELO - COMARCA; CURVELO-PJ-03PJ 10.736,08 3.220,82 0,00 0,00 0,00 0,00 0,00 16.128,23 30.085,13 2.045,38 2.354,17 0,00 0,00 4.399,55 25.685,58 30/11/2021
879 225700 ERICA GOMES DO COUTO OFICIAL DO MP BELO HORIZONTE - COMARCA; BH-21PJ TUTELA FUNDACOES-SECRETARIA 14.324,23 4.297,27 0,00 0,00 0,00 0,00 0,00 2.486,39 21.107,89 2.791,72 3.483,83 0,00 0,00 6.275,55 14.832,34 30/11/2021
880 632600 ERICA LEONOR MARTINS OFICIAL DO MP RESENDE COSTA - COMARCA; RESENDE COSTA-PJ-UNPJ 5.387,19 538,72 0,00 0,00 0,00 0,00 0,00 1.717,00 7.642,91 762,96 550,45 0,00 0,00 1.313,41 6.329,50 30/11/2021
881 524800 ERICA MACHADO DA COSTA E SOUZA ANALISTA DO MP BELO HORIZONTE - COMARCA; ASSESS TECNICO-JUR JUNTO AS PROC. DE JUST 10.069,62 1.006,96 0,00 0,00 0,00 0,00 1.218,84 1.717,00 14.012,42 1.584,53 2.076,13 0,00 0,00 3.660,66 10.351,76 30/11/2021
882 249500 ERICA RODRIGUES ANDRADE OFICIAL DO MP SÃO FRANCISCO - COMARCA; SAO FRANCISCO-PJ-02PJ 9.444,70 2.833,41 0,00 0,00 0,00 0,00 35,48 13.995,11 26.308,70 1.776,77 2.864,93 0,00 0,00 4.641,70 21.667,00 30/11/2021
883 260800 ERICA VIANA GIARDINI DE OLIVEIRA OFICIAL DO MP BELO HORIZONTE - COMARCA; DIRETORIA GESTAO COMPRAS LICITACOES 10.069,62 3.020,89 0,00 0,00 0,00 0,00 0,00 1.717,00 14.807,51 1.906,76 2.206,17 0,00 0,00 4.112,93 10.694,58 30/11/2021
884 299800 ERICH DOUGLAS RIBEIRO GARCIA ANALISTA DO MP BELO HORIZONTE - COMARCA; CENTRAL DE APOIO TECNICO-SETOR CONTABIL 17.413,92 5.224,18 0,00 0,00 0,00 0,00 79,02 1.717,00 24.434,12 3.434,37 6.490,28 0,00 0,00 9.924,65 14.509,47 30/11/2021
885 365000 ERICK EDUARDO JOSE DA SILVA OFICIAL DO MP SANTOS DUMONT - COMARCA; SANTOS DUMONT-PJ-02PJ 6.123,79 1.837,14 0,00 0,00 0,00 0,00 612,38 9.677,93 18.251,24 1.184,01 1.162,70 0,00 0,00 2.346,71 15.904,53 30/11/2021
886 688900 ERICK FERDINANN SANTOS GOMES ASSESSOR PROMOTOR JUSTICA OURO PRETO - COMARCA; OURO PRETO-PJ-04PJ 0,00 0,00 7.187,72 0,00 0,00 0,00 0,00 1.717,00 8.904,72 751,97 1.229,92 0,00 0,00 1.981,89 6.922,83 30/11/2021
887 227400 ERIKA DE LAET GOULART BOECHAT OFICIAL DO MP BELO HORIZONTE - COMARCA; BH-17PJ PATRIMONIO PUBLICO-SECRETARIA 14.324,23 4.297,27 0,00 0,00 0,00 0,00 0,00 1.717,00 20.338,50 2.791,72 3.431,69 0,00 0,00 6.223,41 14.115,09 30/11/2021
888 681301 ERIKA FERNANDA ELISEU FERREIRA ASSESSOR PROCURADOR JUSTICA BELO HORIZONTE - COMARCA; GABINETE DE PROCURADOR DE JUSTIÇA - SALA 411 0,00 0,00 7.187,72 0,00 0,00 0,00 0,00 1.717,00 8.904,72 751,97 1.229,92 0,00 0,00 1.981,89 6.922,83 30/11/2021
889 285100 ERIKA FERREIRA DA SILVA OFICIAL DO MP JUIZ DE FORA - COMARCA; JUIZ DE FORA-PJ-11PJ 10.069,62 3.020,89 0,00 0,00 0,00 0,00 0,00 14.807,51 27.898,02 1.906,76 2.206,17 0,00 0,00 4.112,93 23.785,09 30/11/2021
890 420100 ERIKA JEANINE VERSIANI DE CASTRO ANALISTA DO MP BELO HORIZONTE - COMARCA; COORD ESTADUAL DE DEFESA DA EDUCACAO 14.324,23 2.864,85 0,00 0,00 0,00 0,00 144,40 1.717,00 19.050,48 2.562,53 6.952,63 0,00 0,00 9.515,16 9.535,32 30/11/2021
891 677100 ERIKA LAYS CARDOSO FERNANDES ASSESSOR PROMOTOR JUSTICA GRAO MOGOL - COMARCA; GRAO MOGOL-PJ-UNPJ 0,00 0,00 7.187,72 0,00 0,00 0,00 0,00 1.717,00 8.904,72 751,97 1.229,92 0,00 0,00 1.981,89 6.922,83 30/11/2021
892 606900 ERIKA MARIA BARBOSA ANALISTA DO MP BELO HORIZONTE - COMARCA; CAO-SAUDE 8.436,53 843,65 0,00 0,00 0,00 0,00 306,25 14.494,87 24.081,30 1.297,11 1.273,85 0,00 0,00 2.570,96 21.510,34 30/11/2021
893 491000 ERIKA ROCHA PEREIRA E SILVA COORDENADOR/ANALISTA BELO HORIZONTE - COMARCA; DIR GOVERNANCA TECNOLOGIA INFORMACAO 0,00 2.687,03 13.435,16 0,00 0,00 0,00 0,00 17.839,19 33.961,38 1.745,64 3.084,19 0,00 0,00 4.829,83 29.131,55 30/11/2021
894 283201 ERIKA STEHLING COORDENADOR/ANALISTA BELO HORIZONTE - COMARCA; CENTRAL DE APOIO TECNICO-SETOR DE ENGENHARIA 10.069,62 2.013,92 2.363,83 0,00 0,00 0,00 0,00 16.164,37 30.611,74 1.745,64 2.623,62 0,00 0,00 4.369,26 26.242,48 30/11/2021
895 254000 ERLANDIA DA SILVA MENDES OFICIAL DO MP IPATINGA - COMARCA; IPATINGA-PJ-03PJ 12.601,30 5.040,52 0,00 0,00 0,00 0,00 0,00 19.933,13 37.574,95 2.634,97 3.101,11 0,00 0,00 5.736,08 31.838,87 30/11/2021
896 208600 ERNANE JOSE DA COSTA ANALISTA DO MP BELO HORIZONTE - COMARCA; CENTRAL DE APOIO TECNICO-SETOR MEDICO 18.820,14 15.056,11 0,00 0,00 0,00 0,00 0,00 35.593,25 69.469,50 5.232,48 7.007,68 0,00 0,00 12.240,16 57.229,34 30/11/2021
897 260600 ERNANI CALDEIRA DE ANDRADE ANALISTA DO MP BELO HORIZONTE - COMARCA; CENTRAL DE APOIO TECNICO-SETOR CONTABIL 18.820,14 5.646,04 0,00 0,00 0,00 0,00 538,26 7.588,88 32.593,32 3.726,87 4.833,95 0,00 0,00 8.560,82 24.032,50 30/11/2021
898 348500 ERNILANDIA DE OLIVEIRA DIAS OFICIAL DO MP MONTES CLAROS - COMARCA; MONTES CLAROS-PJ-16PJ 8.858,43 2.657,53 0,00 0,00 0,00 0,00 0,00 13.608,01 25.123,97 1.654,83 1.842,45 0,00 0,00 3.497,28 21.626,69 30/11/2021
899 199300 ERTON PORTINARI DE ANDRADE OFICIAL DO MP SETE LAGOAS - COMARCA; SETE LAGOAS-PJ-05PJ 14.790,66 5.916,26 0,00 0,00 0,00 0,00 0,00 13.120,11 33.827,03 3.125,38 3.861,29 0,00 0,00 6.986,67 26.840,36 30/11/2021
900 618800 ESLY DE CARLA AYALLA BARBOSA MENDES OFICIAL DO MP NOVA LIMA - COMARCA; NOVA LIMA-PJ-SECRETARIA 5.387,19 538,72 0,00 0,00 0,00 0,00 0,00 1.717,00 7.642,91 762,96 1.656,47 0,00 0,00 2.419,43 5.223,48 30/11/2021
901 537000 ESTANISLAU CORREIA ALMEIDA JUNIOR OFICIAL DO MP UBERLÂNDIA - COMARCA; UBERLANDIA-PJ-25PJ 6.123,79 612,38 0,00 0,00 0,00 0,00 0,00 8.453,17 15.189,34 890,06 738,32 0,00 0,00 1.628,38 13.560,96 30/11/2021
902 692100 ESTEFANIA FARIA FERREIRA ASSESSOR PROCURADOR JUSTICA BELO HORIZONTE - COMARCA; GABINETE DE PROCURADOR DE JUSTIÇA - SALA 814 0,00 0,00 7.187,72 0,00 0,00 0,00 0,00 1.717,00 8.904,72 751,97 1.229,92 0,00 0,00 1.981,89 6.922,83 30/11/2021
903 326900 ESTER ALICE PIMENTA OFICIAL DO MP BELO HORIZONTE - COMARCA; COORD DE INCLUSAO E MOBILIZACAO SOCIAIS 10.069,62 3.020,89 0,00 0,00 0,00 0,00 0,00 14.807,51 27.898,02 1.906,76 2.206,17 0,00 0,00 4.112,93 23.785,09 30/11/2021
904 503700 ESTHER GONCALVES FONSECA ANALISTA DO MP BELO HORIZONTE - COMARCA; DIR CRIACAO E MIDIAS 9.752,14 1.950,43 0,00 0,00 0,00 0,00 0,00 1.717,00 13.419,57 1.684,69 1.885,56 0,00 0,00 3.570,25 9.849,32 30/11/2021
905 475600 ETIENE DE FATIMA OLIVEIRA PEREIRA ANALISTA DO MP PATROCÍNIO - COMARCA; PATROCINIO-PJ-04PJ 10.069,62 2.013,92 0,00 0,00 0,00 0,00 0,00 1.717,00 13.800,54 1.745,64 1.869,29 0,00 0,00 3.614,93 10.185,61 30/11/2021
906 428800 EUGENIA RODRIGUES TRAJANO BORGES ANALISTA DO MP UBERABA - COMARCA; UBERABA-PJ-10PJ 13.011,52 2.602,30 0,00 0,00 0,00 0,00 515,26 8.107,37 24.236,45 2.310,49 3.931,32 0,00 0,00 6.241,81 17.994,64 30/11/2021
907 272700 EUGENIO DE BARCELOS FILHO OFICIAL DO MP FRUTAL - COMARCA; FRUTAL-PJ-03PJ 8.858,43 2.657,53 0,00 0,00 0,00 0,00 0,00 13.608,01 25.123,97 1.654,83 1.790,31 0,00 0,00 3.445,14 21.678,83 30/11/2021
908 254100 EULALIA ALVES MIRANDA LUCAS OFICIAL DO MP ALMENARA - COMARCA; ALMENARA-PJ-02PJ 12.601,30 3.780,39 0,00 0,00 0,00 0,00 47,34 7.177,56 23.606,59 2.433,35 4.060,59 0,00 0,00 6.493,94 17.112,65 30/11/2021
909 641200 EUNICE ELVIRA DA SILVA MATOS OFICIAL DO MP BELO HORIZONTE - COMARCA; BH-14PJ DEFESA CONSUMIDOR-SECRETARIA 4.974,42 497,44 0,00 0,00 0,00 0,00 0,00 1.717,00 7.188,86 694,23 444,49 0,00 0,00 1.138,72 6.050,14 30/11/2021
910 557900 EURIPEDES JOSUE PERES OFICIAL DO MP IBIÁ - COMARCA; IBIA-PJ-UNPJ 5.562,64 556,26 0,00 0,00 0,00 0,00 0,00 7.835,90 13.954,80 792,88 595,30 0,00 0,00 1.388,18 12.566,62 30/11/2021
911 225800 EURO CESAR VIEIRA BARBOSA ANALISTA DO MP BELO HORIZONTE - COMARCA; BH-17PJ PATRIMONIO PUBLICO-SECRETARIA 18.820,14 7.528,06 0,00 0,00 0,00 0,00 0,00 28.065,20 54.413,40 4.027,99 5.164,42 0,00 0,00 9.192,41 45.220,99 30/11/2021
912 199400 EUSTAQUIO ADAILTON LIMA E SILVA OFICIAL DO MP MANGA - COMARCA; MANGA-PJ-01PJ 15.272,02 10.690,41 0,00 0,00 0,00 0,00 0,00 27.679,43 53.641,86 3.966,27 6.944,25 0,00 0,00 10.910,52 42.731,34 30/11/2021
913 548000 EVA VILMA LEAO REIS JULIO OFICIAL DO MP BELO HORIZONTE - COMARCA; BH-07PJ 01 TRIBUNAL JURI-SECRETARIA 6.123,79 1.837,14 0,00 0,00 0,00 0,00 0,00 1.717,00 9.677,93 1.086,03 1.604,18 0,00 0,00 2.690,21 6.987,72 30/11/2021
914 517000 EVALDO SENA COSTA FILHO ANALISTA DO MP CONTAGEM - COMARCA; CONTAGEM-PJ-15PJ 10.069,62 3.020,89 0,00 0,00 0,00 0,00 0,00 14.807,51 27.898,02 1.906,76 2.049,76 0,00 0,00 3.956,52 23.941,50 30/11/2021
915 217500 EVELANGE LEAO RABELO ASSESSOR BELO HORIZONTE - COMARCA; CAO-PESSOAS IDOSAS E PESSOAS COM DEFICIENCIA 0,00 2.054,53 5.136,32 0,00 0,00 0,00 0,00 1.717,00 8.907,85 751,97 1.230,78 0,00 0,00 1.982,75 6.925,10 30/11/2021
916 679600 EVERTON BARBOSA DA SILVA ASSESSOR PROCURADOR JUSTICA BELO HORIZONTE - COMARCA; GABINETE DE PROCURADOR DE JUSTIÇA - SALA 510 0,00 0,00 7.187,72 0,00 0,00 0,00 0,00 1.717,00 8.904,72 751,97 1.229,92 0,00 0,00 1.981,89 6.922,83 30/11/2021
917 540400 EVIE SARAMELLA DE RESENDE OFICIAL DO MP BARBACENA - COMARCA; BARBACENA-PJ-05PJ 6.123,79 612,38 0,00 0,00 0,00 0,00 0,00 8.004,09 14.740,26 890,06 738,32 0,00 0,00 1.628,38 13.111,88 30/11/2021
918 469000 EWERTON CARDOSO DE SA RODRIGUES ANALISTA DO MP CAMPO BELO - COMARCA; CAMPO BELO-PJ-02PJ 10.069,62 2.013,92 0,00 0,00 0,00 0,00 0,00 2.486,39 14.569,93 1.745,64 1.869,29 0,00 0,00 3.614,93 10.955,00 30/11/2021
919 368900 FABIANA BARBOSA SIQUEIRA OFICIAL DO MP BELO HORIZONTE - COMARCA; CAO-ORDEM ECONOMICA E TRIBUTARIA-SECRETARIA 10.069,62 2.013,92 0,00 0,00 0,00 0,00 101,50 7.758,77 19.943,81 1.745,64 4.593,67 0,00 0,00 6.339,31 13.604,50 30/11/2021
920 273800 FABIANA CARNEIRO AMORIM COORDENADOR/OFICIAL BELO HORIZONTE - COMARCA; BH-23PJ CIVEL-COORD ADM CIVEL 11.085,56 3.325,67 2.363,83 0,00 0,00 0,00 0,00 19.946,06 36.721,12 2.118,07 3.057,04 0,00 0,00 5.175,11 31.546,01 30/11/2021
921 519300 FABIANA DE OLIVEIRA LOUREIRO ANALISTA DO MP BELO HORIZONTE - COMARCA; BH-09PJ AUDITORIA MILITAR-SECRETARIA 10.069,62 1.006,96 0,00 0,00 0,00 0,00 0,00 7.255,29 18.331,87 1.584,53 1.740,95 0,00 0,00 3.325,48 15.006,39 30/11/2021
922 363400 FABIANA DOURADO DUPIN VIEGAS ANALISTA DO MP BELO HORIZONTE - COMARCA; GABINETE DE PROCURADOR DE JUSTIÇA - SALA 705 15.272,02 4.581,61 0,00 0,00 0,00 0,00 0,00 1.717,00 21.570,63 2.988,86 3.716,31 0,00 0,00 6.705,17 14.865,46 30/11/2021
923 410800 FABIANA DUARTE QUITITE ANALISTA DO MP BELO HORIZONTE - COMARCA; BH-15PJ M AMB PAT HIST CULT-GAB 116PJ 14.324,23 2.864,85 0,00 0,00 0,00 0,00 144,40 18.906,08 36.239,56 2.562,53 6.952,63 0,00 0,00 9.515,16 26.724,40 30/11/2021
924 419500 FABIANA EULALIA DOS SANTOS ANALISTA DO MP SÃO JOÃO DEL REI - COMARCA; SAO JOAO DEL REI-PJ-01PJ 13.011,52 2.602,30 0,00 0,00 0,00 0,00 0,00 18.906,08 34.519,90 2.310,49 2.789,06 0,00 0,00 5.099,55 29.420,35 30/11/2021
925 700300 FABIANA MARCIA DE SOUZA ASSESSOR BELO HORIZONTE - COMARCA; DIRET DE CONTROLE E DE MANUTENCAO DE IMOVEIS 0,00 0,00 3.076,28 0,00 0,00 0,00 0,00 1.717,00 4.793,28 449,69 224,40 0,00 0,00 674,09 4.119,19 30/11/2021
926 376300 FABIANA MATTOSO LEMOS ANALISTA DO MP BELO HORIZONTE - COMARCA; BH-21PJ TUTELA FUNDACOES-SECRETARIA 14.790,66 2.958,13 0,00 0,00 0,00 0,00 0,00 1.717,00 19.465,79 2.652,08 4.581,05 0,00 0,00 7.233,13 12.232,66 30/11/2021
927 331500 FABIANA PACHECO OFICIAL DO MP GUAXUPÉ - COMARCA; GUAXUPE-PJ-01PJ 10.069,62 3.020,89 0,00 0,00 0,00 0,00 0,00 2.486,39 15.576,90 1.906,76 2.101,90 0,00 0,00 4.008,66 11.568,24 30/11/2021
928 510700 FABIANA PEREIRA SANTOS BORGES ANALISTA DO MP BELO HORIZONTE - COMARCA; DIRETORIA DE SISTEMAS DE INFORMACAO 10.069,62 2.013,92 0,00 0,00 0,00 0,00 1.006,96 13.800,54 26.891,04 1.906,76 2.154,03 0,00 0,00 4.060,79 22.830,25 30/11/2021
929 181700 FABIANA SOUZA FERREIRA OFICIAL DO MP BELO HORIZONTE - COMARCA; BH-19PJ SAUDE-SECRETARIA 150PJ 6.123,79 2.449,52 0,00 0,00 0,00 0,00 0,00 10.290,31 18.863,62 1.184,01 1.058,42 0,00 0,00 2.242,43 16.621,19 30/11/2021
930 272900 FABIANA STOCKLER LEITE OFICIAL DO MP LAJINHA - COMARCA; LAJINHA-PJ-SECRETARIA 10.069,62 5.034,81 0,00 0,00 0,00 0,00 0,00 16.821,43 31.925,86 2.228,99 2.619,25 0,00 0,00 4.848,24 27.077,62 30/11/2021
931 225500 FABIANE DE FATIMA PORTELLA ANALISTA DO MP BELO HORIZONTE - COMARCA; BH-18PJ DIREITOS HUMANOS-SECRETARIA 18.820,14 5.646,04 0,00 0,00 0,00 0,00 0,00 1.717,00 26.183,18 3.726,87 4.833,95 0,00 0,00 8.560,82 17.622,36 30/11/2021
932 433800 FABIANE DINIZ MATTOS ANALISTA DO MP BELO HORIZONTE - COMARCA; BH-23PJ INFRACIONAL-ASS JURIDICA 13.011,52 2.602,30 0,00 0,00 0,00 0,00 2.408,94 1.717,00 19.739,76 2.695,92 3.345,52 0,00 0,00 6.041,44 13.698,32 30/11/2021
933 455000 FABIANO CARVALHO DA SILVA ANALISTA DO MP LAVRAS - COMARCA; LAVRAS-PJ-05PJ 10.069,62 2.013,92 0,00 0,00 0,00 0,00 0,00 1.717,00 13.800,54 1.745,64 1.973,56 0,00 0,00 3.719,20 10.081,34 30/11/2021
934 498800 FABIANO FURTADO PESSOA COELHO ANALISTA DO MP BELO HORIZONTE - COMARCA; DIRETORIA DE REDES E BANCOS DE DADOS 10.069,62 2.013,92 0,00 0,00 0,00 0,00 0,00 13.800,54 25.884,08 1.745,64 1.921,43 0,00 0,00 3.667,07 22.217,01 30/11/2021
935 663000 FABIANO MARQUES CORREA ASSESSOR BELO HORIZONTE - COMARCA; DIRETORIA DE SUPORTE E MANUTENCAO 0,00 0,00 5.136,32 0,00 0,00 0,00 0,00 1.717,00 6.853,32 738,09 669,60 0,00 0,00 1.407,69 5.445,63 30/11/2021
936 394600 FABIANO PALHARES SILVA ANALISTA DO MP BELO HORIZONTE - COMARCA; CENTRAL DE APOIO TECN-SETOR DE MEIO AMBIENTE 14.324,23 2.864,85 0,00 0,00 0,00 0,00 504,21 24.966,30 42.659,59 2.562,53 3.100,80 0,00 0,00 5.663,33 36.996,26 30/11/2021
937 676600 FABIANO RESENDE VELOSO ASSESSOR PROCURADOR JUSTICA BELO HORIZONTE - COMARCA; GABINETE DE PROCURADOR DE JUSTIÇA - SALA 1002 0,00 0,00 7.187,72 0,00 0,00 0,00 0,00 1.717,00 8.904,72 751,97 1.229,92 0,00 0,00 1.981,89 6.922,83 30/11/2021
938 444400 FABIANO SARAIVA MEDEIROS ANALISTA DO MP BETIM - COMARCA; BETIM-PJ-11PJ 12.601,30 2.520,26 0,00 0,00 0,00 0,00 0,00 9.003,45 24.125,01 2.231,73 2.571,07 0,00 0,00 4.802,80 19.322,21 30/11/2021
939 408700 FABIANO SOARES PORTILHO ANALISTA DO MP JUIZ DE FORA - COMARCA; GAECO REGIONAL DA ZONA DA MATA-JUIZ DE FORA 13.011,52 2.602,30 0,00 0,00 0,00 0,00 0,00 18.906,08 34.519,90 2.310,49 2.789,06 0,00 0,00 5.099,55 29.420,35 30/11/2021
940 442600 FABIO CARVALHO VIEIRA ANALISTA DO MP MONTES CLAROS - COMARCA; MONTES CLAROS-PJ-06PJ 10.069,62 2.013,92 0,00 0,00 0,00 0,00 0,00 9.772,69 21.856,23 1.745,64 1.973,56 0,00 0,00 3.719,20 18.137,03 30/11/2021
941 702700 FABIO JUNIOR COSTA BARREIROS ASSESSOR BELO HORIZONTE - COMARCA; DIVISAO DE MANUTENCAO PREDIAL 0,00 0,00 3.076,28 0,00 0,00 0,00 0,00 2.486,39 5.562,67 449,69 162,01 0,00 0,00 611,70 4.950,97 30/11/2021
942 240101 FABIO JUNQUEIRA DE ASSIS FONSECA OFICIAL DO MP BELO HORIZONTE - COMARCA; BH-17PJ PATRIMONIO PUBLICO-SECRETARIA 8.170,49 2.451,15 0,00 0,00 0,00 0,00 0,00 12.684,49 23.306,13 1.511,74 1.635,86 0,00 0,00 3.147,60 20.158,53 30/11/2021
943 271500 FABIO LUIZ VIEIRA OFICIAL DO MP SANTA VITÓRIA - COMARCA; SANTA VITORIA-PJ-UNPJ 10.069,62 3.020,89 0,00 0,00 0,00 0,00 0,00 14.855,51 27.946,02 1.906,76 2.101,90 0,00 0,00 4.008,66 23.937,36 30/11/2021
944 213100 FABIO PRATES GONCALVES ASSESSOR BELO HORIZONTE - COMARCA; DIR RELACOES INSTITUCIONAIS 0,00 4.159,01 10.397,52 0,00 0,00 0,00 0,00 1.717,00 16.273,53 751,97 3.099,93 0,00 0,00 3.851,90 12.421,63 30/11/2021
945 436700 FABIO SANTIAGO DE CARVALHO OFICIAL DO MP POÇO FUNDO - COMARCA; POCO FUNDO-PJ-UNPJ 8.579,10 1.715,82 0,00 0,00 0,00 0,00 0,00 12.347,12 22.642,04 1.459,46 1.560,39 0,00 0,00 3.019,85 19.622,19 30/11/2021
946 208400 FABIOLA DE SOUSA CARDOSO ASSESSOR/ANALISTA BELO HORIZONTE - COMARCA; CGMP-ASSESSORIA JURIDICA 18.820,14 7.528,06 2.520,26 0,00 0,00 0,00 0,00 26.736,33 55.604,79 4.027,99 5.961,77 0,00 0,00 9.989,76 45.615,03 30/11/2021
947 392200 FABIOLA LEROY COSTA ANALISTA DO MP ESMERALDAS - COMARCA; ESMERALDAS-PJ-01PJ 10.069,62 2.013,92 0,00 0,00 0,00 0,00 0,00 3.255,78 15.339,32 1.745,64 1.973,56 0,00 0,00 3.719,20 11.620,12 30/11/2021
948 409000 FABIOLA MONTEIRO DE CARVALHO CASTRO ANALISTA DO MP BOM SUCESSO - COMARCA; BOM SUCESSO-PJ-UNPJ 12.204,02 2.440,80 0,00 0,00 0,00 0,00 88,58 16.361,82 31.095,22 2.155,45 5.680,72 0,00 0,00 7.836,17 23.259,05 30/11/2021
949 525800 FABRICIA ALVES DANTAS OFICIAL DO MP MONTES CLAROS - COMARCA; MONTES CLAROS-PJ-01PJ 7.421,79 742,18 0,00 0,00 0,00 0,00 0,00 1.717,00 9.880,97 1.118,51 963,87 0,00 0,00 2.082,38 7.798,59 30/11/2021
950 263400 FABRICIA PINTO TEIXEIRA SANTIAGO OFICIAL DO MP BELO HORIZONTE - COMARCA; CAO-FUNDACOES-SECRETARIA 12.601,30 3.780,39 0,00 0,00 0,00 0,00 0,00 1.717,00 18.098,69 2.433,35 2.862,16 0,00 0,00 5.295,51 12.803,18 30/11/2021
951 420800 FABRICIO BERNARDES DE OLIVEIRA OFICIAL DO MP ITURAMA - COMARCA; ITURAMA-PJ-02PJ 8.579,10 1.715,82 0,00 0,00 0,00 0,00 0,00 12.377,12 22.672,04 1.459,46 1.508,25 0,00 0,00 2.967,71 19.704,33 30/11/2021
952 474000 FABRICIO DE FREITAS SALES ANALISTA DO MP MONTES CLAROS - COMARCA; COORD REG PATRI PUB ORD TRIB-NORTE MINAS 10.069,62 2.013,92 0,00 0,00 0,00 0,00 0,00 5.342,06 17.425,60 1.745,64 1.973,56 0,00 0,00 3.719,20 13.706,40 30/11/2021
953 510100 FABRICIO FURTADO ASSIS DO CARMO ANALISTA DO MP BELO HORIZONTE - COMARCA; SERVICO MEDICO-DEPTO PERIC MEDICA SAUDE OCUP 10.069,62 2.013,92 0,00 0,00 0,00 0,00 1.970,47 16.302,83 30.356,84 1.906,76 2.471,13 0,00 0,00 4.377,89 25.978,95 30/11/2021
954 519600 FABRICIO GONTIJO SALVATI ANALISTA DO MP JUIZ DE FORA - COMARCA; JUIZ DE FORA-CAO ESPECIALIZADO-SECRETARIA 10.069,62 1.006,96 0,00 0,00 0,00 0,00 0,00 1.717,00 12.793,58 1.584,53 1.740,95 0,00 0,00 3.325,48 9.468,10 30/11/2021
955 637400 FABRICIO HENRIQUE DA SILVA PASSOS ASSESSOR/ANALISTA BELO HORIZONTE - COMARCA; DIR CRIACAO E MIDIAS 0,00 1.039,75 10.397,52 0,00 0,00 0,00 0,00 1.717,00 13.154,27 1.422,14 1.884,80 0,00 0,00 3.306,94 9.847,33 30/11/2021
956 428200 FABRICIO ORZIL VIANA ANALISTA DO MP SANTA LUZIA - COMARCA; SANTA LUZIA-PJ-04PJ 10.069,62 2.013,92 0,00 0,00 0,00 0,00 0,00 13.800,54 25.884,08 1.745,64 1.973,56 0,00 0,00 3.719,20 22.164,88 30/11/2021
957 455600 FABRICIO PAIVA DA ROCHA ANALISTA DO MP SÃO JOÃO DEL REI - COMARCA; SAO JOAO DEL REI-PJ-06PJ 10.069,62 2.013,92 0,00 0,00 0,00 0,00 0,00 14.569,93 26.653,47 1.745,64 1.921,43 0,00 0,00 3.667,07 22.986,40 30/11/2021
958 511500 FABRICIO RENE CARDOSO DE PADUA ANALISTA DO MP SÃO SEBASTIÃO DO PARAÍSO - COMARCA; SAO SEBASTIAO DO PARAISO-PJ-03PJ 10.069,62 2.013,92 0,00 0,00 0,00 0,00 1.006,96 1.717,00 14.807,50 1.906,76 2.206,17 0,00 0,00 4.112,93 10.694,57 30/11/2021
959 496100 FABRICIO RESENDE GONCALVES OFICIAL DO MP ENTRE-RIOS DE MINAS - COMARCA; ENTRE RIOS DE MINAS-PJ-UNPJ 7.421,79 1.484,36 0,00 0,00 0,00 0,00 0,00 2.486,39 11.392,54 1.237,26 1.239,58 0,00 0,00 2.476,84 8.915,70 30/11/2021
960 650300 FABRICIO ROBERTO AZEVEDO OFICIAL DO MP NOVA SERRANA - COMARCA; NOVA SERRANA-PJ-04PJ 4.376,03 437,60 0,00 0,00 58,35 0,00 175,04 1.717,00 6.764,02 621,75 359,56 0,00 0,00 981,31 5.782,71 30/11/2021
961 514900 FADUA MARIA DRUMOND CHEQUER ANALISTA DO MP BETIM - COMARCA; BETIM-PJ-12PJ 10.069,62 1.006,96 0,00 0,00 0,00 0,00 0,00 12.793,58 23.870,16 1.584,53 1.636,68 0,00 0,00 3.221,21 20.648,95 30/11/2021
962 282500 FANNY FERREIRA MELO OFICIAL DO MP ARAXÁ - COMARCA; ARAXA-PJ-03PJ 8.436,53 2.530,96 0,00 0,00 0,00 0,00 0,00 1.717,00 12.684,49 1.567,08 1.715,75 0,00 0,00 3.282,83 9.401,66 30/11/2021
963 692500 FARID JUNIOR NUNES DA SILVA ASSESSOR PROCURADOR JUSTICA BELO HORIZONTE - COMARCA; GABINETE DE PROCURADOR DE JUSTIÇA - SALA 902 0,00 0,00 7.187,72 0,00 0,00 0,00 0,00 1.717,00 8.904,72 751,97 1.125,65 0,00 0,00 1.877,62 7.027,10 30/11/2021
964 540100 FATIMA CRISTINA POVOA DA COSTA ASSESSOR/OFICIAL BELO HORIZONTE - COMARCA; BH-18PJ VIOLENCIA DOMESTICA-SECRETARIA 0,00 3.119,26 10.397,52 0,00 0,00 1.086,03 0,00 14.783,22 29.386,03 1.086,03 2.847,75 0,00 0,00 3.933,78 25.452,25 30/11/2021
965 382800 FATIMA DE OLIVEIRA COELHO E SILVA OFICIAL DO MP BELO HORIZONTE - COMARCA; DIRETORIA DE ADMINISTRACAO FINANCEIRA 7.421,79 2.226,54 0,00 0,00 0,00 0,00 27,89 1.717,00 11.393,22 1.356,01 2.093,37 0,00 0,00 3.449,38 7.943,84 30/11/2021
966 398601 FELIPE ANTONIO HORTA DE PAULA ANALISTA DO MP BELO HORIZONTE - COMARCA; PROC. JUSTICA DIR. DIFUSOS E COLETIVOS-SEC 9.444,70 944,47 0,00 0,00 0,00 0,00 14,41 12.106,17 22.509,75 1.474,54 2.342,76 0,00 0,00 3.817,30 18.692,45 30/11/2021
967 430900 FELIPE BOY VIEIRA ANALISTA DO MP BELO HORIZONTE - COMARCA; DIRETORIA DE SEGURANCA 12.601,30 2.520,26 0,00 0,00 0,00 0,00 0,00 16.838,56 31.960,12 2.231,73 3.781,88 0,00 0,00 6.013,61 25.946,51 30/11/2021
968 631700 FELIPE DE MORAIS SIMOES COELHO ANALISTA DO MP BELO HORIZONTE - COMARCA; BH-18PJ VIOLENCIA DOMESTICA-SECRETARIA 7.663,37 766,34 0,00 0,00 0,00 0,00 0,00 1.717,00 10.146,71 1.161,03 1.129,53 0,00 0,00 2.290,56 7.856,15 30/11/2021
969 549100 FELIPE FERNANDES ALVIM ANALISTA DO MP LAJINHA - COMARCA; LAJINHA-PJ-UNPJ 9.444,70 944,47 0,00 0,00 0,00 0,00 30,03 12.875,56 23.294,76 1.474,54 2.342,76 0,00 0,00 3.817,30 19.477,46 30/11/2021
970 693100 FELIPE FROIS DO AMARAL ASSESSOR PROMOTOR JUSTICA RIBEIRÃO DAS NEVES - COMARCA; RIBEIRAO NEVES-SEC PJ EXECUCAO PENAL 0,00 0,00 7.187,72 0,00 0,00 0,00 0,00 1.717,00 8.904,72 751,97 1.125,65 0,00 0,00 1.877,62 7.027,10 30/11/2021
971 620100 FELIPE GOMES DE AZEVEDO ASSESSOR/OFICIAL BELO HORIZONTE - COMARCA; DIVISAO DE SERVICOS 0,00 817,05 8.170,49 -49,95 0,00 0,00 0,00 10.704,54 19.642,13 762,96 1.125,74 0,00 969,67 2.858,37 16.783,76 30/11/2021
972 601600 FELIPE RODRIGUES DE SIQUEIRA ANALISTA DO MP BELO HORIZONTE - COMARCA; BH-02PJ FAMILIA-SECRETARIA 9.444,70 944,47 0,00 0,00 0,00 0,00 0,00 1.717,00 12.106,17 841,65 1.311,62 0,00 0,00 2.153,27 9.952,90 30/11/2021
973 628900 FELIX FERNANDO JUNIO VIEIRA ANALISTA DO MP CAETÉ - COMARCA; CAETE-PJ-02PJ 9.146,93 914,69 0,00 0,00 0,00 0,00 0,00 11.778,62 21.840,24 1.422,14 1.454,36 0,00 0,00 2.876,50 18.963,74 30/11/2021
974 544500 FELLIPE LEMOS MARCONDES BUENO ANALISTA DO MP SÃO SEBASTIÃO DO PARAÍSO - COMARCA; SAO SEBASTIAO DO PARAISO-PJ-04PJ 9.444,70 944,47 0,00 0,00 0,00 0,00 533,31 17.924,11 28.846,59 1.474,54 1.582,16 0,00 0,00 3.056,70 25.789,89 30/11/2021
975 688500 FELLIPE TADEU DE ANDRADE RAMOS ASSESSOR PROCURADOR JUSTICA BELO HORIZONTE - COMARCA; GABINETE DE PROCURADOR DE JUSTIÇA - SALA 907 0,00 0,00 7.187,72 0,00 0,00 0,00 0,00 1.717,00 8.904,72 751,97 1.229,92 0,00 0,00 1.981,89 6.922,83 30/11/2021
976 612600 FERNANDA ADRIANA DE PAULA GUIDO ANALISTA DO MP PARACATU - COMARCA; PARACATU-PJ-02PJ 9.146,93 914,69 0,00 0,00 0,00 0,00 0,00 12.548,01 22.609,63 1.422,14 1.506,50 0,00 0,00 2.928,64 19.680,99 30/11/2021
977 508400 FERNANDA AGANETTI MATTOS DE OLIVEIRA ANALISTA DO MP BELO HORIZONTE - COMARCA; JUNTA RECURSAL DO PROCON ESTADUAL 10.069,62 2.013,92 0,00 0,00 0,00 0,00 1.006,96 2.486,39 15.576,89 1.906,76 2.206,17 0,00 0,00 4.112,93 11.463,96 30/11/2021
978 453600 FERNANDA ALBERNAZ RABELO ANALISTA DO MP BELO HORIZONTE - COMARCA; GABINETE DE PROCURADOR DE JUSTIÇA - SALA 616 10.069,62 2.013,92 0,00 0,00 0,00 0,00 0,00 1.717,00 13.800,54 1.745,64 1.973,56 0,00 0,00 3.719,20 10.081,34 30/11/2021
979 255600 FERNANDA ALINA DE ALMEIDA ANDRADE OFICIAL DO MP BELO HORIZONTE - COMARCA; DIRETORIA DE INTELIGENCIA 10.069,62 3.020,89 0,00 0,00 0,00 0,00 0,00 14.807,51 27.898,02 1.906,76 2.206,17 0,00 0,00 4.112,93 23.785,09 30/11/2021
980 443200 FERNANDA ALMEIDA LOPES ANALISTA DO MP CONTAGEM - COMARCA; CONTAGEM-PJ-10PJ 13.011,52 2.602,30 0,00 0,00 0,00 0,00 45,12 18.869,60 34.528,54 2.310,49 3.872,17 0,00 0,00 6.182,66 28.345,88 30/11/2021
981 281100 FERNANDA ANANIAS MEIRA ANALISTA DO MP BELO HORIZONTE - COMARCA; BH-23PJ INFRACIONAL-ASS JURIDICA 17.413,92 5.224,18 0,00 0,00 0,00 0,00 4.688,57 24.355,10 51.681,77 4.179,49 7.895,22 0,00 0,00 12.074,71 39.607,06 30/11/2021
982 539000 FERNANDA BARBOSA ALVES ANALISTA DO MP UBERABA - COMARCA; UBERABA-PJ-04PJ 9.444,70 944,47 0,00 0,00 0,00 0,00 0,00 2.486,39 12.875,56 1.474,54 1.582,16 0,00 0,00 3.056,70 9.818,86 30/11/2021
983 451200 FERNANDA BLOISE PRADO OFICIAL DO MP BELO HORIZONTE - COMARCA; BH-12PJ JUIZO CRIMINAL-SECRETARIA 8.170,49 1.634,10 0,00 0,00 0,00 0,00 359,50 14.412,83 24.576,92 1.381,01 1.447,12 0,00 0,00 2.828,13 21.748,79 30/11/2021
984 427900 FERNANDA BRAGA CARNEIRO BICALHO ANALISTA DO MP PEÇANHA - COMARCA; PECANHA-PJ-SECRETARIA 10.069,62 2.013,92 0,00 0,00 0,00 0,00 0,00 2.486,39 14.569,93 1.745,64 1.921,43 0,00 0,00 3.667,07 10.902,86 30/11/2021
985 507100 FERNANDA CABRINI VAZ MOTA ANALISTA DO MP BELO HORIZONTE - COMARCA; DIVISAO DE MATERIAIS 10.069,62 2.013,92 0,00 0,00 0,00 0,00 1.260,71 11.311,47 24.655,72 1.745,64 2.320,26 0,00 0,00 4.065,90 20.589,82 30/11/2021
986 259800 FERNANDA CALZAVARA DE SOUSA COORDENADOR/OFICIAL BELO HORIZONTE - COMARCA; DIRET DE FORMACAO, APERFEIC. E POS-GRADUACAO 12.601,30 3.780,39 2.687,03 0,00 6.356,24 0,00 0,00 21.319,01 46.743,97 2.433,35 5.401,20 0,00 0,00 7.834,55 38.909,42 30/11/2021
987 494400 FERNANDA CAMPOS BARATA OFICIAL DO MP JUIZ DE FORA - COMARCA; JUIZ DE FORA-PJ-08PJ 6.123,79 1.224,76 0,00 0,00 0,00 0,00 269,45 12.004,97 19.622,97 988,05 879,78 0,00 0,00 1.867,83 17.755,14 30/11/2021
988 555600 FERNANDA CAROLINE RIBEIRO ANALISTA DO MP BELO HORIZONTE - COMARCA; DIRETORIA GESTAO CONTRATOS CONVENIOS 9.444,70 944,47 0,00 0,00 0,00 0,00 18,02 1.717,00 12.124,19 1.474,54 2.333,15 0,00 0,00 3.807,69 8.316,50 30/11/2021
989 692000 FERNANDA CESAR SILVA ASSESSOR PROCURADOR JUSTICA BELO HORIZONTE - COMARCA; GABINETE DE PROCURADOR DE JUSTIÇA - SALA 809 0,00 0,00 7.187,72 0,00 0,00 0,00 0,00 1.717,00 8.904,72 751,97 1.229,92 0,00 0,00 1.981,89 6.922,83 30/11/2021
990 294500 FERNANDA COSTA FLORES OFICIAL DO MP PARÁ DE MINAS - COMARCA; PARA DE MINAS-PJ-04PJ 10.069,62 3.020,89 0,00 0,00 0,00 0,00 0,00 14.807,51 27.898,02 1.906,76 2.206,17 0,00 0,00 4.112,93 23.785,09 30/11/2021
991 344500 FERNANDA CRISTINA DE SOUZA PAZ ASSESSOR BELO HORIZONTE - COMARCA; CENTRAL DE APOIO TECN-SETOR DE MEIO AMBIENTE 0,00 0,00 5.136,32 0,00 0,00 0,00 0,00 1.717,00 6.853,32 738,09 565,33 0,00 0,00 1.303,42 5.549,90 30/11/2021
992 538100 FERNANDA CRISTINA DOS SANTOS ROSA OFICIAL DO MP RIBEIRÃO DAS NEVES - COMARCA; RIBEIRAO DAS NEVES-PJ-09PJ 6.123,79 1.837,14 0,00 0,00 0,00 0,00 0,00 1.717,00 9.677,93 1.086,03 1.021,24 0,00 0,00 2.107,27 7.570,66 30/11/2021
993 337800 FERNANDA CRISTINA ROLAND CLIMACO MENDES COORDENADOR/OFICIAL BELO HORIZONTE - COMARCA; DIRETORIA DE PAGAMENTO DE PESSOAL-DPAG 0,00 4.030,55 13.435,16 0,00 0,00 0,00 0,00 20.269,26 37.734,97 2.118,07 3.351,24 0,00 0,00 5.469,31 32.265,66 30/11/2021
994 545400 FERNANDA CUNHA GUIMARAES ANALISTA DO MP BELO HORIZONTE - COMARCA; EXTINTA-COORD EST DEF DIR FAM PES DEFIC IDOSO 9.444,70 944,47 0,00 0,00 0,00 0,00 0,00 12.106,17 22.495,34 1.474,54 1.582,16 0,00 0,00 3.056,70 19.438,64 30/11/2021
995 429801 FERNANDA CUNHA PINHEIRO DA SILVA ANALISTA DO MP BELO HORIZONTE - COMARCA; ASSESSORIA DE COMUNICACAO INTEGRADA 10.069,62 1.006,96 0,00 0,00 0,00 0,00 0,00 1.717,00 12.793,58 1.584,53 1.636,68 0,00 0,00 3.221,21 9.572,37 30/11/2021
996 408000 FERNANDA DAS NEVES RAMOS ANALISTA DO MP BELO HORIZONTE - COMARCA; FEPDC-SECRETARIA EXECUTIVA 13.011,52 2.602,30 0,00 0,00 0,00 0,00 0,00 19.675,47 35.289,29 2.310,49 2.789,06 0,00 0,00 5.099,55 30.189,74 30/11/2021
997 496000 FERNANDA DE ALMEIDA VIANA ANALISTA DO MP BELO HORIZONTE - COMARCA; PROC JUST ATUACAO TRIBUNAIS SUPERIORES-GAB002 10.069,62 2.013,92 0,00 0,00 0,00 0,00 0,00 14.936,54 27.020,08 1.745,64 1.869,29 0,00 0,00 3.614,93 23.405,15 30/11/2021
998 266700 FERNANDA DE CASTRO LUCAS COORDENADOR/OFICIAL BELO HORIZONTE - COMARCA; DIRET DE DESENV DE RECURSOS HUMANOS-DDRH 12.601,30 3.780,39 2.687,03 0,00 0,00 0,00 0,00 22.088,40 41.157,12 2.433,35 3.653,23 0,00 0,00 6.086,58 35.070,54 30/11/2021
999 433200 FERNANDA DE FIGUEIREDO NORTE ANALISTA DO MP BELO HORIZONTE - COMARCA; ASSESS JUR DO CONS SUPERIOR DO MINISTERIO PUB 13.011,52 2.602,30 0,00 0,00 0,00 0,00 0,00 18.906,08 34.519,90 2.310,49 2.684,78 0,00 0,00 4.995,27 29.524,63 30/11/2021
1000 419200 FERNANDA DE MIRANDA MARTINS SIMOES ANALISTA DO MP UBERLÂNDIA - COMARCA; UBERLANDIA-PJ-17PJ 14.324,23 2.864,85 0,00 0,00 0,00 0,00 144,40 19.675,47 37.008,95 2.562,53 6.808,23 0,00 0,00 9.370,76 27.638,19 30/11/2021
1001 441400 FERNANDA DE MORAIS PINTO ANALISTA DO MP BELO HORIZONTE - COMARCA; PROC. JUSTICA DIR. DIFUSOS E COLETIVOS-SEC 12.601,30 2.520,26 0,00 0,00 0,00 0,00 0,00 17.330,82 32.452,38 2.231,73 2.675,34 0,00 0,00 4.907,07 27.545,31 30/11/2021
1002 432200 FERNANDA DE MOURA GUIMARAES ANALISTA DO MP BELO HORIZONTE - COMARCA; BH-26 CRIME CONT CRIAN ADOL-SECRETARIA 13.011,52 2.602,30 0,00 0,00 0,00 0,00 45,12 7.442,07 23.101,01 2.310,49 3.976,45 0,00 0,00 6.286,94 16.814,07 30/11/2021
1003 461800 FERNANDA DE OLIVEIRA SANTOS ANALISTA DO MP JUIZ DE FORA - COMARCA; JUIZ DE FORA-PJ-21PJ 10.736,08 2.147,22 0,00 0,00 0,00 0,00 0,00 2.486,39 15.369,69 1.873,61 2.158,30 0,00 0,00 4.031,91 11.337,78 30/11/2021
1004 432500 FERNANDA DE PAULA PINTO ANALISTA DO MP BELO HORIZONTE - COMARCA; PROC JUST ATUACAO TRIBUNAIS SUPERIORES-GAB003 12.601,30 2.520,26 0,00 0,00 0,00 0,00 0,00 18.100,21 33.221,77 2.231,73 2.675,34 0,00 0,00 4.907,07 28.314,70 30/11/2021
1005 431600 FERNANDA DIAS BARBOSA PEREIRA ANALISTA DO MP BELO HORIZONTE - COMARCA; BH-02PJ FAMILIA-SECRETARIA 13.011,52 2.602,30 0,00 0,00 0,00 0,00 45,12 2.486,39 18.145,33 2.310,49 3.872,17 0,00 0,00 6.182,66 11.962,67 30/11/2021
1006 162200 FERNANDA FERNANDES MONTEIRO ASSESSOR BELO HORIZONTE - COMARCA; BH-12PJ JUIZO CRIMINAL-SECRETARIA 0,00 2.054,53 5.136,32 0,00 0,00 0,00 0,00 4.353,65 11.544,50 751,97 1.178,64 0,00 0,00 1.930,61 9.613,89 30/11/2021
1007 512800 FERNANDA FERREIRA BARBOSA MOREIRA ANALISTA DO MP IPATINGA - COMARCA; IPATINGA-PJ-05PJ 10.069,62 2.013,92 0,00 0,00 4.027,85 0,00 1.006,96 14.569,93 31.688,28 1.906,76 3.313,83 0,00 0,00 5.220,59 26.467,69 30/11/2021
1008 329200 FERNANDA GABRIEL GUZELLA OFICIAL DO MP BELO HORIZONTE - COMARCA; DIRET DE PLANOS PROJETOS E PROGRAMAS INST 10.069,62 3.020,89 0,00 0,00 0,00 0,00 0,00 14.807,51 27.898,02 1.906,76 3.164,20 0,00 0,00 5.070,96 22.827,06 30/11/2021
1009 324200 FERNANDA GEORGIA NEVES ZAHAN OFICIAL DO MP IPANEMA - COMARCA; IPANEMA-PJ-SECRETARIA 8.436,53 5.905,57 0,00 0,00 0,00 0,00 0,00 16.059,10 30.401,20 2.107,01 2.495,29 0,00 0,00 4.602,30 25.798,90 30/11/2021
1010 548200 FERNANDA GONCALVES DE CARVALHO ZUZA OFICIAL DO MP TUPACIGUARA - COMARCA; TUPACIGUARA-PJ-01PJ 6.123,79 612,38 0,00 0,00 0,00 0,00 19,46 8.004,09 14.759,72 890,06 1.231,56 0,00 0,00 2.121,62 12.638,10 30/11/2021
1011 355400 FERNANDA HELENA BASQUES OFICIAL DO MP SABARÁ - COMARCA; SABARA-PJ-01PJ 10.069,62 3.020,89 0,00 0,00 0,00 0,00 0,00 14.807,51 27.898,02 1.906,76 4.993,45 0,00 0,00 6.900,21 20.997,81 30/11/2021
1012 454800 FERNANDA IATAROLA BARBOSA DIAS ANALISTA DO MP BARBACENA - COMARCA; BARBACENA-PJ-05PJ 11.085,56 2.217,11 0,00 0,00 0,00 0,00 38,44 15.019,67 28.360,78 1.940,70 3.235,08 0,00 0,00 5.175,78 23.185,00 30/11/2021
1013 515500 FERNANDA LILIANE MARUGEIRO ANALISTA DO MP LAGOA SANTA - COMARCA; LAGOA SANTA-PJ-01PJ 10.069,62 1.006,96 0,00 0,00 0,00 0,00 0,00 15.339,32 26.415,90 1.584,53 1.688,82 0,00 0,00 3.273,35 23.142,55 30/11/2021
1014 392900 FERNANDA MAGALHAES SILVA ANALISTA DO MP BELO HORIZONTE - COMARCA; DIR CONTEUDO JORNALISTICO 14.790,66 2.958,13 0,00 0,00 0,00 0,00 0,00 19.465,79 37.214,58 2.652,08 4.632,36 0,00 0,00 7.284,44 29.930,14 30/11/2021
1015 409200 FERNANDA MAIA SANTIAGO CARDOSO ANALISTA DO MP PIRAPORA - COMARCA; PIRAPORA-PJ-02PJ 10.069,62 2.013,92 0,00 0,00 0,00 0,00 0,00 14.569,93 26.653,47 1.745,64 1.973,56 0,00 0,00 3.719,20 22.934,27 30/11/2021
1016 556500 FERNANDA OTERO COSTA ANALISTA DO MP BELO HORIZONTE - COMARCA; ASSESS TECNICO-JUR JUNTO AS PROC. DE JUST 10.069,62 1.006,96 0,00 0,00 0,00 0,00 0,00 5.409,19 16.485,77 1.584,53 1.740,95 0,00 0,00 3.325,48 13.160,29 30/11/2021
1017 615300 FERNANDA PATRICIA RIBEIRO MOTA OFICIAL DO MP UBERABA - COMARCA; UBERABA-PJ-05PJ 5.387,19 538,72 0,00 0,00 0,00 0,00 41,62 8.240,83 14.208,36 762,96 1.698,09 0,00 0,00 2.461,05 11.747,31 30/11/2021
1018 619800 FERNANDA PINTO PEREIRA ANALISTA DO MP UBERLÂNDIA - COMARCA; UBERLANDIA-PJ-20PJ 9.146,93 914,69 0,00 0,00 0,00 0,00 0,00 13.317,40 23.379,02 1.422,14 1.454,36 0,00 0,00 2.876,50 20.502,52 30/11/2021
1019 412900 FERNANDA PORTELA ROSA ANALISTA DO MP BELO HORIZONTE - COMARCA; BH-08PJ JUIZADO ESPECIAL-SECRETARIA 14.324,23 2.864,85 0,00 0,00 0,00 0,00 144,40 12.799,84 30.133,32 2.562,53 7.041,74 0,00 0,00 9.604,27 20.529,05 30/11/2021
1020 274301 FERNANDA QUEIROZ PARREIRA ANALISTA DO MP PATOS DE MINAS - COMARCA; GAECO REGIONAL DE PATOS DE MINAS 10.069,62 2.013,92 0,00 0,00 0,00 0,00 0,00 1.717,00 13.800,54 1.745,64 1.973,56 0,00 0,00 3.719,20 10.081,34 30/11/2021
1021 467900 FERNANDA QUEIROZ SIMOES GANNAM ANALISTA DO MP SÃO LOURENÇO - COMARCA; SAO LOURENCO-PJ-02PJ 10.736,08 2.147,22 0,00 0,00 0,00 0,00 0,00 1.717,00 14.600,30 1.873,61 2.106,17 0,00 0,00 3.979,78 10.620,52 30/11/2021
1022 681001 FERNANDA ROCHA DE MATOS TEIXEIRA ASSESSOR PROMOTOR JUSTICA BELO VALE - COMARCA; BELO VALE-PJ-UNPJ 0,00 0,00 7.187,72 0,00 0,00 0,00 0,00 2.486,39 9.674,11 751,97 1.177,78 0,00 0,00 1.929,75 7.744,36 30/11/2021
1023 255500 FERNANDA SIMOES LOPES MENDES ANALISTA DO MP BELO HORIZONTE - COMARCA; BH-17PJ PATRIMONIO PUBLICO-SECRETARIA 18.820,14 5.646,04 0,00 0,00 0,00 0,00 538,26 32.055,06 57.059,50 3.726,87 4.729,68 0,00 0,00 8.456,55 48.602,95 30/11/2021
1024 708700 FERNANDA TIAGO BOLINA ASSESSOR PROMOTOR JUSTICA IGUATAMA - COMARCA; IGUATAMA-PJ-UNPJ 0,00 0,00 7.187,72 0,00 0,00 0,00 0,00 1.717,00 8.904,72 751,97 1.229,92 0,00 0,00 1.981,89 6.922,83 30/11/2021
1025 481700 FERNANDA VIANA FROES DA SILVA OFICIAL DO MP GOVERNADOR VALADARES - COMARCA; GOVERNADOR VALADARES-PJ-09PJ 7.912,85 1.582,57 0,00 0,00 0,00 0,00 0,00 1.717,00 11.212,42 1.331,54 2.098,34 0,00 0,00 3.429,88 7.782,54 30/11/2021
1026 123900 FERNANDO ANTONIO FARIA DE ABREU ANALISTA DO MP BELO HORIZONTE - COMARCA; SUPERINTENDÊNCIA DE ENGENHARIA E ARQUITETURA 26.471,31 23.824,17 0,00 0,00 0,00 5.486,23 0,00 37.179,22 92.960,93 5.486,23 8.882,75 14.833,26 0,00 29.202,24 63.758,69 30/11/2021
1027 416900 FERNANDO APARECIDO DA SILVA ANALISTA DO MP BOM DESPACHO - COMARCA; BOM DESPACHO-PJ-02PJ 13.011,52 9.108,06 0,00 0,00 0,00 0,00 0,00 23.836,58 45.956,16 3.351,41 4.187,61 0,00 0,00 7.539,02 38.417,14 30/11/2021
1028 500100 FERNANDO CEZAR PINTO OFICIAL DO MP SANTA LUZIA - COMARCA; SANTA LUZIA-PJ-04PJ 7.663,37 1.532,67 0,00 0,00 0,00 0,00 0,00 11.212,42 20.408,46 1.283,64 1.254,41 0,00 0,00 2.538,05 17.870,41 30/11/2021
1029 346100 FERNANDO EUSTAQUIO CAMPOS UTSCH MOREIRA ANALISTA DO MP BELO HORIZONTE - COMARCA; DIRETORIA DE SISTEMAS DE INFORMACAO 16.750,82 5.025,25 0,00 0,00 0,00 0,00 171,89 23.493,07 45.441,03 3.296,45 8.640,65 0,00 0,00 11.937,10 33.503,93 30/11/2021
1030 103500 FERNANDO LUIZ DA SILVA JUNIOR OFICIAL DO MP BELO HORIZONTE - COMARCA; DIVISAO DE ATENDIMENTO E CONSULTA JURIDICA 18.820,14 9.410,07 0,00 0,00 0,00 0,00 517,55 7.363,04 36.110,80 4.329,11 5.703,44 0,00 0,00 10.032,55 26.078,25 30/11/2021
1031 287300 FERNANDO MARCIO ALVES MARTINS OFICIAL DO MP LEOPOLDINA - COMARCA; LEOPOLDINA-PJ-01PJ 8.579,10 2.573,73 0,00 0,00 0,00 0,00 0,00 1.717,00 12.869,83 1.596,73 1.654,29 0,00 0,00 3.251,02 9.618,81 30/11/2021
1032 472900 FERNANDO RODRIGUES DE FREITAS ANALISTA DO MP BELO HORIZONTE - COMARCA; BH-15PJ M AMB PAT HIST CULT-ASS TECNICA 10.069,62 2.013,92 0,00 0,00 0,00 0,00 0,00 1.717,00 13.800,54 1.745,64 1.973,56 0,00 0,00 3.719,20 10.081,34 30/11/2021
1033 421400 FERNANDO TEODORO MACIEL ANALISTA DO MP SANTA VITÓRIA - COMARCA; SANTA VITORIA-PJ-UNPJ 12.204,02 2.440,80 0,00 0,00 0,00 0,00 123,03 12.737,76 27.505,61 2.155,45 5.576,45 0,00 0,00 7.731,90 19.773,71 30/11/2021
1034 446300 FERNANDO VITOR DE OLIVEIRA ANALISTA DO MP MONTES CLAROS - COMARCA; COORD REG BACIA RIOS VERDE GRANDE E PARDO 13.011,52 2.602,30 0,00 0,00 0,00 0,00 27,07 1.717,00 17.357,89 2.310,49 3.976,45 0,00 0,00 6.286,94 11.070,95 30/11/2021
1035 639300 FILIPE ALMEIDA RODRIGUES ANALISTA DO MP IPATINGA - COMARCA; COORD REG SAUDE MACRORREGIAO SANIT VALE ACO 8.436,53 843,65 0,00 0,00 0,00 0,00 26,83 10.997,18 20.304,19 1.297,11 2.032,35 0,00 0,00 3.329,46 16.974,73 30/11/2021
1036 692600 FILIPPE WAGNER MAGALHAES ALAMY REIS ASSESSOR PROCURADOR JUSTICA BELO HORIZONTE - COMARCA; GABINETE DE PROCURADOR DE JUSTIÇA - SALA 604 0,00 0,00 7.187,72 0,00 0,00 0,00 0,00 2.948,02 10.135,74 751,97 1.229,92 0,00 0,00 1.981,89 8.153,85 30/11/2021
1037 398400 FLAVIA ALVARES GUIMARAES COORDENADOR/OFICIAL BELO HORIZONTE - COMARCA; EXTINTA-CGMP-DIV APOIO FISC ORIENT FUNCIONAL 0,00 2.363,83 11.819,15 0,00 0,00 0,00 0,00 15.899,98 30.082,96 1.459,46 2.629,61 0,00 0,00 4.089,07 25.993,89 30/11/2021
1038 398200 FLAVIA ALVES DE ASSUNCAO RODRIGUES ANALISTA DO MP DIVINÓPOLIS - COMARCA; COORD REG DO MA DA BACIA DO ALTO SAO FRANC 13.011,52 2.602,30 0,00 0,00 0,00 0,00 45,12 18.100,21 33.759,15 2.310,49 3.924,31 0,00 0,00 6.234,80 27.524,35 30/11/2021
1039 318500 FLAVIA BEATRIZ NUNES CRUZ VIEIRA ANALISTA DO MP BARBACENA - COMARCA; BARBACENA-PJ-SECRETARIA 16.750,82 5.025,25 0,00 0,00 0,00 0,00 0,00 24.355,10 46.131,17 3.296,45 4.108,26 0,00 0,00 7.404,71 38.726,46 30/11/2021
1040 496500 FLAVIA CARAM BORLIDO ANALISTA DO MP BELO HORIZONTE - COMARCA; DIRETORIA GESTAO CONTRATOS CONVENIOS 12.204,02 2.440,80 0,00 0,00 0,00 0,00 0,00 16.838,56 31.483,38 2.155,45 2.565,22 0,00 0,00 4.720,67 26.762,71 30/11/2021
1041 534800 FLAVIA CONDE SOARES ANALISTA DO MP BELO HORIZONTE - COMARCA; BH-13PJ JUÍZO DE TÓXICOS-ASSESSORIA JURIDICA 9.444,70 944,47 0,00 0,00 0,00 0,00 0,00 2.486,39 12.875,56 1.474,54 1.582,16 0,00 0,00 3.056,70 9.818,86 30/11/2021
1042 219500 FLAVIA CRISTINA ANCELMO OFICIAL DO MP BELO HORIZONTE - COMARCA; CAO-DH CONT EXT ATIV POLIC E AP COMUNIT 10.069,62 3.020,89 0,00 0,00 0,00 0,00 0,00 14.807,51 27.898,02 1.906,76 2.206,17 0,00 0,00 4.112,93 23.785,09 30/11/2021
1043 329600 FLAVIA CRISTINA DE MATOS XAVIER ANALISTA DO MP UBERABA - COMARCA; UBERABA-PJ-15PJ 16.750,82 5.025,25 0,00 0,00 0,00 0,00 0,00 1.717,00 23.493,07 3.296,45 4.108,26 0,00 0,00 7.404,71 16.088,36 30/11/2021
1044 207600 FLAVIA DE ANDRADE MANCINI ANALISTA DO MP BELO HORIZONTE - COMARCA; ASSESSORIA JURIDICO-ADMINISTRATIVA 18.820,14 7.528,06 0,00 0,00 0,00 0,00 0,00 28.065,20 54.413,40 4.027,99 5.112,29 0,00 0,00 9.140,28 45.273,12 30/11/2021
1045 402801 FLAVIA MARIA DE RESENDE NASCIMENTO ANALISTA DO MP SÃO JOÃO DEL REI - COMARCA; SAO JOAO DEL REI-PJ-04PJ 10.069,62 1.006,96 0,00 0,00 0,00 0,00